<?xml version="1.0" encoding="UTF-8" standalone="no" ?>
<gpx xmlns="http://www.topografix.com/GPX/1/1" xmlns:xsi="http://www.w3.org/2001/XMLSchema-instance" xsi:schemaLocation="http://www.topografix.com/GPX/1/1 http://www.topografix.com/GPX/1/1/gpx.xsd" version="1.1" creator="VisuGPX - https://www.visugpx.com">
  <metadata>
    <name>VELO BOURG DE BIGORRE 30/01/26 </name>
    <desc><![CDATA[Temps excellent pour cette boucle dans les baronnies . La piste qui démarre au petit col après Batsère, au lieu dit Cou Aguilhou est peu utilisée et avec de grosses ornières , mais c\'est bien le seul passage qui nous a posé problème. La forêt est magnifique avec ses couleurs automnales. Après les quelques orages de la semaine , il semble qu\'il y ait eu une poussée champignons.... vu le nombre de voitures en lisière des bois . Une très jolie boucle .]]></desc>
  </metadata>
  <trk>
    <name><![CDATA[2026-08-30 13:03:30]]></name>
    <trkseg>
      <trkpt lat="43.09024" lon="0.25862">
        <ele>348.91</ele>
        <time>2026-08-30T08:53:57Z</time>
      </trkpt>
      <trkpt lat="43.09026" lon="0.2586">
        <ele>350.15</ele>
        <time>2026-08-30T08:54:05Z</time>
      </trkpt>
      <trkpt lat="43.09026" lon="0.25862">
        <ele>330.62</ele>
        <time>2026-08-30T08:54:17Z</time>
      </trkpt>
      <trkpt lat="43.09025" lon="0.25862">
        <ele>330.62</ele>
        <time>2026-08-30T08:54:18Z</time>
      </trkpt>
      <trkpt lat="43.09028" lon="0.2586">
        <ele>331.74</ele>
        <time>2026-08-30T08:54:31Z</time>
      </trkpt>
      <trkpt lat="43.0903" lon="0.25861">
        <ele>328.89</ele>
        <time>2026-08-30T08:54:39Z</time>
      </trkpt>
      <trkpt lat="43.0903" lon="0.2586">
        <ele>334.66</ele>
        <time>2026-08-30T08:54:40Z</time>
      </trkpt>
      <trkpt lat="43.09029" lon="0.2586">
        <ele>334.67</ele>
        <time>2026-08-30T08:54:41Z</time>
      </trkpt>
      <trkpt lat="43.09029" lon="0.2586">
        <ele>336.54</ele>
        <time>2026-08-30T08:54:43Z</time>
      </trkpt>
      <trkpt lat="43.09029" lon="0.25859">
        <ele>336.7</ele>
        <time>2026-08-30T08:55:15Z</time>
      </trkpt>
      <trkpt lat="43.0903" lon="0.25861">
        <ele>336.85</ele>
        <time>2026-08-30T08:56:12Z</time>
      </trkpt>
      <trkpt lat="43.09032" lon="0.25862">
        <ele>336.93</ele>
        <time>2026-08-30T08:56:44Z</time>
      </trkpt>
      <trkpt lat="43.09032" lon="0.2586">
        <ele>337.13</ele>
        <time>2026-08-30T08:57:44Z</time>
      </trkpt>
      <trkpt lat="43.09031" lon="0.25858">
        <ele>338.17</ele>
        <time>2026-08-30T08:58:45Z</time>
      </trkpt>
      <trkpt lat="43.09025" lon="0.25853">
        <ele>338.18</ele>
        <time>2026-08-30T08:58:54Z</time>
      </trkpt>
      <trkpt lat="43.09029" lon="0.25853">
        <ele>338.21</ele>
        <time>2026-08-30T08:58:56Z</time>
      </trkpt>
      <trkpt lat="43.09031" lon="0.25853">
        <ele>338.19</ele>
        <time>2026-08-30T08:58:57Z</time>
      </trkpt>
      <trkpt lat="43.09033" lon="0.25853">
        <ele>338.18</ele>
        <time>2026-08-30T08:58:58Z</time>
      </trkpt>
      <trkpt lat="43.09034" lon="0.25853">
        <ele>338.18</ele>
        <time>2026-08-30T08:58:59Z</time>
      </trkpt>
      <trkpt lat="43.09035" lon="0.25854">
        <ele>338.19</ele>
        <time>2026-08-30T08:59:00Z</time>
      </trkpt>
      <trkpt lat="43.09037" lon="0.25855">
        <ele>338.16</ele>
        <time>2026-08-30T08:59:01Z</time>
      </trkpt>
      <trkpt lat="43.09038" lon="0.25857">
        <ele>338.17</ele>
        <time>2026-08-30T08:59:02Z</time>
      </trkpt>
      <trkpt lat="43.09039" lon="0.25858">
        <ele>338.16</ele>
        <time>2026-08-30T08:59:03Z</time>
      </trkpt>
      <trkpt lat="43.09038" lon="0.25861">
        <ele>338.16</ele>
        <time>2026-08-30T08:59:04Z</time>
      </trkpt>
      <trkpt lat="43.09038" lon="0.25864">
        <ele>338.15</ele>
        <time>2026-08-30T08:59:05Z</time>
      </trkpt>
      <trkpt lat="43.09037" lon="0.25868">
        <ele>338.16</ele>
        <time>2026-08-30T08:59:06Z</time>
      </trkpt>
      <trkpt lat="43.09034" lon="0.2587">
        <ele>338.16</ele>
        <time>2026-08-30T08:59:07Z</time>
      </trkpt>
      <trkpt lat="43.09021" lon="0.25882">
        <ele>338.13</ele>
        <time>2026-08-30T08:59:11Z</time>
      </trkpt>
      <trkpt lat="43.09019" lon="0.25888">
        <ele>335.81</ele>
        <time>2026-08-30T08:59:12Z</time>
      </trkpt>
      <trkpt lat="43.09019" lon="0.25896">
        <ele>335.79</ele>
        <time>2026-08-30T08:59:13Z</time>
      </trkpt>
      <trkpt lat="43.0902" lon="0.25903">
        <ele>334.28</ele>
        <time>2026-08-30T08:59:14Z</time>
      </trkpt>
      <trkpt lat="43.09021" lon="0.2591">
        <ele>334.28</ele>
        <time>2026-08-30T08:59:15Z</time>
      </trkpt>
      <trkpt lat="43.09021" lon="0.25914">
        <ele>334.28</ele>
        <time>2026-08-30T08:59:16Z</time>
      </trkpt>
      <trkpt lat="43.09021" lon="0.25917">
        <ele>334.27</ele>
        <time>2026-08-30T08:59:17Z</time>
      </trkpt>
      <trkpt lat="43.09022" lon="0.2592">
        <ele>334.27</ele>
        <time>2026-08-30T08:59:18Z</time>
      </trkpt>
      <trkpt lat="43.09023" lon="0.25922">
        <ele>332.99</ele>
        <time>2026-08-30T08:59:20Z</time>
      </trkpt>
      <trkpt lat="43.0903" lon="0.2593">
        <ele>330.96</ele>
        <time>2026-08-30T08:59:30Z</time>
      </trkpt>
      <trkpt lat="43.09045" lon="0.25977">
        <ele>331.1</ele>
        <time>2026-08-30T08:59:39Z</time>
      </trkpt>
      <trkpt lat="43.0905" lon="0.25991">
        <ele>331.08</ele>
        <time>2026-08-30T08:59:41Z</time>
      </trkpt>
      <trkpt lat="43.09052" lon="0.25998">
        <ele>330.25</ele>
        <time>2026-08-30T08:59:42Z</time>
      </trkpt>
      <trkpt lat="43.09055" lon="0.26014">
        <ele>330.27</ele>
        <time>2026-08-30T08:59:44Z</time>
      </trkpt>
      <trkpt lat="43.0907" lon="0.26047">
        <ele>329.31</ele>
        <time>2026-08-30T08:59:51Z</time>
      </trkpt>
      <trkpt lat="43.09089" lon="0.26062">
        <ele>329.33</ele>
        <time>2026-08-30T08:59:56Z</time>
      </trkpt>
      <trkpt lat="43.09097" lon="0.26067">
        <ele>329.33</ele>
        <time>2026-08-30T08:59:58Z</time>
      </trkpt>
      <trkpt lat="43.09097" lon="0.26071">
        <ele>329.34</ele>
        <time>2026-08-30T08:59:59Z</time>
      </trkpt>
      <trkpt lat="43.09096" lon="0.26074">
        <ele>329.33</ele>
        <time>2026-08-30T09:00:00Z</time>
      </trkpt>
      <trkpt lat="43.09095" lon="0.26075">
        <ele>329.35</ele>
        <time>2026-08-30T09:00:01Z</time>
      </trkpt>
      <trkpt lat="43.09094" lon="0.26076">
        <ele>329.37</ele>
        <time>2026-08-30T09:00:02Z</time>
      </trkpt>
      <trkpt lat="43.09092" lon="0.26077">
        <ele>329.37</ele>
        <time>2026-08-30T09:00:03Z</time>
      </trkpt>
      <trkpt lat="43.09091" lon="0.26079">
        <ele>329.41</ele>
        <time>2026-08-30T09:00:04Z</time>
      </trkpt>
      <trkpt lat="43.09089" lon="0.26081">
        <ele>329.41</ele>
        <time>2026-08-30T09:00:05Z</time>
      </trkpt>
      <trkpt lat="43.09089" lon="0.26083">
        <ele>329.43</ele>
        <time>2026-08-30T09:00:06Z</time>
      </trkpt>
      <trkpt lat="43.09087" lon="0.26095">
        <ele>329.48</ele>
        <time>2026-08-30T09:00:19Z</time>
      </trkpt>
      <trkpt lat="43.09079" lon="0.26144">
        <ele>331.94</ele>
        <time>2026-08-30T09:00:30Z</time>
      </trkpt>
      <trkpt lat="43.09086" lon="0.26169">
        <ele>331.97</ele>
        <time>2026-08-30T09:00:36Z</time>
      </trkpt>
      <trkpt lat="43.09089" lon="0.2617">
        <ele>331.97</ele>
        <time>2026-08-30T09:00:37Z</time>
      </trkpt>
      <trkpt lat="43.09091" lon="0.26173">
        <ele>331.97</ele>
        <time>2026-08-30T09:00:38Z</time>
      </trkpt>
      <trkpt lat="43.0909" lon="0.26179">
        <ele>331.98</ele>
        <time>2026-08-30T09:00:39Z</time>
      </trkpt>
      <trkpt lat="43.0909" lon="0.26184">
        <ele>331.94</ele>
        <time>2026-08-30T09:00:40Z</time>
      </trkpt>
      <trkpt lat="43.0909" lon="0.2619">
        <ele>331.94</ele>
        <time>2026-08-30T09:00:41Z</time>
      </trkpt>
      <trkpt lat="43.09098" lon="0.26207">
        <ele>331.89</ele>
        <time>2026-08-30T09:00:45Z</time>
      </trkpt>
      <trkpt lat="43.09103" lon="0.26207">
        <ele>331.87</ele>
        <time>2026-08-30T09:00:46Z</time>
      </trkpt>
      <trkpt lat="43.09107" lon="0.26206">
        <ele>331.88</ele>
        <time>2026-08-30T09:00:47Z</time>
      </trkpt>
      <trkpt lat="43.09111" lon="0.26205">
        <ele>331.87</ele>
        <time>2026-08-30T09:00:48Z</time>
      </trkpt>
      <trkpt lat="43.09116" lon="0.26203">
        <ele>331.87</ele>
        <time>2026-08-30T09:00:49Z</time>
      </trkpt>
      <trkpt lat="43.09145" lon="0.26194">
        <ele>331.83</ele>
        <time>2026-08-30T09:00:55Z</time>
      </trkpt>
      <trkpt lat="43.0915" lon="0.26192">
        <ele>331.84</ele>
        <time>2026-08-30T09:00:56Z</time>
      </trkpt>
      <trkpt lat="43.09155" lon="0.26191">
        <ele>331.83</ele>
        <time>2026-08-30T09:00:57Z</time>
      </trkpt>
      <trkpt lat="43.09161" lon="0.26192">
        <ele>329.57</ele>
        <time>2026-08-30T09:00:59Z</time>
      </trkpt>
      <trkpt lat="43.09161" lon="0.26194">
        <ele>329.56</ele>
        <time>2026-08-30T09:01:00Z</time>
      </trkpt>
      <trkpt lat="43.0916" lon="0.26196">
        <ele>329.54</ele>
        <time>2026-08-30T09:01:01Z</time>
      </trkpt>
      <trkpt lat="43.0915" lon="0.26228">
        <ele>329.6</ele>
        <time>2026-08-30T09:01:11Z</time>
      </trkpt>
      <trkpt lat="43.0915" lon="0.26232">
        <ele>329.69</ele>
        <time>2026-08-30T09:01:24Z</time>
      </trkpt>
      <trkpt lat="43.0915" lon="0.26235">
        <ele>329.67</ele>
        <time>2026-08-30T09:01:28Z</time>
      </trkpt>
      <trkpt lat="43.0915" lon="0.26248">
        <ele>329.66</ele>
        <time>2026-08-30T09:01:32Z</time>
      </trkpt>
      <trkpt lat="43.09149" lon="0.26252">
        <ele>329.68</ele>
        <time>2026-08-30T09:01:33Z</time>
      </trkpt>
      <trkpt lat="43.09149" lon="0.26256">
        <ele>329.68</ele>
        <time>2026-08-30T09:01:34Z</time>
      </trkpt>
      <trkpt lat="43.09148" lon="0.26305">
        <ele>328.8</ele>
        <time>2026-08-30T09:01:42Z</time>
      </trkpt>
      <trkpt lat="43.09146" lon="0.2634">
        <ele>328.81</ele>
        <time>2026-08-30T09:01:46Z</time>
      </trkpt>
      <trkpt lat="43.09142" lon="0.26421">
        <ele>326.8</ele>
        <time>2026-08-30T09:01:55Z</time>
      </trkpt>
      <trkpt lat="43.09123" lon="0.26513">
        <ele>326.16</ele>
        <time>2026-08-30T09:02:08Z</time>
      </trkpt>
      <trkpt lat="43.0911" lon="0.26569">
        <ele>326.24</ele>
        <time>2026-08-30T09:02:16Z</time>
      </trkpt>
      <trkpt lat="43.09108" lon="0.26575">
        <ele>326.25</ele>
        <time>2026-08-30T09:02:17Z</time>
      </trkpt>
      <trkpt lat="43.09078" lon="0.2665">
        <ele>326.3</ele>
        <time>2026-08-30T09:02:29Z</time>
      </trkpt>
      <trkpt lat="43.09077" lon="0.26657">
        <ele>328.63</ele>
        <time>2026-08-30T09:02:30Z</time>
      </trkpt>
      <trkpt lat="43.09076" lon="0.26664">
        <ele>328.66</ele>
        <time>2026-08-30T09:02:31Z</time>
      </trkpt>
      <trkpt lat="43.09074" lon="0.26703">
        <ele>329.64</ele>
        <time>2026-08-30T09:02:37Z</time>
      </trkpt>
      <trkpt lat="43.09074" lon="0.26709">
        <ele>329.63</ele>
        <time>2026-08-30T09:02:38Z</time>
      </trkpt>
      <trkpt lat="43.09072" lon="0.26728">
        <ele>329.62</ele>
        <time>2026-08-30T09:02:41Z</time>
      </trkpt>
      <trkpt lat="43.09072" lon="0.26734">
        <ele>329.63</ele>
        <time>2026-08-30T09:02:42Z</time>
      </trkpt>
      <trkpt lat="43.09073" lon="0.26746">
        <ele>329.63</ele>
        <time>2026-08-30T09:02:44Z</time>
      </trkpt>
      <trkpt lat="43.09073" lon="0.26752">
        <ele>330.62</ele>
        <time>2026-08-30T09:02:45Z</time>
      </trkpt>
      <trkpt lat="43.09076" lon="0.26834">
        <ele>332.35</ele>
        <time>2026-08-30T09:02:59Z</time>
      </trkpt>
      <trkpt lat="43.09075" lon="0.26882">
        <ele>333.42</ele>
        <time>2026-08-30T09:03:07Z</time>
      </trkpt>
      <trkpt lat="43.09057" lon="0.26986">
        <ele>334.28</ele>
        <time>2026-08-30T09:03:23Z</time>
      </trkpt>
      <trkpt lat="43.09036" lon="0.27068">
        <ele>335.08</ele>
        <time>2026-08-30T09:03:37Z</time>
      </trkpt>
      <trkpt lat="43.09021" lon="0.27134">
        <ele>338.82</ele>
        <time>2026-08-30T09:03:50Z</time>
      </trkpt>
      <trkpt lat="43.09012" lon="0.27183">
        <ele>339.6</ele>
        <time>2026-08-30T09:04:00Z</time>
      </trkpt>
      <trkpt lat="43.08984" lon="0.27244">
        <ele>342.59</ele>
        <time>2026-08-30T09:04:15Z</time>
      </trkpt>
      <trkpt lat="43.08953" lon="0.27281">
        <ele>343.59</ele>
        <time>2026-08-30T09:04:25Z</time>
      </trkpt>
      <trkpt lat="43.0895" lon="0.27286">
        <ele>343.58</ele>
        <time>2026-08-30T09:04:26Z</time>
      </trkpt>
      <trkpt lat="43.08948" lon="0.27291">
        <ele>343.58</ele>
        <time>2026-08-30T09:04:27Z</time>
      </trkpt>
      <trkpt lat="43.08947" lon="0.27297">
        <ele>343.57</ele>
        <time>2026-08-30T09:04:28Z</time>
      </trkpt>
      <trkpt lat="43.08947" lon="0.27302">
        <ele>343.58</ele>
        <time>2026-08-30T09:04:29Z</time>
      </trkpt>
      <trkpt lat="43.08947" lon="0.27308">
        <ele>343.59</ele>
        <time>2026-08-30T09:04:30Z</time>
      </trkpt>
      <trkpt lat="43.08949" lon="0.27312">
        <ele>343.58</ele>
        <time>2026-08-30T09:04:31Z</time>
      </trkpt>
      <trkpt lat="43.08951" lon="0.27317">
        <ele>343.57</ele>
        <time>2026-08-30T09:04:32Z</time>
      </trkpt>
      <trkpt lat="43.08954" lon="0.27341">
        <ele>344.5</ele>
        <time>2026-08-30T09:04:38Z</time>
      </trkpt>
      <trkpt lat="43.08953" lon="0.27344">
        <ele>345.36</ele>
        <time>2026-08-30T09:04:39Z</time>
      </trkpt>
      <trkpt lat="43.08953" lon="0.27346">
        <ele>345.4</ele>
        <time>2026-08-30T09:04:40Z</time>
      </trkpt>
      <trkpt lat="43.08952" lon="0.27348">
        <ele>346.45</ele>
        <time>2026-08-30T09:04:41Z</time>
      </trkpt>
      <trkpt lat="43.08951" lon="0.2735">
        <ele>346.47</ele>
        <time>2026-08-30T09:04:42Z</time>
      </trkpt>
      <trkpt lat="43.0895" lon="0.27352">
        <ele>346.5</ele>
        <time>2026-08-30T09:04:43Z</time>
      </trkpt>
      <trkpt lat="43.08949" lon="0.27353">
        <ele>346.49</ele>
        <time>2026-08-30T09:04:44Z</time>
      </trkpt>
      <trkpt lat="43.08948" lon="0.27355">
        <ele>347.64</ele>
        <time>2026-08-30T09:04:45Z</time>
      </trkpt>
      <trkpt lat="43.08946" lon="0.27357">
        <ele>347.62</ele>
        <time>2026-08-30T09:04:46Z</time>
      </trkpt>
      <trkpt lat="43.08945" lon="0.27359">
        <ele>347.65</ele>
        <time>2026-08-30T09:04:47Z</time>
      </trkpt>
      <trkpt lat="43.08944" lon="0.27361">
        <ele>348.52</ele>
        <time>2026-08-30T09:04:48Z</time>
      </trkpt>
      <trkpt lat="43.08935" lon="0.27373">
        <ele>349.79</ele>
        <time>2026-08-30T09:04:53Z</time>
      </trkpt>
      <trkpt lat="43.08904" lon="0.27408">
        <ele>352.7</ele>
        <time>2026-08-30T09:05:06Z</time>
      </trkpt>
      <trkpt lat="43.0889" lon="0.27426">
        <ele>354.02</ele>
        <time>2026-08-30T09:05:12Z</time>
      </trkpt>
      <trkpt lat="43.08857" lon="0.27486">
        <ele>358.4</ele>
        <time>2026-08-30T09:05:30Z</time>
      </trkpt>
      <trkpt lat="43.08855" lon="0.27489">
        <ele>358.4</ele>
        <time>2026-08-30T09:05:31Z</time>
      </trkpt>
      <trkpt lat="43.08835" lon="0.27534">
        <ele>361.71</ele>
        <time>2026-08-30T09:05:44Z</time>
      </trkpt>
      <trkpt lat="43.08822" lon="0.27558">
        <ele>363.92</ele>
        <time>2026-08-30T09:05:51Z</time>
      </trkpt>
      <trkpt lat="43.08797" lon="0.27594">
        <ele>365.99</ele>
        <time>2026-08-30T09:06:03Z</time>
      </trkpt>
      <trkpt lat="43.08767" lon="0.27624">
        <ele>367.77</ele>
        <time>2026-08-30T09:06:16Z</time>
      </trkpt>
      <trkpt lat="43.08734" lon="0.27648">
        <ele>371.42</ele>
        <time>2026-08-30T09:06:29Z</time>
      </trkpt>
      <trkpt lat="43.08712" lon="0.27661">
        <ele>373.36</ele>
        <time>2026-08-30T09:06:39Z</time>
      </trkpt>
      <trkpt lat="43.08693" lon="0.27668">
        <ele>376.13</ele>
        <time>2026-08-30T09:06:48Z</time>
      </trkpt>
      <trkpt lat="43.08691" lon="0.27668">
        <ele>376.12</ele>
        <time>2026-08-30T09:06:49Z</time>
      </trkpt>
      <trkpt lat="43.08688" lon="0.27668">
        <ele>376.12</ele>
        <time>2026-08-30T09:06:50Z</time>
      </trkpt>
      <trkpt lat="43.08686" lon="0.27668">
        <ele>376.1</ele>
        <time>2026-08-30T09:06:51Z</time>
      </trkpt>
      <trkpt lat="43.08683" lon="0.27669">
        <ele>376.11</ele>
        <time>2026-08-30T09:06:52Z</time>
      </trkpt>
      <trkpt lat="43.08643" lon="0.27672">
        <ele>378.88</ele>
        <time>2026-08-30T09:07:08Z</time>
      </trkpt>
      <trkpt lat="43.08632" lon="0.27673">
        <ele>380.13</ele>
        <time>2026-08-30T09:07:12Z</time>
      </trkpt>
      <trkpt lat="43.08607" lon="0.27671">
        <ele>383.23</ele>
        <time>2026-08-30T09:07:22Z</time>
      </trkpt>
      <trkpt lat="43.08596" lon="0.27669">
        <ele>384.53</ele>
        <time>2026-08-30T09:07:27Z</time>
      </trkpt>
      <trkpt lat="43.08586" lon="0.27669">
        <ele>385.81</ele>
        <time>2026-08-30T09:07:31Z</time>
      </trkpt>
      <trkpt lat="43.08555" lon="0.27669">
        <ele>389.66</ele>
        <time>2026-08-30T09:07:44Z</time>
      </trkpt>
      <trkpt lat="43.08518" lon="0.27675">
        <ele>393</ele>
        <time>2026-08-30T09:08:00Z</time>
      </trkpt>
      <trkpt lat="43.08484" lon="0.27689">
        <ele>395.5</ele>
        <time>2026-08-30T09:08:15Z</time>
      </trkpt>
      <trkpt lat="43.08474" lon="0.27698">
        <ele>398.01</ele>
        <time>2026-08-30T09:08:21Z</time>
      </trkpt>
      <trkpt lat="43.08462" lon="0.27711">
        <ele>400.5</ele>
        <time>2026-08-30T09:08:29Z</time>
      </trkpt>
      <trkpt lat="43.08441" lon="0.27727">
        <ele>403.88</ele>
        <time>2026-08-30T09:08:41Z</time>
      </trkpt>
      <trkpt lat="43.08413" lon="0.27736">
        <ele>406.89</ele>
        <time>2026-08-30T09:08:55Z</time>
      </trkpt>
      <trkpt lat="43.08402" lon="0.27735">
        <ele>410.12</ele>
        <time>2026-08-30T09:09:01Z</time>
      </trkpt>
      <trkpt lat="43.084" lon="0.27734">
        <ele>410.08</ele>
        <time>2026-08-30T09:09:02Z</time>
      </trkpt>
      <trkpt lat="43.08375" lon="0.27722">
        <ele>413.73</ele>
        <time>2026-08-30T09:09:15Z</time>
      </trkpt>
      <trkpt lat="43.08362" lon="0.27715">
        <ele>416.49</ele>
        <time>2026-08-30T09:09:22Z</time>
      </trkpt>
      <trkpt lat="43.08341" lon="0.27703">
        <ele>420.26</ele>
        <time>2026-08-30T09:09:33Z</time>
      </trkpt>
      <trkpt lat="43.08309" lon="0.27685">
        <ele>424.12</ele>
        <time>2026-08-30T09:09:50Z</time>
      </trkpt>
      <trkpt lat="43.08282" lon="0.27668">
        <ele>427.73</ele>
        <time>2026-08-30T09:10:05Z</time>
      </trkpt>
      <trkpt lat="43.08278" lon="0.27666">
        <ele>428.56</ele>
        <time>2026-08-30T09:10:07Z</time>
      </trkpt>
      <trkpt lat="43.08253" lon="0.27647">
        <ele>432.38</ele>
        <time>2026-08-30T09:10:21Z</time>
      </trkpt>
      <trkpt lat="43.08217" lon="0.27617">
        <ele>434.51</ele>
        <time>2026-08-30T09:10:37Z</time>
      </trkpt>
      <trkpt lat="43.08163" lon="0.27583">
        <ele>437.03</ele>
        <time>2026-08-30T09:10:59Z</time>
      </trkpt>
      <trkpt lat="43.08127" lon="0.27568">
        <ele>440.71</ele>
        <time>2026-08-30T09:11:14Z</time>
      </trkpt>
      <trkpt lat="43.08094" lon="0.2756">
        <ele>444.34</ele>
        <time>2026-08-30T09:11:29Z</time>
      </trkpt>
      <trkpt lat="43.08066" lon="0.27564">
        <ele>446.12</ele>
        <time>2026-08-30T09:11:43Z</time>
      </trkpt>
      <trkpt lat="43.08035" lon="0.27574">
        <ele>448.07</ele>
        <time>2026-08-30T09:11:57Z</time>
      </trkpt>
      <trkpt lat="43.08025" lon="0.27577">
        <ele>449.41</ele>
        <time>2026-08-30T09:12:01Z</time>
      </trkpt>
      <trkpt lat="43.07989" lon="0.27583">
        <ele>451.99</ele>
        <time>2026-08-30T09:12:15Z</time>
      </trkpt>
      <trkpt lat="43.07955" lon="0.27608">
        <ele>455.91</ele>
        <time>2026-08-30T09:12:29Z</time>
      </trkpt>
      <trkpt lat="43.07937" lon="0.27628">
        <ele>457.3</ele>
        <time>2026-08-30T09:12:38Z</time>
      </trkpt>
      <trkpt lat="43.07915" lon="0.27651">
        <ele>458.39</ele>
        <time>2026-08-30T09:12:50Z</time>
      </trkpt>
      <trkpt lat="43.07878" lon="0.2768">
        <ele>462.23</ele>
        <time>2026-08-30T09:13:07Z</time>
      </trkpt>
      <trkpt lat="43.0784" lon="0.27704">
        <ele>465.12</ele>
        <time>2026-08-30T09:13:24Z</time>
      </trkpt>
      <trkpt lat="43.07798" lon="0.27719">
        <ele>468.1</ele>
        <time>2026-08-30T09:13:42Z</time>
      </trkpt>
      <trkpt lat="43.0778" lon="0.27721">
        <ele>470.81</ele>
        <time>2026-08-30T09:13:50Z</time>
      </trkpt>
      <trkpt lat="43.07767" lon="0.27722">
        <ele>473.04</ele>
        <time>2026-08-30T09:13:57Z</time>
      </trkpt>
      <trkpt lat="43.07747" lon="0.27721">
        <ele>476.47</ele>
        <time>2026-08-30T09:14:07Z</time>
      </trkpt>
      <trkpt lat="43.07718" lon="0.27719">
        <ele>479.1</ele>
        <time>2026-08-30T09:14:20Z</time>
      </trkpt>
      <trkpt lat="43.07713" lon="0.27718">
        <ele>479.08</ele>
        <time>2026-08-30T09:14:23Z</time>
      </trkpt>
      <trkpt lat="43.07711" lon="0.27717">
        <ele>479.06</ele>
        <time>2026-08-30T09:14:24Z</time>
      </trkpt>
      <trkpt lat="43.07711" lon="0.27715">
        <ele>479.06</ele>
        <time>2026-08-30T09:14:25Z</time>
      </trkpt>
      <trkpt lat="43.0771" lon="0.27714">
        <ele>479.09</ele>
        <time>2026-08-30T09:14:42Z</time>
      </trkpt>
      <trkpt lat="43.07708" lon="0.27712">
        <ele>479.15</ele>
        <time>2026-08-30T09:14:58Z</time>
      </trkpt>
      <trkpt lat="43.07707" lon="0.27712">
        <ele>479.15</ele>
        <time>2026-08-30T09:14:59Z</time>
      </trkpt>
      <trkpt lat="43.07706" lon="0.27712">
        <ele>479.15</ele>
        <time>2026-08-30T09:15:00Z</time>
      </trkpt>
      <trkpt lat="43.07704" lon="0.27712">
        <ele>479.16</ele>
        <time>2026-08-30T09:15:01Z</time>
      </trkpt>
      <trkpt lat="43.07702" lon="0.27713">
        <ele>479.17</ele>
        <time>2026-08-30T09:15:02Z</time>
      </trkpt>
      <trkpt lat="43.07665" lon="0.27719">
        <ele>479.23</ele>
        <time>2026-08-30T09:15:15Z</time>
      </trkpt>
      <trkpt lat="43.07631" lon="0.27724">
        <ele>481.51</ele>
        <time>2026-08-30T09:15:27Z</time>
      </trkpt>
      <trkpt lat="43.07606" lon="0.27739">
        <ele>484.53</ele>
        <time>2026-08-30T09:15:38Z</time>
      </trkpt>
      <trkpt lat="43.07603" lon="0.27741">
        <ele>484.62</ele>
        <time>2026-08-30T09:15:39Z</time>
      </trkpt>
      <trkpt lat="43.0757" lon="0.27773">
        <ele>487.99</ele>
        <time>2026-08-30T09:15:53Z</time>
      </trkpt>
      <trkpt lat="43.07544" lon="0.27809">
        <ele>489.9</ele>
        <time>2026-08-30T09:16:06Z</time>
      </trkpt>
      <trkpt lat="43.07518" lon="0.27857">
        <ele>491.64</ele>
        <time>2026-08-30T09:16:19Z</time>
      </trkpt>
      <trkpt lat="43.07503" lon="0.27913">
        <ele>491.73</ele>
        <time>2026-08-30T09:16:29Z</time>
      </trkpt>
      <trkpt lat="43.07501" lon="0.27919">
        <ele>492.53</ele>
        <time>2026-08-30T09:16:30Z</time>
      </trkpt>
      <trkpt lat="43.075" lon="0.27925">
        <ele>492.54</ele>
        <time>2026-08-30T09:16:31Z</time>
      </trkpt>
      <trkpt lat="43.07483" lon="0.27975">
        <ele>492.59</ele>
        <time>2026-08-30T09:16:39Z</time>
      </trkpt>
      <trkpt lat="43.07482" lon="0.27981">
        <ele>492.57</ele>
        <time>2026-08-30T09:16:40Z</time>
      </trkpt>
      <trkpt lat="43.0748" lon="0.27987">
        <ele>492.59</ele>
        <time>2026-08-30T09:16:41Z</time>
      </trkpt>
      <trkpt lat="43.07479" lon="0.27992">
        <ele>492.57</ele>
        <time>2026-08-30T09:16:42Z</time>
      </trkpt>
      <trkpt lat="43.07477" lon="0.27996">
        <ele>492.59</ele>
        <time>2026-08-30T09:16:43Z</time>
      </trkpt>
      <trkpt lat="43.07458" lon="0.2804">
        <ele>493.57</ele>
        <time>2026-08-30T09:16:52Z</time>
      </trkpt>
      <trkpt lat="43.07455" lon="0.28046">
        <ele>493.56</ele>
        <time>2026-08-30T09:16:53Z</time>
      </trkpt>
      <trkpt lat="43.07451" lon="0.28052">
        <ele>493.55</ele>
        <time>2026-08-30T09:16:54Z</time>
      </trkpt>
      <trkpt lat="43.07447" lon="0.28059">
        <ele>493.55</ele>
        <time>2026-08-30T09:16:55Z</time>
      </trkpt>
      <trkpt lat="43.07441" lon="0.28066">
        <ele>490.5</ele>
        <time>2026-08-30T09:16:56Z</time>
      </trkpt>
      <trkpt lat="43.07434" lon="0.28072">
        <ele>490.5</ele>
        <time>2026-08-30T09:16:57Z</time>
      </trkpt>
      <trkpt lat="43.07426" lon="0.28078">
        <ele>489.41</ele>
        <time>2026-08-30T09:16:58Z</time>
      </trkpt>
      <trkpt lat="43.07419" lon="0.28085">
        <ele>489.41</ele>
        <time>2026-08-30T09:16:59Z</time>
      </trkpt>
      <trkpt lat="43.07413" lon="0.28092">
        <ele>488.5</ele>
        <time>2026-08-30T09:17:00Z</time>
      </trkpt>
      <trkpt lat="43.07407" lon="0.28101">
        <ele>488.46</ele>
        <time>2026-08-30T09:17:01Z</time>
      </trkpt>
      <trkpt lat="43.07403" lon="0.28111">
        <ele>488.46</ele>
        <time>2026-08-30T09:17:02Z</time>
      </trkpt>
      <trkpt lat="43.07399" lon="0.28121">
        <ele>484.46</ele>
        <time>2026-08-30T09:17:03Z</time>
      </trkpt>
      <trkpt lat="43.07395" lon="0.28132">
        <ele>487.57</ele>
        <time>2026-08-30T09:17:04Z</time>
      </trkpt>
      <trkpt lat="43.07393" lon="0.28141">
        <ele>487.57</ele>
        <time>2026-08-30T09:17:05Z</time>
      </trkpt>
      <trkpt lat="43.07381" lon="0.28191">
        <ele>487.53</ele>
        <time>2026-08-30T09:17:11Z</time>
      </trkpt>
      <trkpt lat="43.07379" lon="0.28197">
        <ele>487.6</ele>
        <time>2026-08-30T09:17:12Z</time>
      </trkpt>
      <trkpt lat="43.07374" lon="0.28209">
        <ele>487.62</ele>
        <time>2026-08-30T09:17:14Z</time>
      </trkpt>
      <trkpt lat="43.07371" lon="0.28214">
        <ele>487.61</ele>
        <time>2026-08-30T09:17:15Z</time>
      </trkpt>
      <trkpt lat="43.07369" lon="0.28219">
        <ele>487.63</ele>
        <time>2026-08-30T09:17:16Z</time>
      </trkpt>
      <trkpt lat="43.07366" lon="0.28224">
        <ele>487.64</ele>
        <time>2026-08-30T09:17:17Z</time>
      </trkpt>
      <trkpt lat="43.07364" lon="0.28229">
        <ele>487.65</ele>
        <time>2026-08-30T09:17:18Z</time>
      </trkpt>
      <trkpt lat="43.07362" lon="0.28234">
        <ele>488.57</ele>
        <time>2026-08-30T09:17:19Z</time>
      </trkpt>
      <trkpt lat="43.07338" lon="0.28272">
        <ele>491.31</ele>
        <time>2026-08-30T09:17:30Z</time>
      </trkpt>
      <trkpt lat="43.07304" lon="0.28287">
        <ele>492.5</ele>
        <time>2026-08-30T09:17:40Z</time>
      </trkpt>
      <trkpt lat="43.07273" lon="0.28306">
        <ele>495.36</ele>
        <time>2026-08-30T09:17:51Z</time>
      </trkpt>
      <trkpt lat="43.07249" lon="0.2834">
        <ele>498.05</ele>
        <time>2026-08-30T09:18:03Z</time>
      </trkpt>
      <trkpt lat="43.07226" lon="0.2838">
        <ele>498.06</ele>
        <time>2026-08-30T09:18:15Z</time>
      </trkpt>
      <trkpt lat="43.0721" lon="0.28405">
        <ele>495.78</ele>
        <time>2026-08-30T09:18:19Z</time>
      </trkpt>
      <trkpt lat="43.07173" lon="0.28466">
        <ele>493.44</ele>
        <time>2026-08-30T09:18:27Z</time>
      </trkpt>
      <trkpt lat="43.07142" lon="0.28511">
        <ele>490.4</ele>
        <time>2026-08-30T09:18:32Z</time>
      </trkpt>
      <trkpt lat="43.07136" lon="0.2852">
        <ele>490.4</ele>
        <time>2026-08-30T09:18:33Z</time>
      </trkpt>
      <trkpt lat="43.07109" lon="0.28554">
        <ele>488.86</ele>
        <time>2026-08-30T09:18:37Z</time>
      </trkpt>
      <trkpt lat="43.07101" lon="0.28561">
        <ele>488.86</ele>
        <time>2026-08-30T09:18:38Z</time>
      </trkpt>
      <trkpt lat="43.07087" lon="0.28575">
        <ele>487.63</ele>
        <time>2026-08-30T09:18:40Z</time>
      </trkpt>
      <trkpt lat="43.07075" lon="0.28588">
        <ele>486.6</ele>
        <time>2026-08-30T09:18:42Z</time>
      </trkpt>
      <trkpt lat="43.0707" lon="0.28591">
        <ele>486.6</ele>
        <time>2026-08-30T09:18:43Z</time>
      </trkpt>
      <trkpt lat="43.07065" lon="0.28593">
        <ele>485.8</ele>
        <time>2026-08-30T09:18:44Z</time>
      </trkpt>
      <trkpt lat="43.07059" lon="0.28593">
        <ele>485.8</ele>
        <time>2026-08-30T09:18:45Z</time>
      </trkpt>
      <trkpt lat="43.07052" lon="0.28591">
        <ele>484.53</ele>
        <time>2026-08-30T09:18:46Z</time>
      </trkpt>
      <trkpt lat="43.07046" lon="0.28587">
        <ele>484.53</ele>
        <time>2026-08-30T09:18:47Z</time>
      </trkpt>
      <trkpt lat="43.07039" lon="0.28585">
        <ele>483.43</ele>
        <time>2026-08-30T09:18:48Z</time>
      </trkpt>
      <trkpt lat="43.07033" lon="0.28584">
        <ele>483.43</ele>
        <time>2026-08-30T09:18:49Z</time>
      </trkpt>
      <trkpt lat="43.07027" lon="0.28582">
        <ele>482.45</ele>
        <time>2026-08-30T09:18:50Z</time>
      </trkpt>
      <trkpt lat="43.07022" lon="0.28578">
        <ele>481.7</ele>
        <time>2026-08-30T09:18:51Z</time>
      </trkpt>
      <trkpt lat="43.07017" lon="0.28572">
        <ele>481.69</ele>
        <time>2026-08-30T09:18:52Z</time>
      </trkpt>
      <trkpt lat="43.06996" lon="0.28536">
        <ele>477.7</ele>
        <time>2026-08-30T09:18:56Z</time>
      </trkpt>
      <trkpt lat="43.06991" lon="0.28525">
        <ele>477.7</ele>
        <time>2026-08-30T09:18:57Z</time>
      </trkpt>
      <trkpt lat="43.06987" lon="0.28513">
        <ele>477.7</ele>
        <time>2026-08-30T09:18:58Z</time>
      </trkpt>
      <trkpt lat="43.06985" lon="0.285">
        <ele>476.73</ele>
        <time>2026-08-30T09:18:59Z</time>
      </trkpt>
      <trkpt lat="43.06983" lon="0.28487">
        <ele>476.73</ele>
        <time>2026-08-30T09:19:00Z</time>
      </trkpt>
      <trkpt lat="43.06982" lon="0.28474">
        <ele>475.84</ele>
        <time>2026-08-30T09:19:01Z</time>
      </trkpt>
      <trkpt lat="43.06981" lon="0.28461">
        <ele>474.74</ele>
        <time>2026-08-30T09:19:02Z</time>
      </trkpt>
      <trkpt lat="43.06981" lon="0.28449">
        <ele>474.74</ele>
        <time>2026-08-30T09:19:03Z</time>
      </trkpt>
      <trkpt lat="43.06979" lon="0.28438">
        <ele>474.74</ele>
        <time>2026-08-30T09:19:04Z</time>
      </trkpt>
      <trkpt lat="43.06976" lon="0.28429">
        <ele>474.74</ele>
        <time>2026-08-30T09:19:05Z</time>
      </trkpt>
      <trkpt lat="43.06972" lon="0.28421">
        <ele>474.26</ele>
        <time>2026-08-30T09:19:06Z</time>
      </trkpt>
      <trkpt lat="43.06965" lon="0.28418">
        <ele>474.35</ele>
        <time>2026-08-30T09:19:07Z</time>
      </trkpt>
      <trkpt lat="43.0696" lon="0.28419">
        <ele>473.23</ele>
        <time>2026-08-30T09:19:08Z</time>
      </trkpt>
      <trkpt lat="43.06954" lon="0.28421">
        <ele>473.67</ele>
        <time>2026-08-30T09:19:09Z</time>
      </trkpt>
      <trkpt lat="43.06949" lon="0.28424">
        <ele>473.67</ele>
        <time>2026-08-30T09:19:10Z</time>
      </trkpt>
      <trkpt lat="43.06915" lon="0.28439">
        <ele>473.67</ele>
        <time>2026-08-30T09:19:17Z</time>
      </trkpt>
      <trkpt lat="43.06911" lon="0.2844">
        <ele>473.69</ele>
        <time>2026-08-30T09:19:18Z</time>
      </trkpt>
      <trkpt lat="43.06902" lon="0.2844">
        <ele>473.69</ele>
        <time>2026-08-30T09:19:20Z</time>
      </trkpt>
      <trkpt lat="43.06898" lon="0.28439">
        <ele>473.7</ele>
        <time>2026-08-30T09:19:21Z</time>
      </trkpt>
      <trkpt lat="43.06893" lon="0.28439">
        <ele>473.69</ele>
        <time>2026-08-30T09:19:22Z</time>
      </trkpt>
      <trkpt lat="43.06888" lon="0.28439">
        <ele>473.69</ele>
        <time>2026-08-30T09:19:23Z</time>
      </trkpt>
      <trkpt lat="43.06884" lon="0.28437">
        <ele>473.69</ele>
        <time>2026-08-30T09:19:24Z</time>
      </trkpt>
      <trkpt lat="43.0688" lon="0.28435">
        <ele>473.69</ele>
        <time>2026-08-30T09:19:25Z</time>
      </trkpt>
      <trkpt lat="43.06876" lon="0.28431">
        <ele>473.68</ele>
        <time>2026-08-30T09:19:26Z</time>
      </trkpt>
      <trkpt lat="43.06873" lon="0.28425">
        <ele>473.67</ele>
        <time>2026-08-30T09:19:27Z</time>
      </trkpt>
      <trkpt lat="43.0687" lon="0.2842">
        <ele>473.67</ele>
        <time>2026-08-30T09:19:28Z</time>
      </trkpt>
      <trkpt lat="43.06866" lon="0.28415">
        <ele>470.57</ele>
        <time>2026-08-30T09:19:29Z</time>
      </trkpt>
      <trkpt lat="43.06864" lon="0.2841">
        <ele>475.39</ele>
        <time>2026-08-30T09:19:30Z</time>
      </trkpt>
      <trkpt lat="43.06861" lon="0.28405">
        <ele>475.39</ele>
        <time>2026-08-30T09:19:31Z</time>
      </trkpt>
      <trkpt lat="43.06859" lon="0.284">
        <ele>475.38</ele>
        <time>2026-08-30T09:19:32Z</time>
      </trkpt>
      <trkpt lat="43.06857" lon="0.28395">
        <ele>475.38</ele>
        <time>2026-08-30T09:19:33Z</time>
      </trkpt>
      <trkpt lat="43.06853" lon="0.28384">
        <ele>475.39</ele>
        <time>2026-08-30T09:19:35Z</time>
      </trkpt>
      <trkpt lat="43.0685" lon="0.28377">
        <ele>475.39</ele>
        <time>2026-08-30T09:19:36Z</time>
      </trkpt>
      <trkpt lat="43.06848" lon="0.28371">
        <ele>475.39</ele>
        <time>2026-08-30T09:19:37Z</time>
      </trkpt>
      <trkpt lat="43.06846" lon="0.28366">
        <ele>475.39</ele>
        <time>2026-08-30T09:19:38Z</time>
      </trkpt>
      <trkpt lat="43.06844" lon="0.2836">
        <ele>475.38</ele>
        <time>2026-08-30T09:19:39Z</time>
      </trkpt>
      <trkpt lat="43.06838" lon="0.28345">
        <ele>475.38</ele>
        <time>2026-08-30T09:19:42Z</time>
      </trkpt>
      <trkpt lat="43.0683" lon="0.28321">
        <ele>475.37</ele>
        <time>2026-08-30T09:19:47Z</time>
      </trkpt>
      <trkpt lat="43.06821" lon="0.28298">
        <ele>475.38</ele>
        <time>2026-08-30T09:19:51Z</time>
      </trkpt>
      <trkpt lat="43.06813" lon="0.28288">
        <ele>475.38</ele>
        <time>2026-08-30T09:19:53Z</time>
      </trkpt>
      <trkpt lat="43.06808" lon="0.28283">
        <ele>475.38</ele>
        <time>2026-08-30T09:19:54Z</time>
      </trkpt>
      <trkpt lat="43.06804" lon="0.2828">
        <ele>475.38</ele>
        <time>2026-08-30T09:19:55Z</time>
      </trkpt>
      <trkpt lat="43.06799" lon="0.28278">
        <ele>475.38</ele>
        <time>2026-08-30T09:19:56Z</time>
      </trkpt>
      <trkpt lat="43.06793" lon="0.28277">
        <ele>475.39</ele>
        <time>2026-08-30T09:19:57Z</time>
      </trkpt>
      <trkpt lat="43.06787" lon="0.28278">
        <ele>475.39</ele>
        <time>2026-08-30T09:19:58Z</time>
      </trkpt>
      <trkpt lat="43.06781" lon="0.28278">
        <ele>475.39</ele>
        <time>2026-08-30T09:19:59Z</time>
      </trkpt>
      <trkpt lat="43.06776" lon="0.28279">
        <ele>475.39</ele>
        <time>2026-08-30T09:20:00Z</time>
      </trkpt>
      <trkpt lat="43.06774" lon="0.28283">
        <ele>475.4</ele>
        <time>2026-08-30T09:20:01Z</time>
      </trkpt>
      <trkpt lat="43.06775" lon="0.28287">
        <ele>475.4</ele>
        <time>2026-08-30T09:20:02Z</time>
      </trkpt>
      <trkpt lat="43.06774" lon="0.28297">
        <ele>475.41</ele>
        <time>2026-08-30T09:20:03Z</time>
      </trkpt>
      <trkpt lat="43.06774" lon="0.28304">
        <ele>475.42</ele>
        <time>2026-08-30T09:20:04Z</time>
      </trkpt>
      <trkpt lat="43.06774" lon="0.28312">
        <ele>475.42</ele>
        <time>2026-08-30T09:20:05Z</time>
      </trkpt>
      <trkpt lat="43.06773" lon="0.28321">
        <ele>475.43</ele>
        <time>2026-08-30T09:20:06Z</time>
      </trkpt>
      <trkpt lat="43.06772" lon="0.28329">
        <ele>475.44</ele>
        <time>2026-08-30T09:20:07Z</time>
      </trkpt>
      <trkpt lat="43.06764" lon="0.28359">
        <ele>475.45</ele>
        <time>2026-08-30T09:20:10Z</time>
      </trkpt>
      <trkpt lat="43.06748" lon="0.28405">
        <ele>473.15</ele>
        <time>2026-08-30T09:20:15Z</time>
      </trkpt>
      <trkpt lat="43.06745" lon="0.28415">
        <ele>473.16</ele>
        <time>2026-08-30T09:20:16Z</time>
      </trkpt>
      <trkpt lat="43.06742" lon="0.28423">
        <ele>473.17</ele>
        <time>2026-08-30T09:20:17Z</time>
      </trkpt>
      <trkpt lat="43.06721" lon="0.28472">
        <ele>472.4</ele>
        <time>2026-08-30T09:20:23Z</time>
      </trkpt>
      <trkpt lat="43.06708" lon="0.28491">
        <ele>472.39</ele>
        <time>2026-08-30T09:20:26Z</time>
      </trkpt>
      <trkpt lat="43.06704" lon="0.28496">
        <ele>472.4</ele>
        <time>2026-08-30T09:20:27Z</time>
      </trkpt>
      <trkpt lat="43.0669" lon="0.28507">
        <ele>472.41</ele>
        <time>2026-08-30T09:20:30Z</time>
      </trkpt>
      <trkpt lat="43.06673" lon="0.28515">
        <ele>472.43</ele>
        <time>2026-08-30T09:20:33Z</time>
      </trkpt>
      <trkpt lat="43.06637" lon="0.28525">
        <ele>472.39</ele>
        <time>2026-08-30T09:20:39Z</time>
      </trkpt>
      <trkpt lat="43.06632" lon="0.28527">
        <ele>472.44</ele>
        <time>2026-08-30T09:20:40Z</time>
      </trkpt>
      <trkpt lat="43.06622" lon="0.28531">
        <ele>472.48</ele>
        <time>2026-08-30T09:20:42Z</time>
      </trkpt>
      <trkpt lat="43.066" lon="0.28537">
        <ele>472.49</ele>
        <time>2026-08-30T09:20:47Z</time>
      </trkpt>
      <trkpt lat="43.06596" lon="0.28537">
        <ele>472.49</ele>
        <time>2026-08-30T09:20:48Z</time>
      </trkpt>
      <trkpt lat="43.06591" lon="0.28536">
        <ele>472.49</ele>
        <time>2026-08-30T09:20:49Z</time>
      </trkpt>
      <trkpt lat="43.06586" lon="0.28534">
        <ele>472.51</ele>
        <time>2026-08-30T09:20:50Z</time>
      </trkpt>
      <trkpt lat="43.06582" lon="0.28532">
        <ele>472.51</ele>
        <time>2026-08-30T09:20:51Z</time>
      </trkpt>
      <trkpt lat="43.06578" lon="0.28529">
        <ele>472.51</ele>
        <time>2026-08-30T09:20:52Z</time>
      </trkpt>
      <trkpt lat="43.06576" lon="0.28525">
        <ele>474.83</ele>
        <time>2026-08-30T09:20:53Z</time>
      </trkpt>
      <trkpt lat="43.06574" lon="0.28521">
        <ele>474.83</ele>
        <time>2026-08-30T09:20:54Z</time>
      </trkpt>
      <trkpt lat="43.06573" lon="0.28517">
        <ele>474.84</ele>
        <time>2026-08-30T09:20:55Z</time>
      </trkpt>
      <trkpt lat="43.06573" lon="0.28512">
        <ele>474.83</ele>
        <time>2026-08-30T09:20:56Z</time>
      </trkpt>
      <trkpt lat="43.06572" lon="0.28507">
        <ele>474.84</ele>
        <time>2026-08-30T09:20:57Z</time>
      </trkpt>
      <trkpt lat="43.06571" lon="0.28501">
        <ele>474.83</ele>
        <time>2026-08-30T09:20:58Z</time>
      </trkpt>
      <trkpt lat="43.0657" lon="0.28496">
        <ele>474.83</ele>
        <time>2026-08-30T09:20:59Z</time>
      </trkpt>
      <trkpt lat="43.0657" lon="0.28491">
        <ele>474.83</ele>
        <time>2026-08-30T09:21:00Z</time>
      </trkpt>
      <trkpt lat="43.06568" lon="0.28486">
        <ele>474.83</ele>
        <time>2026-08-30T09:21:01Z</time>
      </trkpt>
      <trkpt lat="43.06564" lon="0.2848">
        <ele>474.83</ele>
        <time>2026-08-30T09:21:02Z</time>
      </trkpt>
      <trkpt lat="43.0656" lon="0.28475">
        <ele>474.82</ele>
        <time>2026-08-30T09:21:03Z</time>
      </trkpt>
      <trkpt lat="43.06555" lon="0.28472">
        <ele>474.82</ele>
        <time>2026-08-30T09:21:04Z</time>
      </trkpt>
      <trkpt lat="43.06549" lon="0.2847">
        <ele>474.82</ele>
        <time>2026-08-30T09:21:05Z</time>
      </trkpt>
      <trkpt lat="43.06544" lon="0.28469">
        <ele>474.81</ele>
        <time>2026-08-30T09:21:06Z</time>
      </trkpt>
      <trkpt lat="43.06539" lon="0.28469">
        <ele>474.81</ele>
        <time>2026-08-30T09:21:07Z</time>
      </trkpt>
      <trkpt lat="43.06533" lon="0.2847">
        <ele>474.8</ele>
        <time>2026-08-30T09:21:08Z</time>
      </trkpt>
      <trkpt lat="43.06529" lon="0.28471">
        <ele>472.14</ele>
        <time>2026-08-30T09:21:09Z</time>
      </trkpt>
      <trkpt lat="43.06524" lon="0.28473">
        <ele>472.13</ele>
        <time>2026-08-30T09:21:10Z</time>
      </trkpt>
      <trkpt lat="43.06489" lon="0.28487">
        <ele>472.1</ele>
        <time>2026-08-30T09:21:20Z</time>
      </trkpt>
      <trkpt lat="43.06451" lon="0.28503">
        <ele>472.08</ele>
        <time>2026-08-30T09:21:31Z</time>
      </trkpt>
      <trkpt lat="43.06433" lon="0.2852">
        <ele>472.06</ele>
        <time>2026-08-30T09:21:37Z</time>
      </trkpt>
      <trkpt lat="43.06431" lon="0.28526">
        <ele>472.05</ele>
        <time>2026-08-30T09:21:38Z</time>
      </trkpt>
      <trkpt lat="43.06429" lon="0.28533">
        <ele>470.84</ele>
        <time>2026-08-30T09:21:39Z</time>
      </trkpt>
      <trkpt lat="43.06403" lon="0.28612">
        <ele>467.68</ele>
        <time>2026-08-30T09:21:48Z</time>
      </trkpt>
      <trkpt lat="43.06392" lon="0.28641">
        <ele>466.24</ele>
        <time>2026-08-30T09:21:51Z</time>
      </trkpt>
      <trkpt lat="43.06376" lon="0.28685">
        <ele>465.03</ele>
        <time>2026-08-30T09:21:55Z</time>
      </trkpt>
      <trkpt lat="43.06366" lon="0.28718">
        <ele>463.68</ele>
        <time>2026-08-30T09:21:58Z</time>
      </trkpt>
      <trkpt lat="43.06357" lon="0.28751">
        <ele>461.57</ele>
        <time>2026-08-30T09:22:01Z</time>
      </trkpt>
      <trkpt lat="43.06344" lon="0.2879">
        <ele>458.6</ele>
        <time>2026-08-30T09:22:05Z</time>
      </trkpt>
      <trkpt lat="43.06336" lon="0.28809">
        <ele>457.79</ele>
        <time>2026-08-30T09:22:07Z</time>
      </trkpt>
      <trkpt lat="43.06315" lon="0.28844">
        <ele>454.72</ele>
        <time>2026-08-30T09:22:11Z</time>
      </trkpt>
      <trkpt lat="43.06309" lon="0.28854">
        <ele>454.72</ele>
        <time>2026-08-30T09:22:12Z</time>
      </trkpt>
      <trkpt lat="43.06304" lon="0.28865">
        <ele>453.41</ele>
        <time>2026-08-30T09:22:13Z</time>
      </trkpt>
      <trkpt lat="43.06301" lon="0.28876">
        <ele>452.58</ele>
        <time>2026-08-30T09:22:14Z</time>
      </trkpt>
      <trkpt lat="43.06299" lon="0.28887">
        <ele>450.93</ele>
        <time>2026-08-30T09:22:15Z</time>
      </trkpt>
      <trkpt lat="43.06297" lon="0.28897">
        <ele>449.9</ele>
        <time>2026-08-30T09:22:16Z</time>
      </trkpt>
      <trkpt lat="43.06296" lon="0.28905">
        <ele>448.66</ele>
        <time>2026-08-30T09:22:17Z</time>
      </trkpt>
      <trkpt lat="43.06295" lon="0.28913">
        <ele>448.74</ele>
        <time>2026-08-30T09:22:18Z</time>
      </trkpt>
      <trkpt lat="43.06293" lon="0.28928">
        <ele>446.14</ele>
        <time>2026-08-30T09:22:20Z</time>
      </trkpt>
      <trkpt lat="43.06293" lon="0.28935">
        <ele>446.06</ele>
        <time>2026-08-30T09:22:21Z</time>
      </trkpt>
      <trkpt lat="43.06292" lon="0.28942">
        <ele>446.14</ele>
        <time>2026-08-30T09:22:22Z</time>
      </trkpt>
      <trkpt lat="43.0629" lon="0.2895">
        <ele>444.46</ele>
        <time>2026-08-30T09:22:23Z</time>
      </trkpt>
      <trkpt lat="43.06287" lon="0.28958">
        <ele>444.53</ele>
        <time>2026-08-30T09:22:24Z</time>
      </trkpt>
      <trkpt lat="43.06284" lon="0.28965">
        <ele>442.83</ele>
        <time>2026-08-30T09:22:25Z</time>
      </trkpt>
      <trkpt lat="43.0628" lon="0.28972">
        <ele>442.91</ele>
        <time>2026-08-30T09:22:26Z</time>
      </trkpt>
      <trkpt lat="43.06275" lon="0.28979">
        <ele>441.64</ele>
        <time>2026-08-30T09:22:27Z</time>
      </trkpt>
      <trkpt lat="43.0627" lon="0.28985">
        <ele>441.72</ele>
        <time>2026-08-30T09:22:28Z</time>
      </trkpt>
      <trkpt lat="43.06265" lon="0.2899">
        <ele>439.98</ele>
        <time>2026-08-30T09:22:29Z</time>
      </trkpt>
      <trkpt lat="43.06254" lon="0.28999">
        <ele>437.84</ele>
        <time>2026-08-30T09:22:31Z</time>
      </trkpt>
      <trkpt lat="43.06249" lon="0.29001">
        <ele>437.94</ele>
        <time>2026-08-30T09:22:32Z</time>
      </trkpt>
      <trkpt lat="43.06243" lon="0.29">
        <ele>436.76</ele>
        <time>2026-08-30T09:22:33Z</time>
      </trkpt>
      <trkpt lat="43.06238" lon="0.28997">
        <ele>436.76</ele>
        <time>2026-08-30T09:22:34Z</time>
      </trkpt>
      <trkpt lat="43.06234" lon="0.28992">
        <ele>435.3</ele>
        <time>2026-08-30T09:22:35Z</time>
      </trkpt>
      <trkpt lat="43.0623" lon="0.28986">
        <ele>435.3</ele>
        <time>2026-08-30T09:22:36Z</time>
      </trkpt>
      <trkpt lat="43.06227" lon="0.28979">
        <ele>434.11</ele>
        <time>2026-08-30T09:22:37Z</time>
      </trkpt>
      <trkpt lat="43.06224" lon="0.28972">
        <ele>433.04</ele>
        <time>2026-08-30T09:22:38Z</time>
      </trkpt>
      <trkpt lat="43.06222" lon="0.28966">
        <ele>433.12</ele>
        <time>2026-08-30T09:22:39Z</time>
      </trkpt>
      <trkpt lat="43.06219" lon="0.2896">
        <ele>433.05</ele>
        <time>2026-08-30T09:22:40Z</time>
      </trkpt>
      <trkpt lat="43.06217" lon="0.28953">
        <ele>431.93</ele>
        <time>2026-08-30T09:22:41Z</time>
      </trkpt>
      <trkpt lat="43.06215" lon="0.28947">
        <ele>431.87</ele>
        <time>2026-08-30T09:22:42Z</time>
      </trkpt>
      <trkpt lat="43.06214" lon="0.2894">
        <ele>431.93</ele>
        <time>2026-08-30T09:22:43Z</time>
      </trkpt>
      <trkpt lat="43.06213" lon="0.28933">
        <ele>430.83</ele>
        <time>2026-08-30T09:22:44Z</time>
      </trkpt>
      <trkpt lat="43.06212" lon="0.28926">
        <ele>430.9</ele>
        <time>2026-08-30T09:22:45Z</time>
      </trkpt>
      <trkpt lat="43.06209" lon="0.28921">
        <ele>430.9</ele>
        <time>2026-08-30T09:22:46Z</time>
      </trkpt>
      <trkpt lat="43.06204" lon="0.28917">
        <ele>430.9</ele>
        <time>2026-08-30T09:22:47Z</time>
      </trkpt>
      <trkpt lat="43.06199" lon="0.28915">
        <ele>430.9</ele>
        <time>2026-08-30T09:22:48Z</time>
      </trkpt>
      <trkpt lat="43.06193" lon="0.28913">
        <ele>429.82</ele>
        <time>2026-08-30T09:22:49Z</time>
      </trkpt>
      <trkpt lat="43.06182" lon="0.28909">
        <ele>426.12</ele>
        <time>2026-08-30T09:22:51Z</time>
      </trkpt>
      <trkpt lat="43.06176" lon="0.28906">
        <ele>428.46</ele>
        <time>2026-08-30T09:22:52Z</time>
      </trkpt>
      <trkpt lat="43.06145" lon="0.28889">
        <ele>425.1</ele>
        <time>2026-08-30T09:22:58Z</time>
      </trkpt>
      <trkpt lat="43.06141" lon="0.28885">
        <ele>425.04</ele>
        <time>2026-08-30T09:22:59Z</time>
      </trkpt>
      <trkpt lat="43.06139" lon="0.28882">
        <ele>423.59</ele>
        <time>2026-08-30T09:23:00Z</time>
      </trkpt>
      <trkpt lat="43.06137" lon="0.28878">
        <ele>422.7</ele>
        <time>2026-08-30T09:23:01Z</time>
      </trkpt>
      <trkpt lat="43.06135" lon="0.28871">
        <ele>421.99</ele>
        <time>2026-08-30T09:23:03Z</time>
      </trkpt>
      <trkpt lat="43.06133" lon="0.2887">
        <ele>421.99</ele>
        <time>2026-08-30T09:23:04Z</time>
      </trkpt>
      <trkpt lat="43.06131" lon="0.28868">
        <ele>421.99</ele>
        <time>2026-08-30T09:23:05Z</time>
      </trkpt>
      <trkpt lat="43.0613" lon="0.28866">
        <ele>422</ele>
        <time>2026-08-30T09:23:06Z</time>
      </trkpt>
      <trkpt lat="43.06129" lon="0.28864">
        <ele>422</ele>
        <time>2026-08-30T09:23:07Z</time>
      </trkpt>
      <trkpt lat="43.06129" lon="0.28861">
        <ele>420.22</ele>
        <time>2026-08-30T09:23:20Z</time>
      </trkpt>
      <trkpt lat="43.06129" lon="0.28856">
        <ele>420.29</ele>
        <time>2026-08-30T09:23:43Z</time>
      </trkpt>
      <trkpt lat="43.0613" lon="0.28854">
        <ele>420.32</ele>
        <time>2026-08-30T09:23:49Z</time>
      </trkpt>
      <trkpt lat="43.06131" lon="0.28852">
        <ele>420.32</ele>
        <time>2026-08-30T09:23:50Z</time>
      </trkpt>
      <trkpt lat="43.06152" lon="0.288">
        <ele>420.35</ele>
        <time>2026-08-30T09:24:02Z</time>
      </trkpt>
      <trkpt lat="43.06179" lon="0.28753">
        <ele>422.81</ele>
        <time>2026-08-30T09:24:13Z</time>
      </trkpt>
      <trkpt lat="43.0618" lon="0.28749">
        <ele>422.81</ele>
        <time>2026-08-30T09:24:14Z</time>
      </trkpt>
      <trkpt lat="43.06184" lon="0.2873">
        <ele>424.34</ele>
        <time>2026-08-30T09:24:18Z</time>
      </trkpt>
      <trkpt lat="43.06188" lon="0.28704">
        <ele>425.58</ele>
        <time>2026-08-30T09:24:24Z</time>
      </trkpt>
      <trkpt lat="43.062" lon="0.28646">
        <ele>428.61</ele>
        <time>2026-08-30T09:24:38Z</time>
      </trkpt>
      <trkpt lat="43.06207" lon="0.2863">
        <ele>429.9</ele>
        <time>2026-08-30T09:24:42Z</time>
      </trkpt>
      <trkpt lat="43.06222" lon="0.28587">
        <ele>431.92</ele>
        <time>2026-08-30T09:24:52Z</time>
      </trkpt>
      <trkpt lat="43.06233" lon="0.2854">
        <ele>433.66</ele>
        <time>2026-08-30T09:25:04Z</time>
      </trkpt>
      <trkpt lat="43.06231" lon="0.28486">
        <ele>436.55</ele>
        <time>2026-08-30T09:25:18Z</time>
      </trkpt>
      <trkpt lat="43.06232" lon="0.28433">
        <ele>438.14</ele>
        <time>2026-08-30T09:25:31Z</time>
      </trkpt>
      <trkpt lat="43.06236" lon="0.28376">
        <ele>439.13</ele>
        <time>2026-08-30T09:25:44Z</time>
      </trkpt>
      <trkpt lat="43.0624" lon="0.28309">
        <ele>441.11</ele>
        <time>2026-08-30T09:25:59Z</time>
      </trkpt>
      <trkpt lat="43.06237" lon="0.28264">
        <ele>443.73</ele>
        <time>2026-08-30T09:26:11Z</time>
      </trkpt>
      <trkpt lat="43.06233" lon="0.28249">
        <ele>443.66</ele>
        <time>2026-08-30T09:26:15Z</time>
      </trkpt>
      <trkpt lat="43.06232" lon="0.28246">
        <ele>443.66</ele>
        <time>2026-08-30T09:26:16Z</time>
      </trkpt>
      <trkpt lat="43.06232" lon="0.28243">
        <ele>444.46</ele>
        <time>2026-08-30T09:26:17Z</time>
      </trkpt>
      <trkpt lat="43.06231" lon="0.2824">
        <ele>444.46</ele>
        <time>2026-08-30T09:26:18Z</time>
      </trkpt>
      <trkpt lat="43.0623" lon="0.28237">
        <ele>444.51</ele>
        <time>2026-08-30T09:26:19Z</time>
      </trkpt>
      <trkpt lat="43.06229" lon="0.28235">
        <ele>444.62</ele>
        <time>2026-08-30T09:26:20Z</time>
      </trkpt>
      <trkpt lat="43.06229" lon="0.28232">
        <ele>446.09</ele>
        <time>2026-08-30T09:26:21Z</time>
      </trkpt>
      <trkpt lat="43.06228" lon="0.28228">
        <ele>445.98</ele>
        <time>2026-08-30T09:26:22Z</time>
      </trkpt>
      <trkpt lat="43.06224" lon="0.28205">
        <ele>448.24</ele>
        <time>2026-08-30T09:26:29Z</time>
      </trkpt>
      <trkpt lat="43.06219" lon="0.28165">
        <ele>451.4</ele>
        <time>2026-08-30T09:26:41Z</time>
      </trkpt>
      <trkpt lat="43.06215" lon="0.28128">
        <ele>453.95</ele>
        <time>2026-08-30T09:26:53Z</time>
      </trkpt>
      <trkpt lat="43.0621" lon="0.28119">
        <ele>453.95</ele>
        <time>2026-08-30T09:26:57Z</time>
      </trkpt>
      <trkpt lat="43.06208" lon="0.28118">
        <ele>454.09</ele>
        <time>2026-08-30T09:26:58Z</time>
      </trkpt>
      <trkpt lat="43.062" lon="0.28115">
        <ele>454.93</ele>
        <time>2026-08-30T09:27:02Z</time>
      </trkpt>
      <trkpt lat="43.06198" lon="0.28116">
        <ele>455.04</ele>
        <time>2026-08-30T09:27:03Z</time>
      </trkpt>
      <trkpt lat="43.06195" lon="0.2812">
        <ele>455.89</ele>
        <time>2026-08-30T09:27:05Z</time>
      </trkpt>
      <trkpt lat="43.06192" lon="0.28126">
        <ele>455.97</ele>
        <time>2026-08-30T09:27:07Z</time>
      </trkpt>
      <trkpt lat="43.0619" lon="0.2813">
        <ele>456.57</ele>
        <time>2026-08-30T09:27:08Z</time>
      </trkpt>
      <trkpt lat="43.0619" lon="0.28134">
        <ele>456.76</ele>
        <time>2026-08-30T09:27:09Z</time>
      </trkpt>
      <trkpt lat="43.06188" lon="0.28139">
        <ele>456.57</ele>
        <time>2026-08-30T09:27:10Z</time>
      </trkpt>
      <trkpt lat="43.06187" lon="0.28144">
        <ele>456.79</ele>
        <time>2026-08-30T09:27:11Z</time>
      </trkpt>
      <trkpt lat="43.06185" lon="0.28149">
        <ele>457.66</ele>
        <time>2026-08-30T09:27:12Z</time>
      </trkpt>
      <trkpt lat="43.06184" lon="0.28154">
        <ele>457.89</ele>
        <time>2026-08-30T09:27:13Z</time>
      </trkpt>
      <trkpt lat="43.06176" lon="0.28188">
        <ele>458.77</ele>
        <time>2026-08-30T09:27:22Z</time>
      </trkpt>
      <trkpt lat="43.06172" lon="0.28191">
        <ele>459.58</ele>
        <time>2026-08-30T09:27:25Z</time>
      </trkpt>
      <trkpt lat="43.0617" lon="0.28192">
        <ele>459.41</ele>
        <time>2026-08-30T09:27:26Z</time>
      </trkpt>
      <trkpt lat="43.06167" lon="0.28191">
        <ele>459.6</ele>
        <time>2026-08-30T09:27:27Z</time>
      </trkpt>
      <trkpt lat="43.06165" lon="0.28189">
        <ele>460.62</ele>
        <time>2026-08-30T09:27:28Z</time>
      </trkpt>
      <trkpt lat="43.06164" lon="0.28188">
        <ele>460.57</ele>
        <time>2026-08-30T09:27:29Z</time>
      </trkpt>
      <trkpt lat="43.06162" lon="0.28186">
        <ele>460.61</ele>
        <time>2026-08-30T09:27:30Z</time>
      </trkpt>
      <trkpt lat="43.06161" lon="0.28183">
        <ele>460.56</ele>
        <time>2026-08-30T09:27:31Z</time>
      </trkpt>
      <trkpt lat="43.06149" lon="0.28164">
        <ele>463.18</ele>
        <time>2026-08-30T09:27:41Z</time>
      </trkpt>
      <trkpt lat="43.06147" lon="0.28161">
        <ele>463.19</ele>
        <time>2026-08-30T09:27:42Z</time>
      </trkpt>
      <trkpt lat="43.06145" lon="0.28159">
        <ele>463.17</ele>
        <time>2026-08-30T09:27:43Z</time>
      </trkpt>
      <trkpt lat="43.06144" lon="0.28156">
        <ele>463.14</ele>
        <time>2026-08-30T09:27:44Z</time>
      </trkpt>
      <trkpt lat="43.06142" lon="0.28153">
        <ele>463.18</ele>
        <time>2026-08-30T09:27:45Z</time>
      </trkpt>
      <trkpt lat="43.06141" lon="0.28151">
        <ele>463.99</ele>
        <time>2026-08-30T09:27:46Z</time>
      </trkpt>
      <trkpt lat="43.0614" lon="0.28149">
        <ele>463.99</ele>
        <time>2026-08-30T09:27:47Z</time>
      </trkpt>
      <trkpt lat="43.06139" lon="0.28146">
        <ele>463.99</ele>
        <time>2026-08-30T09:27:48Z</time>
      </trkpt>
      <trkpt lat="43.06137" lon="0.28145">
        <ele>463.92</ele>
        <time>2026-08-30T09:27:49Z</time>
      </trkpt>
      <trkpt lat="43.06136" lon="0.28143">
        <ele>464.78</ele>
        <time>2026-08-30T09:27:50Z</time>
      </trkpt>
      <trkpt lat="43.06134" lon="0.2814">
        <ele>464.78</ele>
        <time>2026-08-30T09:27:51Z</time>
      </trkpt>
      <trkpt lat="43.06133" lon="0.28138">
        <ele>464.75</ele>
        <time>2026-08-30T09:27:52Z</time>
      </trkpt>
      <trkpt lat="43.06131" lon="0.28134">
        <ele>464.74</ele>
        <time>2026-08-30T09:27:53Z</time>
      </trkpt>
      <trkpt lat="43.0613" lon="0.28129">
        <ele>464.73</ele>
        <time>2026-08-30T09:27:54Z</time>
      </trkpt>
      <trkpt lat="43.06128" lon="0.28119">
        <ele>466.36</ele>
        <time>2026-08-30T09:27:56Z</time>
      </trkpt>
      <trkpt lat="43.06133" lon="0.28108">
        <ele>467.1</ele>
        <time>2026-08-30T09:28:00Z</time>
      </trkpt>
      <trkpt lat="43.06135" lon="0.28105">
        <ele>467.72</ele>
        <time>2026-08-30T09:28:01Z</time>
      </trkpt>
      <trkpt lat="43.06136" lon="0.28101">
        <ele>467.9</ele>
        <time>2026-08-30T09:28:02Z</time>
      </trkpt>
      <trkpt lat="43.06137" lon="0.28098">
        <ele>467.92</ele>
        <time>2026-08-30T09:28:03Z</time>
      </trkpt>
      <trkpt lat="43.06139" lon="0.28094">
        <ele>467.89</ele>
        <time>2026-08-30T09:28:04Z</time>
      </trkpt>
      <trkpt lat="43.06169" lon="0.28073">
        <ele>471.15</ele>
        <time>2026-08-30T09:28:16Z</time>
      </trkpt>
      <trkpt lat="43.06191" lon="0.28041">
        <ele>473.72</ele>
        <time>2026-08-30T09:28:28Z</time>
      </trkpt>
      <trkpt lat="43.06205" lon="0.28007">
        <ele>475.5</ele>
        <time>2026-08-30T09:28:39Z</time>
      </trkpt>
      <trkpt lat="43.06217" lon="0.27974">
        <ele>478.95</ele>
        <time>2026-08-30T09:28:50Z</time>
      </trkpt>
      <trkpt lat="43.06224" lon="0.27955">
        <ele>480.39</ele>
        <time>2026-08-30T09:28:56Z</time>
      </trkpt>
      <trkpt lat="43.06226" lon="0.27952">
        <ele>480.41</ele>
        <time>2026-08-30T09:28:57Z</time>
      </trkpt>
      <trkpt lat="43.06227" lon="0.27949">
        <ele>480.43</ele>
        <time>2026-08-30T09:28:58Z</time>
      </trkpt>
      <trkpt lat="43.06228" lon="0.27946">
        <ele>480.4</ele>
        <time>2026-08-30T09:28:59Z</time>
      </trkpt>
      <trkpt lat="43.06229" lon="0.27943">
        <ele>480.41</ele>
        <time>2026-08-30T09:29:00Z</time>
      </trkpt>
      <trkpt lat="43.06231" lon="0.27939">
        <ele>481.21</ele>
        <time>2026-08-30T09:29:01Z</time>
      </trkpt>
      <trkpt lat="43.06232" lon="0.27935">
        <ele>481.25</ele>
        <time>2026-08-30T09:29:02Z</time>
      </trkpt>
      <trkpt lat="43.06232" lon="0.27931">
        <ele>481.19</ele>
        <time>2026-08-30T09:29:03Z</time>
      </trkpt>
      <trkpt lat="43.06233" lon="0.27927">
        <ele>481.22</ele>
        <time>2026-08-30T09:29:04Z</time>
      </trkpt>
      <trkpt lat="43.06234" lon="0.27923">
        <ele>482.6</ele>
        <time>2026-08-30T09:29:05Z</time>
      </trkpt>
      <trkpt lat="43.06235" lon="0.2792">
        <ele>482.57</ele>
        <time>2026-08-30T09:29:06Z</time>
      </trkpt>
      <trkpt lat="43.06236" lon="0.27917">
        <ele>482.62</ele>
        <time>2026-08-30T09:29:07Z</time>
      </trkpt>
      <trkpt lat="43.06236" lon="0.27913">
        <ele>482.62</ele>
        <time>2026-08-30T09:29:08Z</time>
      </trkpt>
      <trkpt lat="43.06238" lon="0.27873">
        <ele>485.27</ele>
        <time>2026-08-30T09:29:20Z</time>
      </trkpt>
      <trkpt lat="43.06234" lon="0.27839">
        <ele>487.13</ele>
        <time>2026-08-30T09:29:31Z</time>
      </trkpt>
      <trkpt lat="43.06233" lon="0.27838">
        <ele>487.99</ele>
        <time>2026-08-30T09:29:32Z</time>
      </trkpt>
      <trkpt lat="43.06231" lon="0.27836">
        <ele>487.98</ele>
        <time>2026-08-30T09:29:33Z</time>
      </trkpt>
      <trkpt lat="43.06229" lon="0.27835">
        <ele>487.96</ele>
        <time>2026-08-30T09:29:34Z</time>
      </trkpt>
      <trkpt lat="43.06227" lon="0.27834">
        <ele>489.27</ele>
        <time>2026-08-30T09:29:35Z</time>
      </trkpt>
      <trkpt lat="43.06225" lon="0.27832">
        <ele>489.24</ele>
        <time>2026-08-30T09:29:36Z</time>
      </trkpt>
      <trkpt lat="43.06223" lon="0.27831">
        <ele>489.29</ele>
        <time>2026-08-30T09:29:37Z</time>
      </trkpt>
      <trkpt lat="43.0622" lon="0.27829">
        <ele>489.25</ele>
        <time>2026-08-30T09:29:38Z</time>
      </trkpt>
      <trkpt lat="43.06218" lon="0.27827">
        <ele>490.29</ele>
        <time>2026-08-30T09:29:39Z</time>
      </trkpt>
      <trkpt lat="43.06216" lon="0.27825">
        <ele>490.29</ele>
        <time>2026-08-30T09:29:40Z</time>
      </trkpt>
      <trkpt lat="43.06214" lon="0.27824">
        <ele>490.28</ele>
        <time>2026-08-30T09:29:41Z</time>
      </trkpt>
      <trkpt lat="43.06212" lon="0.27823">
        <ele>490.26</ele>
        <time>2026-08-30T09:29:42Z</time>
      </trkpt>
      <trkpt lat="43.0621" lon="0.27821">
        <ele>491.13</ele>
        <time>2026-08-30T09:29:43Z</time>
      </trkpt>
      <trkpt lat="43.06208" lon="0.27819">
        <ele>491.08</ele>
        <time>2026-08-30T09:29:44Z</time>
      </trkpt>
      <trkpt lat="43.06206" lon="0.27817">
        <ele>491.15</ele>
        <time>2026-08-30T09:29:45Z</time>
      </trkpt>
      <trkpt lat="43.06204" lon="0.27815">
        <ele>491.12</ele>
        <time>2026-08-30T09:29:46Z</time>
      </trkpt>
      <trkpt lat="43.06202" lon="0.27813">
        <ele>492.26</ele>
        <time>2026-08-30T09:29:47Z</time>
      </trkpt>
      <trkpt lat="43.06198" lon="0.27809">
        <ele>493.33</ele>
        <time>2026-08-30T09:29:49Z</time>
      </trkpt>
      <trkpt lat="43.0618" lon="0.27797">
        <ele>496.63</ele>
        <time>2026-08-30T09:29:58Z</time>
      </trkpt>
      <trkpt lat="43.06178" lon="0.27796">
        <ele>496.64</ele>
        <time>2026-08-30T09:29:59Z</time>
      </trkpt>
      <trkpt lat="43.06176" lon="0.27796">
        <ele>497.58</ele>
        <time>2026-08-30T09:30:00Z</time>
      </trkpt>
      <trkpt lat="43.0617" lon="0.27793">
        <ele>498.96</ele>
        <time>2026-08-30T09:30:03Z</time>
      </trkpt>
      <trkpt lat="43.06166" lon="0.27789">
        <ele>500.33</ele>
        <time>2026-08-30T09:30:06Z</time>
      </trkpt>
      <trkpt lat="43.06155" lon="0.2777">
        <ele>504.45</ele>
        <time>2026-08-30T09:30:16Z</time>
      </trkpt>
      <trkpt lat="43.06153" lon="0.27768">
        <ele>504.46</ele>
        <time>2026-08-30T09:30:17Z</time>
      </trkpt>
      <trkpt lat="43.06141" lon="0.27745">
        <ele>508.25</ele>
        <time>2026-08-30T09:30:27Z</time>
      </trkpt>
      <trkpt lat="43.06124" lon="0.27718">
        <ele>511.89</ele>
        <time>2026-08-30T09:30:39Z</time>
      </trkpt>
      <trkpt lat="43.06123" lon="0.27716">
        <ele>511.86</ele>
        <time>2026-08-30T09:30:40Z</time>
      </trkpt>
      <trkpt lat="43.06113" lon="0.27702">
        <ele>514.52</ele>
        <time>2026-08-30T09:30:47Z</time>
      </trkpt>
      <trkpt lat="43.06109" lon="0.27696">
        <ele>515.51</ele>
        <time>2026-08-30T09:30:50Z</time>
      </trkpt>
      <trkpt lat="43.06108" lon="0.27694">
        <ele>515.53</ele>
        <time>2026-08-30T09:30:51Z</time>
      </trkpt>
      <trkpt lat="43.06107" lon="0.27692">
        <ele>516.43</ele>
        <time>2026-08-30T09:30:52Z</time>
      </trkpt>
      <trkpt lat="43.06105" lon="0.27691">
        <ele>516.45</ele>
        <time>2026-08-30T09:30:53Z</time>
      </trkpt>
      <trkpt lat="43.06104" lon="0.27689">
        <ele>516.43</ele>
        <time>2026-08-30T09:30:54Z</time>
      </trkpt>
      <trkpt lat="43.06103" lon="0.27687">
        <ele>517.77</ele>
        <time>2026-08-30T09:30:55Z</time>
      </trkpt>
      <trkpt lat="43.06102" lon="0.27686">
        <ele>517.74</ele>
        <time>2026-08-30T09:30:56Z</time>
      </trkpt>
      <trkpt lat="43.06101" lon="0.27684">
        <ele>518.61</ele>
        <time>2026-08-30T09:30:57Z</time>
      </trkpt>
      <trkpt lat="43.06099" lon="0.27683">
        <ele>518.61</ele>
        <time>2026-08-30T09:30:58Z</time>
      </trkpt>
      <trkpt lat="43.06098" lon="0.27683">
        <ele>519.53</ele>
        <time>2026-08-30T09:30:59Z</time>
      </trkpt>
      <trkpt lat="43.06096" lon="0.27682">
        <ele>519.47</ele>
        <time>2026-08-30T09:31:00Z</time>
      </trkpt>
      <trkpt lat="43.06071" lon="0.27662">
        <ele>523.47</ele>
        <time>2026-08-30T09:31:13Z</time>
      </trkpt>
      <trkpt lat="43.06064" lon="0.27654">
        <ele>525.28</ele>
        <time>2026-08-30T09:31:18Z</time>
      </trkpt>
      <trkpt lat="43.06062" lon="0.27655">
        <ele>525.2</ele>
        <time>2026-08-30T09:31:19Z</time>
      </trkpt>
      <trkpt lat="43.06061" lon="0.27657">
        <ele>526.81</ele>
        <time>2026-08-30T09:31:20Z</time>
      </trkpt>
      <trkpt lat="43.0606" lon="0.27659">
        <ele>526.83</ele>
        <time>2026-08-30T09:31:21Z</time>
      </trkpt>
      <trkpt lat="43.0606" lon="0.27661">
        <ele>526.81</ele>
        <time>2026-08-30T09:31:22Z</time>
      </trkpt>
      <trkpt lat="43.06059" lon="0.27664">
        <ele>528.19</ele>
        <time>2026-08-30T09:31:23Z</time>
      </trkpt>
      <trkpt lat="43.0606" lon="0.27667">
        <ele>528.12</ele>
        <time>2026-08-30T09:31:24Z</time>
      </trkpt>
      <trkpt lat="43.0606" lon="0.2767">
        <ele>528.16</ele>
        <time>2026-08-30T09:31:25Z</time>
      </trkpt>
      <trkpt lat="43.0606" lon="0.27672">
        <ele>528.18</ele>
        <time>2026-08-30T09:31:26Z</time>
      </trkpt>
      <trkpt lat="43.0606" lon="0.27675">
        <ele>529.56</ele>
        <time>2026-08-30T09:31:27Z</time>
      </trkpt>
      <trkpt lat="43.0606" lon="0.27678">
        <ele>529.46</ele>
        <time>2026-08-30T09:31:28Z</time>
      </trkpt>
      <trkpt lat="43.06057" lon="0.27709">
        <ele>532.99</ele>
        <time>2026-08-30T09:31:39Z</time>
      </trkpt>
      <trkpt lat="43.06058" lon="0.27728">
        <ele>535.25</ele>
        <time>2026-08-30T09:31:46Z</time>
      </trkpt>
      <trkpt lat="43.06057" lon="0.27728">
        <ele>535.26</ele>
        <time>2026-08-30T09:31:47Z</time>
      </trkpt>
      <trkpt lat="43.06056" lon="0.27728">
        <ele>535.21</ele>
        <time>2026-08-30T09:31:48Z</time>
      </trkpt>
      <trkpt lat="43.06054" lon="0.27727">
        <ele>536.53</ele>
        <time>2026-08-30T09:31:49Z</time>
      </trkpt>
      <trkpt lat="43.06053" lon="0.27725">
        <ele>536.5</ele>
        <time>2026-08-30T09:31:50Z</time>
      </trkpt>
      <trkpt lat="43.06052" lon="0.27723">
        <ele>536.55</ele>
        <time>2026-08-30T09:31:51Z</time>
      </trkpt>
      <trkpt lat="43.0605" lon="0.27721">
        <ele>536.55</ele>
        <time>2026-08-30T09:31:52Z</time>
      </trkpt>
      <trkpt lat="43.06034" lon="0.27708">
        <ele>540.29</ele>
        <time>2026-08-30T09:32:01Z</time>
      </trkpt>
      <trkpt lat="43.06032" lon="0.27708">
        <ele>540.23</ele>
        <time>2026-08-30T09:32:02Z</time>
      </trkpt>
      <trkpt lat="43.06026" lon="0.2771">
        <ele>541.45</ele>
        <time>2026-08-30T09:32:05Z</time>
      </trkpt>
      <trkpt lat="43.06021" lon="0.27714">
        <ele>542.93</ele>
        <time>2026-08-30T09:32:08Z</time>
      </trkpt>
      <trkpt lat="43.06008" lon="0.2772">
        <ele>544.92</ele>
        <time>2026-08-30T09:32:18Z</time>
      </trkpt>
      <trkpt lat="43.05989" lon="0.27734">
        <ele>547.06</ele>
        <time>2026-08-30T09:32:31Z</time>
      </trkpt>
      <trkpt lat="43.05986" lon="0.27738">
        <ele>547.17</ele>
        <time>2026-08-30T09:33:05Z</time>
      </trkpt>
      <trkpt lat="43.05951" lon="0.27767">
        <ele>548.1</ele>
        <time>2026-08-30T09:33:23Z</time>
      </trkpt>
      <trkpt lat="43.05944" lon="0.27771">
        <ele>548.11</ele>
        <time>2026-08-30T09:33:33Z</time>
      </trkpt>
      <trkpt lat="43.05945" lon="0.2777">
        <ele>548.11</ele>
        <time>2026-08-30T09:33:34Z</time>
      </trkpt>
      <trkpt lat="43.05946" lon="0.2777">
        <ele>548.08</ele>
        <time>2026-08-30T09:33:35Z</time>
      </trkpt>
      <trkpt lat="43.05947" lon="0.27768">
        <ele>548.12</ele>
        <time>2026-08-30T09:33:49Z</time>
      </trkpt>
      <trkpt lat="43.05948" lon="0.27768">
        <ele>542.36</ele>
        <time>2026-08-30T09:33:50Z</time>
      </trkpt>
      <trkpt lat="43.05948" lon="0.27768">
        <ele>548.63</ele>
        <time>2026-08-30T09:33:51Z</time>
      </trkpt>
      <trkpt lat="43.05948" lon="0.27768">
        <ele>545.94</ele>
        <time>2026-08-30T09:33:54Z</time>
      </trkpt>
      <trkpt lat="43.05948" lon="0.27768">
        <ele>549.08</ele>
        <time>2026-08-30T09:33:56Z</time>
      </trkpt>
      <trkpt lat="43.05948" lon="0.27768">
        <ele>544.15</ele>
        <time>2026-08-30T09:33:57Z</time>
      </trkpt>
      <trkpt lat="43.05948" lon="0.27768">
        <ele>547.91</ele>
        <time>2026-08-30T09:33:58Z</time>
      </trkpt>
      <trkpt lat="43.05947" lon="0.27769">
        <ele>547.95</ele>
        <time>2026-08-30T09:34:09Z</time>
      </trkpt>
      <trkpt lat="43.05946" lon="0.27769">
        <ele>548.05</ele>
        <time>2026-08-30T09:34:10Z</time>
      </trkpt>
      <trkpt lat="43.05944" lon="0.2777">
        <ele>548.04</ele>
        <time>2026-08-30T09:34:11Z</time>
      </trkpt>
      <trkpt lat="43.05943" lon="0.27771">
        <ele>548.12</ele>
        <time>2026-08-30T09:34:12Z</time>
      </trkpt>
      <trkpt lat="43.05941" lon="0.27772">
        <ele>548.06</ele>
        <time>2026-08-30T09:34:13Z</time>
      </trkpt>
      <trkpt lat="43.05939" lon="0.27773">
        <ele>548.06</ele>
        <time>2026-08-30T09:34:14Z</time>
      </trkpt>
      <trkpt lat="43.05938" lon="0.27774">
        <ele>548.06</ele>
        <time>2026-08-30T09:34:15Z</time>
      </trkpt>
      <trkpt lat="43.05936" lon="0.27776">
        <ele>548.06</ele>
        <time>2026-08-30T09:34:16Z</time>
      </trkpt>
      <trkpt lat="43.05934" lon="0.27778">
        <ele>548.07</ele>
        <time>2026-08-30T09:34:17Z</time>
      </trkpt>
      <trkpt lat="43.05933" lon="0.2778">
        <ele>548.07</ele>
        <time>2026-08-30T09:34:18Z</time>
      </trkpt>
      <trkpt lat="43.05931" lon="0.27781">
        <ele>547.99</ele>
        <time>2026-08-30T09:34:19Z</time>
      </trkpt>
      <trkpt lat="43.05926" lon="0.2779">
        <ele>548.01</ele>
        <time>2026-08-30T09:34:30Z</time>
      </trkpt>
      <trkpt lat="43.05926" lon="0.2779">
        <ele>544.68</ele>
        <time>2026-08-30T09:34:33Z</time>
      </trkpt>
      <trkpt lat="43.05926" lon="0.2779">
        <ele>547.63</ele>
        <time>2026-08-30T09:35:29Z</time>
      </trkpt>
      <trkpt lat="43.05927" lon="0.2779">
        <ele>547.83</ele>
        <time>2026-08-30T09:36:27Z</time>
      </trkpt>
      <trkpt lat="43.05929" lon="0.27786">
        <ele>547.83</ele>
        <time>2026-08-30T09:36:42Z</time>
      </trkpt>
      <trkpt lat="43.0593" lon="0.27784">
        <ele>547.92</ele>
        <time>2026-08-30T09:36:43Z</time>
      </trkpt>
      <trkpt lat="43.05942" lon="0.27772">
        <ele>549.2</ele>
        <time>2026-08-30T09:36:52Z</time>
      </trkpt>
      <trkpt lat="43.05944" lon="0.27771">
        <ele>549.16</ele>
        <time>2026-08-30T09:37:08Z</time>
      </trkpt>
      <trkpt lat="43.05955" lon="0.27761">
        <ele>549.16</ele>
        <time>2026-08-30T09:37:18Z</time>
      </trkpt>
      <trkpt lat="43.05962" lon="0.27757">
        <ele>549.23</ele>
        <time>2026-08-30T09:37:28Z</time>
      </trkpt>
      <trkpt lat="43.05993" lon="0.2773">
        <ele>549.13</ele>
        <time>2026-08-30T09:37:43Z</time>
      </trkpt>
      <trkpt lat="43.06008" lon="0.27719">
        <ele>546.66</ele>
        <time>2026-08-30T09:37:52Z</time>
      </trkpt>
      <trkpt lat="43.06008" lon="0.27717">
        <ele>545</ele>
        <time>2026-08-30T09:38:05Z</time>
      </trkpt>
      <trkpt lat="43.06007" lon="0.27716">
        <ele>544.93</ele>
        <time>2026-08-30T09:38:06Z</time>
      </trkpt>
      <trkpt lat="43.05982" lon="0.27718">
        <ele>545.01</ele>
        <time>2026-08-30T09:38:19Z</time>
      </trkpt>
      <trkpt lat="43.05933" lon="0.27719">
        <ele>545.13</ele>
        <time>2026-08-30T09:38:38Z</time>
      </trkpt>
      <trkpt lat="43.05909" lon="0.27709">
        <ele>547.57</ele>
        <time>2026-08-30T09:38:49Z</time>
      </trkpt>
      <trkpt lat="43.05882" lon="0.27682">
        <ele>551.44</ele>
        <time>2026-08-30T09:39:04Z</time>
      </trkpt>
      <trkpt lat="43.05877" lon="0.27678">
        <ele>552.68</ele>
        <time>2026-08-30T09:39:07Z</time>
      </trkpt>
      <trkpt lat="43.05865" lon="0.27664">
        <ele>556.24</ele>
        <time>2026-08-30T09:39:15Z</time>
      </trkpt>
      <trkpt lat="43.05863" lon="0.27662">
        <ele>556.21</ele>
        <time>2026-08-30T09:39:16Z</time>
      </trkpt>
      <trkpt lat="43.05859" lon="0.27656">
        <ele>557.47</ele>
        <time>2026-08-30T09:39:19Z</time>
      </trkpt>
      <trkpt lat="43.05838" lon="0.27631">
        <ele>561.41</ele>
        <time>2026-08-30T09:39:32Z</time>
      </trkpt>
      <trkpt lat="43.05821" lon="0.27608">
        <ele>564.39</ele>
        <time>2026-08-30T09:39:43Z</time>
      </trkpt>
      <trkpt lat="43.05818" lon="0.27605">
        <ele>565.22</ele>
        <time>2026-08-30T09:39:45Z</time>
      </trkpt>
      <trkpt lat="43.05816" lon="0.27605">
        <ele>565.24</ele>
        <time>2026-08-30T09:39:46Z</time>
      </trkpt>
      <trkpt lat="43.05814" lon="0.27605">
        <ele>565.23</ele>
        <time>2026-08-30T09:39:47Z</time>
      </trkpt>
      <trkpt lat="43.05798" lon="0.27597">
        <ele>568.7</ele>
        <time>2026-08-30T09:39:55Z</time>
      </trkpt>
      <trkpt lat="43.05797" lon="0.27595">
        <ele>568.65</ele>
        <time>2026-08-30T09:39:56Z</time>
      </trkpt>
      <trkpt lat="43.05782" lon="0.27577">
        <ele>572.43</ele>
        <time>2026-08-30T09:40:07Z</time>
      </trkpt>
      <trkpt lat="43.05781" lon="0.27575">
        <ele>572.45</ele>
        <time>2026-08-30T09:40:08Z</time>
      </trkpt>
      <trkpt lat="43.05779" lon="0.27571">
        <ele>573.67</ele>
        <time>2026-08-30T09:40:10Z</time>
      </trkpt>
      <trkpt lat="43.05778" lon="0.27568">
        <ele>573.66</ele>
        <time>2026-08-30T09:40:11Z</time>
      </trkpt>
      <trkpt lat="43.05778" lon="0.27566">
        <ele>573.65</ele>
        <time>2026-08-30T09:40:12Z</time>
      </trkpt>
      <trkpt lat="43.05777" lon="0.27564">
        <ele>574.62</ele>
        <time>2026-08-30T09:40:13Z</time>
      </trkpt>
      <trkpt lat="43.05776" lon="0.27562">
        <ele>574.61</ele>
        <time>2026-08-30T09:40:14Z</time>
      </trkpt>
      <trkpt lat="43.05775" lon="0.2756">
        <ele>574.6</ele>
        <time>2026-08-30T09:40:15Z</time>
      </trkpt>
      <trkpt lat="43.05775" lon="0.27558">
        <ele>574.57</ele>
        <time>2026-08-30T09:40:16Z</time>
      </trkpt>
      <trkpt lat="43.05771" lon="0.27549">
        <ele>577.34</ele>
        <time>2026-08-30T09:40:26Z</time>
      </trkpt>
      <trkpt lat="43.05763" lon="0.27528">
        <ele>581.09</ele>
        <time>2026-08-30T09:40:47Z</time>
      </trkpt>
      <trkpt lat="43.05756" lon="0.27507">
        <ele>584.75</ele>
        <time>2026-08-30T09:41:07Z</time>
      </trkpt>
      <trkpt lat="43.0575" lon="0.27489">
        <ele>587.54</ele>
        <time>2026-08-30T09:41:26Z</time>
      </trkpt>
      <trkpt lat="43.0575" lon="0.27484">
        <ele>589.75</ele>
        <time>2026-08-30T09:41:48Z</time>
      </trkpt>
      <trkpt lat="43.05748" lon="0.27483">
        <ele>589.78</ele>
        <time>2026-08-30T09:42:00Z</time>
      </trkpt>
      <trkpt lat="43.05747" lon="0.27487">
        <ele>589.94</ele>
        <time>2026-08-30T09:43:13Z</time>
      </trkpt>
      <trkpt lat="43.05746" lon="0.27488">
        <ele>590.07</ele>
        <time>2026-08-30T09:44:20Z</time>
      </trkpt>
      <trkpt lat="43.05747" lon="0.27484">
        <ele>590.93</ele>
        <time>2026-08-30T09:44:55Z</time>
      </trkpt>
      <trkpt lat="43.05746" lon="0.27481">
        <ele>590.96</ele>
        <time>2026-08-30T09:45:00Z</time>
      </trkpt>
      <trkpt lat="43.05746" lon="0.27479">
        <ele>590.96</ele>
        <time>2026-08-30T09:45:01Z</time>
      </trkpt>
      <trkpt lat="43.05745" lon="0.27477">
        <ele>590.95</ele>
        <time>2026-08-30T09:45:02Z</time>
      </trkpt>
      <trkpt lat="43.05733" lon="0.2744">
        <ele>594.77</ele>
        <time>2026-08-30T09:45:17Z</time>
      </trkpt>
      <trkpt lat="43.05726" lon="0.27419">
        <ele>599.11</ele>
        <time>2026-08-30T09:45:27Z</time>
      </trkpt>
      <trkpt lat="43.05725" lon="0.27417">
        <ele>599.09</ele>
        <time>2026-08-30T09:45:28Z</time>
      </trkpt>
      <trkpt lat="43.05723" lon="0.27406">
        <ele>600.09</ele>
        <time>2026-08-30T09:45:33Z</time>
      </trkpt>
      <trkpt lat="43.05723" lon="0.27404">
        <ele>600.08</ele>
        <time>2026-08-30T09:45:34Z</time>
      </trkpt>
      <trkpt lat="43.05723" lon="0.27402">
        <ele>600.91</ele>
        <time>2026-08-30T09:45:35Z</time>
      </trkpt>
      <trkpt lat="43.05722" lon="0.274">
        <ele>601.8</ele>
        <time>2026-08-30T09:45:36Z</time>
      </trkpt>
      <trkpt lat="43.05722" lon="0.27398">
        <ele>601.78</ele>
        <time>2026-08-30T09:45:37Z</time>
      </trkpt>
      <trkpt lat="43.05721" lon="0.27395">
        <ele>601.75</ele>
        <time>2026-08-30T09:45:38Z</time>
      </trkpt>
      <trkpt lat="43.05714" lon="0.27382">
        <ele>603.73</ele>
        <time>2026-08-30T09:45:45Z</time>
      </trkpt>
      <trkpt lat="43.05713" lon="0.27381">
        <ele>604.88</ele>
        <time>2026-08-30T09:45:46Z</time>
      </trkpt>
      <trkpt lat="43.05712" lon="0.27379">
        <ele>604.94</ele>
        <time>2026-08-30T09:45:47Z</time>
      </trkpt>
      <trkpt lat="43.05711" lon="0.27377">
        <ele>605.89</ele>
        <time>2026-08-30T09:45:48Z</time>
      </trkpt>
      <trkpt lat="43.0571" lon="0.27375">
        <ele>605.92</ele>
        <time>2026-08-30T09:45:49Z</time>
      </trkpt>
      <trkpt lat="43.05708" lon="0.27373">
        <ele>605.89</ele>
        <time>2026-08-30T09:45:50Z</time>
      </trkpt>
      <trkpt lat="43.05695" lon="0.2736">
        <ele>609.05</ele>
        <time>2026-08-30T09:45:59Z</time>
      </trkpt>
      <trkpt lat="43.05684" lon="0.2736">
        <ele>610.41</ele>
        <time>2026-08-30T09:46:04Z</time>
      </trkpt>
      <trkpt lat="43.05673" lon="0.27364">
        <ele>612.28</ele>
        <time>2026-08-30T09:46:10Z</time>
      </trkpt>
      <trkpt lat="43.0567" lon="0.27363">
        <ele>612.3</ele>
        <time>2026-08-30T09:46:11Z</time>
      </trkpt>
      <trkpt lat="43.05649" lon="0.27365">
        <ele>614.17</ele>
        <time>2026-08-30T09:46:25Z</time>
      </trkpt>
      <trkpt lat="43.05645" lon="0.27368">
        <ele>614.18</ele>
        <time>2026-08-30T09:46:45Z</time>
      </trkpt>
      <trkpt lat="43.05624" lon="0.27354">
        <ele>615.1</ele>
        <time>2026-08-30T09:46:57Z</time>
      </trkpt>
      <trkpt lat="43.05597" lon="0.27319">
        <ele>618</ele>
        <time>2026-08-30T09:47:11Z</time>
      </trkpt>
      <trkpt lat="43.05588" lon="0.27304">
        <ele>619.85</ele>
        <time>2026-08-30T09:47:15Z</time>
      </trkpt>
      <trkpt lat="43.0557" lon="0.2727">
        <ele>623.83</ele>
        <time>2026-08-30T09:47:28Z</time>
      </trkpt>
      <trkpt lat="43.05555" lon="0.27241">
        <ele>626.83</ele>
        <time>2026-08-30T09:47:37Z</time>
      </trkpt>
      <trkpt lat="43.05531" lon="0.27201">
        <ele>628.68</ele>
        <time>2026-08-30T09:47:50Z</time>
      </trkpt>
      <trkpt lat="43.05512" lon="0.27169">
        <ele>628.7</ele>
        <time>2026-08-30T09:48:03Z</time>
      </trkpt>
      <trkpt lat="43.0551" lon="0.27162">
        <ele>629.51</ele>
        <time>2026-08-30T09:48:15Z</time>
      </trkpt>
      <trkpt lat="43.05511" lon="0.27158">
        <ele>629.63</ele>
        <time>2026-08-30T09:48:59Z</time>
      </trkpt>
      <trkpt lat="43.0551" lon="0.27158">
        <ele>629.73</ele>
        <time>2026-08-30T09:49:39Z</time>
      </trkpt>
      <trkpt lat="43.05507" lon="0.27145">
        <ele>629.79</ele>
        <time>2026-08-30T09:50:20Z</time>
      </trkpt>
      <trkpt lat="43.05488" lon="0.27098">
        <ele>629.82</ele>
        <time>2026-08-30T09:50:36Z</time>
      </trkpt>
      <trkpt lat="43.05472" lon="0.2705">
        <ele>629.92</ele>
        <time>2026-08-30T09:50:52Z</time>
      </trkpt>
      <trkpt lat="43.05473" lon="0.2701">
        <ele>630.86</ele>
        <time>2026-08-30T09:51:04Z</time>
      </trkpt>
      <trkpt lat="43.05484" lon="0.26988">
        <ele>634.03</ele>
        <time>2026-08-30T09:51:13Z</time>
      </trkpt>
      <trkpt lat="43.05498" lon="0.26965">
        <ele>636</ele>
        <time>2026-08-30T09:51:24Z</time>
      </trkpt>
      <trkpt lat="43.055" lon="0.26961">
        <ele>637.24</ele>
        <time>2026-08-30T09:51:26Z</time>
      </trkpt>
      <trkpt lat="43.05519" lon="0.26939">
        <ele>641.67</ele>
        <time>2026-08-30T09:51:37Z</time>
      </trkpt>
      <trkpt lat="43.05521" lon="0.26937">
        <ele>641.61</ele>
        <time>2026-08-30T09:51:38Z</time>
      </trkpt>
      <trkpt lat="43.05522" lon="0.26934">
        <ele>642.72</ele>
        <time>2026-08-30T09:51:39Z</time>
      </trkpt>
      <trkpt lat="43.05524" lon="0.26932">
        <ele>642.66</ele>
        <time>2026-08-30T09:51:40Z</time>
      </trkpt>
      <trkpt lat="43.05537" lon="0.26915">
        <ele>645.72</ele>
        <time>2026-08-30T09:51:48Z</time>
      </trkpt>
      <trkpt lat="43.05551" lon="0.26887">
        <ele>648.38</ele>
        <time>2026-08-30T09:51:59Z</time>
      </trkpt>
      <trkpt lat="43.05567" lon="0.26856">
        <ele>651.8</ele>
        <time>2026-08-30T09:52:11Z</time>
      </trkpt>
      <trkpt lat="43.05579" lon="0.26832">
        <ele>653.62</ele>
        <time>2026-08-30T09:52:20Z</time>
      </trkpt>
      <trkpt lat="43.0558" lon="0.26829">
        <ele>653.61</ele>
        <time>2026-08-30T09:52:21Z</time>
      </trkpt>
      <trkpt lat="43.05582" lon="0.26826">
        <ele>654.66</ele>
        <time>2026-08-30T09:52:22Z</time>
      </trkpt>
      <trkpt lat="43.05583" lon="0.26823">
        <ele>654.66</ele>
        <time>2026-08-30T09:52:23Z</time>
      </trkpt>
      <trkpt lat="43.05584" lon="0.26819">
        <ele>655.58</ele>
        <time>2026-08-30T09:52:24Z</time>
      </trkpt>
      <trkpt lat="43.05586" lon="0.26816">
        <ele>655.6</ele>
        <time>2026-08-30T09:52:25Z</time>
      </trkpt>
      <trkpt lat="43.05588" lon="0.26813">
        <ele>655.57</ele>
        <time>2026-08-30T09:52:26Z</time>
      </trkpt>
      <trkpt lat="43.05589" lon="0.2681">
        <ele>655.57</ele>
        <time>2026-08-30T09:52:27Z</time>
      </trkpt>
      <trkpt lat="43.05591" lon="0.26808">
        <ele>656.33</ele>
        <time>2026-08-30T09:52:28Z</time>
      </trkpt>
      <trkpt lat="43.05593" lon="0.26805">
        <ele>656.34</ele>
        <time>2026-08-30T09:52:29Z</time>
      </trkpt>
      <trkpt lat="43.05595" lon="0.26803">
        <ele>656.33</ele>
        <time>2026-08-30T09:52:30Z</time>
      </trkpt>
      <trkpt lat="43.05595" lon="0.268">
        <ele>656.35</ele>
        <time>2026-08-30T09:52:31Z</time>
      </trkpt>
      <trkpt lat="43.05597" lon="0.26796">
        <ele>656.35</ele>
        <time>2026-08-30T09:52:32Z</time>
      </trkpt>
      <trkpt lat="43.05598" lon="0.26793">
        <ele>657.65</ele>
        <time>2026-08-30T09:52:33Z</time>
      </trkpt>
      <trkpt lat="43.05599" lon="0.2679">
        <ele>657.64</ele>
        <time>2026-08-30T09:52:34Z</time>
      </trkpt>
      <trkpt lat="43.05602" lon="0.26782">
        <ele>657.65</ele>
        <time>2026-08-30T09:52:37Z</time>
      </trkpt>
      <trkpt lat="43.05603" lon="0.26779">
        <ele>658.64</ele>
        <time>2026-08-30T09:52:38Z</time>
      </trkpt>
      <trkpt lat="43.05604" lon="0.26776">
        <ele>658.65</ele>
        <time>2026-08-30T09:52:39Z</time>
      </trkpt>
      <trkpt lat="43.05604" lon="0.26771">
        <ele>659.65</ele>
        <time>2026-08-30T09:52:50Z</time>
      </trkpt>
      <trkpt lat="43.05611" lon="0.26751">
        <ele>660.53</ele>
        <time>2026-08-30T09:53:04Z</time>
      </trkpt>
      <trkpt lat="43.05616" lon="0.26725">
        <ele>661.41</ele>
        <time>2026-08-30T09:53:24Z</time>
      </trkpt>
      <trkpt lat="43.05628" lon="0.26695">
        <ele>664.18</ele>
        <time>2026-08-30T09:53:35Z</time>
      </trkpt>
      <trkpt lat="43.05631" lon="0.2668">
        <ele>665.21</ele>
        <time>2026-08-30T09:53:39Z</time>
      </trkpt>
      <trkpt lat="43.05632" lon="0.26677">
        <ele>665.21</ele>
        <time>2026-08-30T09:53:40Z</time>
      </trkpt>
      <trkpt lat="43.05633" lon="0.26674">
        <ele>665.21</ele>
        <time>2026-08-30T09:53:41Z</time>
      </trkpt>
      <trkpt lat="43.05635" lon="0.26672">
        <ele>665.22</ele>
        <time>2026-08-30T09:53:42Z</time>
      </trkpt>
      <trkpt lat="43.05636" lon="0.26669">
        <ele>665.23</ele>
        <time>2026-08-30T09:53:43Z</time>
      </trkpt>
      <trkpt lat="43.05637" lon="0.26666">
        <ele>666.01</ele>
        <time>2026-08-30T09:53:44Z</time>
      </trkpt>
      <trkpt lat="43.05638" lon="0.26663">
        <ele>666</ele>
        <time>2026-08-30T09:53:45Z</time>
      </trkpt>
      <trkpt lat="43.05642" lon="0.26648">
        <ele>667.69</ele>
        <time>2026-08-30T09:53:56Z</time>
      </trkpt>
      <trkpt lat="43.05641" lon="0.26643">
        <ele>667.73</ele>
        <time>2026-08-30T09:54:12Z</time>
      </trkpt>
      <trkpt lat="43.05648" lon="0.26625">
        <ele>669.03</ele>
        <time>2026-08-30T09:54:19Z</time>
      </trkpt>
      <trkpt lat="43.05656" lon="0.26601">
        <ele>671.21</ele>
        <time>2026-08-30T09:54:29Z</time>
      </trkpt>
      <trkpt lat="43.05657" lon="0.26598">
        <ele>671.21</ele>
        <time>2026-08-30T09:54:30Z</time>
      </trkpt>
      <trkpt lat="43.05657" lon="0.26596">
        <ele>671.22</ele>
        <time>2026-08-30T09:54:31Z</time>
      </trkpt>
      <trkpt lat="43.05658" lon="0.26593">
        <ele>671.22</ele>
        <time>2026-08-30T09:54:32Z</time>
      </trkpt>
      <trkpt lat="43.05661" lon="0.26586">
        <ele>672.67</ele>
        <time>2026-08-30T09:54:35Z</time>
      </trkpt>
      <trkpt lat="43.05664" lon="0.26582">
        <ele>673.8</ele>
        <time>2026-08-30T09:54:37Z</time>
      </trkpt>
      <trkpt lat="43.05666" lon="0.2658">
        <ele>673.79</ele>
        <time>2026-08-30T09:54:38Z</time>
      </trkpt>
      <trkpt lat="43.05667" lon="0.26578">
        <ele>673.78</ele>
        <time>2026-08-30T09:54:39Z</time>
      </trkpt>
      <trkpt lat="43.05678" lon="0.26556">
        <ele>677.46</ele>
        <time>2026-08-30T09:54:48Z</time>
      </trkpt>
      <trkpt lat="43.05682" lon="0.26539">
        <ele>678.69</ele>
        <time>2026-08-30T09:54:54Z</time>
      </trkpt>
      <trkpt lat="43.05694" lon="0.26495">
        <ele>679.59</ele>
        <time>2026-08-30T09:55:10Z</time>
      </trkpt>
      <trkpt lat="43.0571" lon="0.26454">
        <ele>679.62</ele>
        <time>2026-08-30T09:55:23Z</time>
      </trkpt>
      <trkpt lat="43.05727" lon="0.26398">
        <ele>680.52</ele>
        <time>2026-08-30T09:55:37Z</time>
      </trkpt>
      <trkpt lat="43.05732" lon="0.26378">
        <ele>678.23</ele>
        <time>2026-08-30T09:55:43Z</time>
      </trkpt>
      <trkpt lat="43.05735" lon="0.26363">
        <ele>677.42</ele>
        <time>2026-08-30T09:55:54Z</time>
      </trkpt>
      <trkpt lat="43.05736" lon="0.26363">
        <ele>676.76</ele>
        <time>2026-08-30T09:56:19Z</time>
      </trkpt>
      <trkpt lat="43.05736" lon="0.26363">
        <ele>676.96</ele>
        <time>2026-08-30T09:57:23Z</time>
      </trkpt>
      <trkpt lat="43.05737" lon="0.26358">
        <ele>677.16</ele>
        <time>2026-08-30T09:58:29Z</time>
      </trkpt>
      <trkpt lat="43.05751" lon="0.26288">
        <ele>675.47</ele>
        <time>2026-08-30T09:58:39Z</time>
      </trkpt>
      <trkpt lat="43.05758" lon="0.26254">
        <ele>672.19</ele>
        <time>2026-08-30T09:58:43Z</time>
      </trkpt>
      <trkpt lat="43.05759" lon="0.26245">
        <ele>671.95</ele>
        <time>2026-08-30T09:58:44Z</time>
      </trkpt>
      <trkpt lat="43.05765" lon="0.26211">
        <ele>669.46</ele>
        <time>2026-08-30T09:58:48Z</time>
      </trkpt>
      <trkpt lat="43.0577" lon="0.26177">
        <ele>665.87</ele>
        <time>2026-08-30T09:58:51Z</time>
      </trkpt>
      <trkpt lat="43.05781" lon="0.26133">
        <ele>661.34</ele>
        <time>2026-08-30T09:58:54Z</time>
      </trkpt>
      <trkpt lat="43.05792" lon="0.2609">
        <ele>656.84</ele>
        <time>2026-08-30T09:58:57Z</time>
      </trkpt>
      <trkpt lat="43.058" lon="0.26052">
        <ele>652.28</ele>
        <time>2026-08-30T09:59:00Z</time>
      </trkpt>
      <trkpt lat="43.05802" lon="0.26019">
        <ele>648.28</ele>
        <time>2026-08-30T09:59:03Z</time>
      </trkpt>
      <trkpt lat="43.05803" lon="0.2599">
        <ele>644.6</ele>
        <time>2026-08-30T09:59:06Z</time>
      </trkpt>
      <trkpt lat="43.05804" lon="0.25982">
        <ele>643.58</ele>
        <time>2026-08-30T09:59:07Z</time>
      </trkpt>
      <trkpt lat="43.05806" lon="0.25975">
        <ele>642.64</ele>
        <time>2026-08-30T09:59:08Z</time>
      </trkpt>
      <trkpt lat="43.05809" lon="0.25969">
        <ele>642.64</ele>
        <time>2026-08-30T09:59:09Z</time>
      </trkpt>
      <trkpt lat="43.05823" lon="0.25947">
        <ele>640.83</ele>
        <time>2026-08-30T09:59:13Z</time>
      </trkpt>
      <trkpt lat="43.05827" lon="0.25937">
        <ele>639.47</ele>
        <time>2026-08-30T09:59:15Z</time>
      </trkpt>
      <trkpt lat="43.05832" lon="0.25927">
        <ele>639.48</ele>
        <time>2026-08-30T09:59:17Z</time>
      </trkpt>
      <trkpt lat="43.05834" lon="0.25922">
        <ele>639.49</ele>
        <time>2026-08-30T09:59:18Z</time>
      </trkpt>
      <trkpt lat="43.05864" lon="0.25878">
        <ele>639.41</ele>
        <time>2026-08-30T09:59:30Z</time>
      </trkpt>
      <trkpt lat="43.0589" lon="0.25838">
        <ele>639.59</ele>
        <time>2026-08-30T09:59:43Z</time>
      </trkpt>
      <trkpt lat="43.05888" lon="0.25834">
        <ele>639.6</ele>
        <time>2026-08-30T09:59:58Z</time>
      </trkpt>
      <trkpt lat="43.05896" lon="0.25834">
        <ele>639.63</ele>
        <time>2026-08-30T10:00:17Z</time>
      </trkpt>
      <trkpt lat="43.05903" lon="0.25824">
        <ele>639.63</ele>
        <time>2026-08-30T10:00:20Z</time>
      </trkpt>
      <trkpt lat="43.05907" lon="0.25821">
        <ele>639.62</ele>
        <time>2026-08-30T10:00:21Z</time>
      </trkpt>
      <trkpt lat="43.0592" lon="0.25803">
        <ele>639.64</ele>
        <time>2026-08-30T10:00:26Z</time>
      </trkpt>
      <trkpt lat="43.0592" lon="0.25799">
        <ele>639.63</ele>
        <time>2026-08-30T10:00:27Z</time>
      </trkpt>
      <trkpt lat="43.05924" lon="0.25752">
        <ele>637.98</ele>
        <time>2026-08-30T10:00:39Z</time>
      </trkpt>
      <trkpt lat="43.05923" lon="0.25754">
        <ele>637.25</ele>
        <time>2026-08-30T10:00:47Z</time>
      </trkpt>
      <trkpt lat="43.05924" lon="0.25754">
        <ele>637.27</ele>
        <time>2026-08-30T10:01:05Z</time>
      </trkpt>
      <trkpt lat="43.05925" lon="0.2575">
        <ele>637.3</ele>
        <time>2026-08-30T10:01:18Z</time>
      </trkpt>
      <trkpt lat="43.05926" lon="0.25749">
        <ele>637.3</ele>
        <time>2026-08-30T10:01:19Z</time>
      </trkpt>
      <trkpt lat="43.05927" lon="0.2574">
        <ele>637.32</ele>
        <time>2026-08-30T10:01:31Z</time>
      </trkpt>
      <trkpt lat="43.05928" lon="0.25739">
        <ele>637.33</ele>
        <time>2026-08-30T10:01:32Z</time>
      </trkpt>
      <trkpt lat="43.05929" lon="0.25737">
        <ele>637.33</ele>
        <time>2026-08-30T10:01:33Z</time>
      </trkpt>
      <trkpt lat="43.05929" lon="0.25734">
        <ele>636.08</ele>
        <time>2026-08-30T10:01:34Z</time>
      </trkpt>
      <trkpt lat="43.0593" lon="0.25731">
        <ele>636.08</ele>
        <time>2026-08-30T10:01:35Z</time>
      </trkpt>
      <trkpt lat="43.05931" lon="0.25727">
        <ele>635.01</ele>
        <time>2026-08-30T10:01:36Z</time>
      </trkpt>
      <trkpt lat="43.05933" lon="0.25722">
        <ele>635.01</ele>
        <time>2026-08-30T10:01:37Z</time>
      </trkpt>
      <trkpt lat="43.05942" lon="0.25702">
        <ele>633.9</ele>
        <time>2026-08-30T10:01:40Z</time>
      </trkpt>
      <trkpt lat="43.05962" lon="0.25672">
        <ele>631.44</ele>
        <time>2026-08-30T10:01:44Z</time>
      </trkpt>
      <trkpt lat="43.05979" lon="0.25648">
        <ele>629.11</ele>
        <time>2026-08-30T10:01:47Z</time>
      </trkpt>
      <trkpt lat="43.05991" lon="0.25633">
        <ele>626.88</ele>
        <time>2026-08-30T10:01:49Z</time>
      </trkpt>
      <trkpt lat="43.06004" lon="0.25621">
        <ele>625.65</ele>
        <time>2026-08-30T10:01:51Z</time>
      </trkpt>
      <trkpt lat="43.06012" lon="0.25616">
        <ele>624.07</ele>
        <time>2026-08-30T10:01:52Z</time>
      </trkpt>
      <trkpt lat="43.06021" lon="0.25612">
        <ele>622.5</ele>
        <time>2026-08-30T10:01:53Z</time>
      </trkpt>
      <trkpt lat="43.06029" lon="0.25609">
        <ele>622.5</ele>
        <time>2026-08-30T10:01:54Z</time>
      </trkpt>
      <trkpt lat="43.06038" lon="0.25606">
        <ele>620.64</ele>
        <time>2026-08-30T10:01:55Z</time>
      </trkpt>
      <trkpt lat="43.06046" lon="0.25604">
        <ele>619.19</ele>
        <time>2026-08-30T10:01:56Z</time>
      </trkpt>
      <trkpt lat="43.06055" lon="0.25603">
        <ele>618.17</ele>
        <time>2026-08-30T10:01:57Z</time>
      </trkpt>
      <trkpt lat="43.06083" lon="0.25605">
        <ele>614.55</ele>
        <time>2026-08-30T10:02:00Z</time>
      </trkpt>
      <trkpt lat="43.06092" lon="0.25607">
        <ele>614.46</ele>
        <time>2026-08-30T10:02:01Z</time>
      </trkpt>
      <trkpt lat="43.0611" lon="0.25613">
        <ele>611.43</ele>
        <time>2026-08-30T10:02:03Z</time>
      </trkpt>
      <trkpt lat="43.0613" lon="0.25621">
        <ele>607.79</ele>
        <time>2026-08-30T10:02:06Z</time>
      </trkpt>
      <trkpt lat="43.06136" lon="0.25623">
        <ele>607.69</ele>
        <time>2026-08-30T10:02:07Z</time>
      </trkpt>
      <trkpt lat="43.0614" lon="0.25624">
        <ele>606.69</ele>
        <time>2026-08-30T10:02:08Z</time>
      </trkpt>
      <trkpt lat="43.06144" lon="0.25625">
        <ele>606.6</ele>
        <time>2026-08-30T10:02:09Z</time>
      </trkpt>
      <trkpt lat="43.06147" lon="0.25622">
        <ele>605.68</ele>
        <time>2026-08-30T10:02:10Z</time>
      </trkpt>
      <trkpt lat="43.06149" lon="0.25619">
        <ele>604.61</ele>
        <time>2026-08-30T10:02:11Z</time>
      </trkpt>
      <trkpt lat="43.06147" lon="0.2561">
        <ele>603.39</ele>
        <time>2026-08-30T10:02:13Z</time>
      </trkpt>
      <trkpt lat="43.06144" lon="0.25606">
        <ele>603.76</ele>
        <time>2026-08-30T10:02:14Z</time>
      </trkpt>
      <trkpt lat="43.06141" lon="0.25603">
        <ele>602.67</ele>
        <time>2026-08-30T10:02:15Z</time>
      </trkpt>
      <trkpt lat="43.06137" lon="0.25599">
        <ele>602.67</ele>
        <time>2026-08-30T10:02:16Z</time>
      </trkpt>
      <trkpt lat="43.06132" lon="0.25595">
        <ele>601.77</ele>
        <time>2026-08-30T10:02:17Z</time>
      </trkpt>
      <trkpt lat="43.06121" lon="0.25585">
        <ele>600.37</ele>
        <time>2026-08-30T10:02:19Z</time>
      </trkpt>
      <trkpt lat="43.06116" lon="0.25578">
        <ele>599.81</ele>
        <time>2026-08-30T10:02:20Z</time>
      </trkpt>
      <trkpt lat="43.06111" lon="0.2557">
        <ele>599.51</ele>
        <time>2026-08-30T10:02:21Z</time>
      </trkpt>
      <trkpt lat="43.06101" lon="0.25553">
        <ele>598.95</ele>
        <time>2026-08-30T10:02:23Z</time>
      </trkpt>
      <trkpt lat="43.06087" lon="0.25523">
        <ele>595.06</ele>
        <time>2026-08-30T10:02:26Z</time>
      </trkpt>
      <trkpt lat="43.06084" lon="0.25513">
        <ele>595.05</ele>
        <time>2026-08-30T10:02:27Z</time>
      </trkpt>
      <trkpt lat="43.0608" lon="0.25503">
        <ele>593.56</ele>
        <time>2026-08-30T10:02:28Z</time>
      </trkpt>
      <trkpt lat="43.06075" lon="0.25493">
        <ele>593.55</ele>
        <time>2026-08-30T10:02:29Z</time>
      </trkpt>
      <trkpt lat="43.06067" lon="0.25474">
        <ele>590.38</ele>
        <time>2026-08-30T10:02:31Z</time>
      </trkpt>
      <trkpt lat="43.06063" lon="0.25465">
        <ele>589.16</ele>
        <time>2026-08-30T10:02:32Z</time>
      </trkpt>
      <trkpt lat="43.06053" lon="0.25449">
        <ele>587.05</ele>
        <time>2026-08-30T10:02:34Z</time>
      </trkpt>
      <trkpt lat="43.06047" lon="0.25443">
        <ele>586.26</ele>
        <time>2026-08-30T10:02:35Z</time>
      </trkpt>
      <trkpt lat="43.06035" lon="0.25434">
        <ele>583.93</ele>
        <time>2026-08-30T10:02:37Z</time>
      </trkpt>
      <trkpt lat="43.06028" lon="0.2543">
        <ele>584.02</ele>
        <time>2026-08-30T10:02:38Z</time>
      </trkpt>
      <trkpt lat="43.06021" lon="0.25426">
        <ele>582.91</ele>
        <time>2026-08-30T10:02:39Z</time>
      </trkpt>
      <trkpt lat="43.06013" lon="0.25424">
        <ele>581.91</ele>
        <time>2026-08-30T10:02:40Z</time>
      </trkpt>
      <trkpt lat="43.06005" lon="0.25423">
        <ele>580.92</ele>
        <time>2026-08-30T10:02:41Z</time>
      </trkpt>
      <trkpt lat="43.05997" lon="0.25423">
        <ele>579.68</ele>
        <time>2026-08-30T10:02:42Z</time>
      </trkpt>
      <trkpt lat="43.05988" lon="0.25423">
        <ele>578.81</ele>
        <time>2026-08-30T10:02:43Z</time>
      </trkpt>
      <trkpt lat="43.05955" lon="0.25422">
        <ele>575.25</ele>
        <time>2026-08-30T10:02:47Z</time>
      </trkpt>
      <trkpt lat="43.05933" lon="0.25413">
        <ele>572.23</ele>
        <time>2026-08-30T10:02:50Z</time>
      </trkpt>
      <trkpt lat="43.05919" lon="0.25405">
        <ele>570.73</ele>
        <time>2026-08-30T10:02:52Z</time>
      </trkpt>
      <trkpt lat="43.05911" lon="0.25398">
        <ele>568.66</ele>
        <time>2026-08-30T10:02:53Z</time>
      </trkpt>
      <trkpt lat="43.05896" lon="0.25383">
        <ele>567.61</ele>
        <time>2026-08-30T10:02:55Z</time>
      </trkpt>
      <trkpt lat="43.05878" lon="0.25358">
        <ele>563.31</ele>
        <time>2026-08-30T10:02:58Z</time>
      </trkpt>
      <trkpt lat="43.05872" lon="0.2535">
        <ele>563.3</ele>
        <time>2026-08-30T10:02:59Z</time>
      </trkpt>
      <trkpt lat="43.05861" lon="0.25333">
        <ele>560.02</ele>
        <time>2026-08-30T10:03:01Z</time>
      </trkpt>
      <trkpt lat="43.05854" lon="0.25325">
        <ele>559.13</ele>
        <time>2026-08-30T10:03:02Z</time>
      </trkpt>
      <trkpt lat="43.05847" lon="0.25317">
        <ele>557.98</ele>
        <time>2026-08-30T10:03:03Z</time>
      </trkpt>
      <trkpt lat="43.05839" lon="0.2531">
        <ele>556.84</ele>
        <time>2026-08-30T10:03:04Z</time>
      </trkpt>
      <trkpt lat="43.05832" lon="0.25303">
        <ele>555.81</ele>
        <time>2026-08-30T10:03:05Z</time>
      </trkpt>
      <trkpt lat="43.0581" lon="0.25284">
        <ele>552.7</ele>
        <time>2026-08-30T10:03:08Z</time>
      </trkpt>
      <trkpt lat="43.05787" lon="0.25268">
        <ele>549.38</ele>
        <time>2026-08-30T10:03:11Z</time>
      </trkpt>
      <trkpt lat="43.05762" lon="0.25255">
        <ele>545.72</ele>
        <time>2026-08-30T10:03:14Z</time>
      </trkpt>
      <trkpt lat="43.05741" lon="0.25247">
        <ele>542.51</ele>
        <time>2026-08-30T10:03:17Z</time>
      </trkpt>
      <trkpt lat="43.05734" lon="0.25245">
        <ele>541.26</ele>
        <time>2026-08-30T10:03:18Z</time>
      </trkpt>
      <trkpt lat="43.05725" lon="0.25244">
        <ele>539.99</ele>
        <time>2026-08-30T10:03:19Z</time>
      </trkpt>
      <trkpt lat="43.05717" lon="0.25244">
        <ele>538.63</ele>
        <time>2026-08-30T10:03:20Z</time>
      </trkpt>
      <trkpt lat="43.05708" lon="0.25245">
        <ele>538.63</ele>
        <time>2026-08-30T10:03:21Z</time>
      </trkpt>
      <trkpt lat="43.05679" lon="0.25243">
        <ele>534.89</ele>
        <time>2026-08-30T10:03:24Z</time>
      </trkpt>
      <trkpt lat="43.05652" lon="0.25236">
        <ele>531.48</ele>
        <time>2026-08-30T10:03:27Z</time>
      </trkpt>
      <trkpt lat="43.05644" lon="0.25234">
        <ele>530.04</ele>
        <time>2026-08-30T10:03:28Z</time>
      </trkpt>
      <trkpt lat="43.05636" lon="0.25235">
        <ele>527.64</ele>
        <time>2026-08-30T10:03:29Z</time>
      </trkpt>
      <trkpt lat="43.05629" lon="0.25237">
        <ele>527.6</ele>
        <time>2026-08-30T10:03:30Z</time>
      </trkpt>
      <trkpt lat="43.05623" lon="0.25241">
        <ele>526.25</ele>
        <time>2026-08-30T10:03:31Z</time>
      </trkpt>
      <trkpt lat="43.05618" lon="0.25245">
        <ele>525.2</ele>
        <time>2026-08-30T10:03:32Z</time>
      </trkpt>
      <trkpt lat="43.05613" lon="0.25251">
        <ele>525.58</ele>
        <time>2026-08-30T10:03:33Z</time>
      </trkpt>
      <trkpt lat="43.0561" lon="0.25256">
        <ele>524.48</ele>
        <time>2026-08-30T10:03:34Z</time>
      </trkpt>
      <trkpt lat="43.05607" lon="0.25261">
        <ele>521.84</ele>
        <time>2026-08-30T10:03:35Z</time>
      </trkpt>
      <trkpt lat="43.05606" lon="0.25265">
        <ele>520.64</ele>
        <time>2026-08-30T10:03:36Z</time>
      </trkpt>
      <trkpt lat="43.05606" lon="0.25268">
        <ele>521.69</ele>
        <time>2026-08-30T10:03:37Z</time>
      </trkpt>
      <trkpt lat="43.05605" lon="0.25273">
        <ele>519.32</ele>
        <time>2026-08-30T10:03:50Z</time>
      </trkpt>
      <trkpt lat="43.05605" lon="0.25275">
        <ele>519.46</ele>
        <time>2026-08-30T10:03:52Z</time>
      </trkpt>
      <trkpt lat="43.05606" lon="0.25278">
        <ele>519.52</ele>
        <time>2026-08-30T10:03:53Z</time>
      </trkpt>
      <trkpt lat="43.05606" lon="0.25282">
        <ele>519.59</ele>
        <time>2026-08-30T10:03:54Z</time>
      </trkpt>
      <trkpt lat="43.05604" lon="0.25293">
        <ele>519.61</ele>
        <time>2026-08-30T10:03:56Z</time>
      </trkpt>
      <trkpt lat="43.05593" lon="0.25337">
        <ele>516.23</ele>
        <time>2026-08-30T10:04:01Z</time>
      </trkpt>
      <trkpt lat="43.05591" lon="0.25349">
        <ele>516.07</ele>
        <time>2026-08-30T10:04:02Z</time>
      </trkpt>
      <trkpt lat="43.05575" lon="0.25402">
        <ele>512.23</ele>
        <time>2026-08-30T10:04:06Z</time>
      </trkpt>
      <trkpt lat="43.05563" lon="0.25444">
        <ele>508.31</ele>
        <time>2026-08-30T10:04:09Z</time>
      </trkpt>
      <trkpt lat="43.05552" lon="0.25469">
        <ele>504.98</ele>
        <time>2026-08-30T10:04:11Z</time>
      </trkpt>
      <trkpt lat="43.0554" lon="0.25491">
        <ele>502.28</ele>
        <time>2026-08-30T10:04:13Z</time>
      </trkpt>
      <trkpt lat="43.05534" lon="0.25499">
        <ele>501.3</ele>
        <time>2026-08-30T10:04:14Z</time>
      </trkpt>
      <trkpt lat="43.05515" lon="0.25521">
        <ele>496.86</ele>
        <time>2026-08-30T10:04:17Z</time>
      </trkpt>
      <trkpt lat="43.05509" lon="0.25525">
        <ele>495.47</ele>
        <time>2026-08-30T10:04:18Z</time>
      </trkpt>
      <trkpt lat="43.05504" lon="0.25526">
        <ele>494.92</ele>
        <time>2026-08-30T10:04:19Z</time>
      </trkpt>
      <trkpt lat="43.05499" lon="0.25524">
        <ele>493.85</ele>
        <time>2026-08-30T10:04:20Z</time>
      </trkpt>
      <trkpt lat="43.05495" lon="0.25519">
        <ele>492.92</ele>
        <time>2026-08-30T10:04:21Z</time>
      </trkpt>
      <trkpt lat="43.05493" lon="0.25512">
        <ele>492.18</ele>
        <time>2026-08-30T10:04:22Z</time>
      </trkpt>
      <trkpt lat="43.05493" lon="0.25504">
        <ele>492.17</ele>
        <time>2026-08-30T10:04:23Z</time>
      </trkpt>
      <trkpt lat="43.05494" lon="0.25494">
        <ele>490.33</ele>
        <time>2026-08-30T10:04:24Z</time>
      </trkpt>
      <trkpt lat="43.05495" lon="0.25484">
        <ele>490.55</ele>
        <time>2026-08-30T10:04:25Z</time>
      </trkpt>
      <trkpt lat="43.05496" lon="0.25474">
        <ele>489.51</ele>
        <time>2026-08-30T10:04:26Z</time>
      </trkpt>
      <trkpt lat="43.05497" lon="0.25464">
        <ele>488.98</ele>
        <time>2026-08-30T10:04:27Z</time>
      </trkpt>
      <trkpt lat="43.05498" lon="0.25423">
        <ele>485.86</ele>
        <time>2026-08-30T10:04:31Z</time>
      </trkpt>
      <trkpt lat="43.05496" lon="0.25412">
        <ele>485.07</ele>
        <time>2026-08-30T10:04:32Z</time>
      </trkpt>
      <trkpt lat="43.05494" lon="0.254">
        <ele>483.53</ele>
        <time>2026-08-30T10:04:33Z</time>
      </trkpt>
      <trkpt lat="43.05482" lon="0.25355">
        <ele>479.74</ele>
        <time>2026-08-30T10:04:37Z</time>
      </trkpt>
      <trkpt lat="43.05474" lon="0.25326">
        <ele>476.69</ele>
        <time>2026-08-30T10:04:40Z</time>
      </trkpt>
      <trkpt lat="43.05465" lon="0.25301">
        <ele>474.04</ele>
        <time>2026-08-30T10:04:43Z</time>
      </trkpt>
      <trkpt lat="43.05462" lon="0.25293">
        <ele>473.28</ele>
        <time>2026-08-30T10:04:44Z</time>
      </trkpt>
      <trkpt lat="43.05459" lon="0.25287">
        <ele>471.03</ele>
        <time>2026-08-30T10:04:45Z</time>
      </trkpt>
      <trkpt lat="43.05455" lon="0.25282">
        <ele>470.33</ele>
        <time>2026-08-30T10:04:46Z</time>
      </trkpt>
      <trkpt lat="43.05452" lon="0.25279">
        <ele>469.42</ele>
        <time>2026-08-30T10:04:47Z</time>
      </trkpt>
      <trkpt lat="43.05449" lon="0.25276">
        <ele>468.33</ele>
        <time>2026-08-30T10:04:48Z</time>
      </trkpt>
      <trkpt lat="43.05448" lon="0.25273">
        <ele>468.33</ele>
        <time>2026-08-30T10:04:49Z</time>
      </trkpt>
      <trkpt lat="43.05449" lon="0.2527">
        <ele>467.52</ele>
        <time>2026-08-30T10:04:50Z</time>
      </trkpt>
      <trkpt lat="43.0545" lon="0.25268">
        <ele>466.77</ele>
        <time>2026-08-30T10:04:51Z</time>
      </trkpt>
      <trkpt lat="43.0545" lon="0.25268">
        <ele>466.79</ele>
        <time>2026-08-30T10:04:52Z</time>
      </trkpt>
      <trkpt lat="43.05453" lon="0.25267">
        <ele>466.5</ele>
        <time>2026-08-30T10:04:55Z</time>
      </trkpt>
      <trkpt lat="43.05456" lon="0.25267">
        <ele>465.77</ele>
        <time>2026-08-30T10:04:56Z</time>
      </trkpt>
      <trkpt lat="43.0546" lon="0.25268">
        <ele>465.7</ele>
        <time>2026-08-30T10:04:57Z</time>
      </trkpt>
      <trkpt lat="43.05464" lon="0.25271">
        <ele>465.83</ele>
        <time>2026-08-30T10:04:58Z</time>
      </trkpt>
      <trkpt lat="43.05468" lon="0.25274">
        <ele>465.21</ele>
        <time>2026-08-30T10:04:59Z</time>
      </trkpt>
      <trkpt lat="43.05473" lon="0.25277">
        <ele>465.29</ele>
        <time>2026-08-30T10:05:00Z</time>
      </trkpt>
      <trkpt lat="43.05477" lon="0.25282">
        <ele>465.74</ele>
        <time>2026-08-30T10:05:01Z</time>
      </trkpt>
      <trkpt lat="43.05481" lon="0.25286">
        <ele>465.74</ele>
        <time>2026-08-30T10:05:02Z</time>
      </trkpt>
      <trkpt lat="43.05485" lon="0.25292">
        <ele>465.74</ele>
        <time>2026-08-30T10:05:03Z</time>
      </trkpt>
      <trkpt lat="43.05494" lon="0.25302">
        <ele>465.43</ele>
        <time>2026-08-30T10:05:05Z</time>
      </trkpt>
      <trkpt lat="43.05499" lon="0.25306">
        <ele>465.49</ele>
        <time>2026-08-30T10:05:06Z</time>
      </trkpt>
      <trkpt lat="43.05504" lon="0.25307">
        <ele>464.71</ele>
        <time>2026-08-30T10:05:07Z</time>
      </trkpt>
      <trkpt lat="43.05509" lon="0.25306">
        <ele>464.5</ele>
        <time>2026-08-30T10:05:08Z</time>
      </trkpt>
      <trkpt lat="43.05514" lon="0.25301">
        <ele>464.59</ele>
        <time>2026-08-30T10:05:09Z</time>
      </trkpt>
      <trkpt lat="43.05517" lon="0.25294">
        <ele>464.65</ele>
        <time>2026-08-30T10:05:10Z</time>
      </trkpt>
      <trkpt lat="43.05519" lon="0.25286">
        <ele>464.64</ele>
        <time>2026-08-30T10:05:11Z</time>
      </trkpt>
      <trkpt lat="43.0552" lon="0.25278">
        <ele>464.64</ele>
        <time>2026-08-30T10:05:12Z</time>
      </trkpt>
      <trkpt lat="43.05521" lon="0.2527">
        <ele>463.51</ele>
        <time>2026-08-30T10:05:13Z</time>
      </trkpt>
      <trkpt lat="43.05522" lon="0.25253">
        <ele>463.43</ele>
        <time>2026-08-30T10:05:15Z</time>
      </trkpt>
      <trkpt lat="43.05522" lon="0.25244">
        <ele>463.43</ele>
        <time>2026-08-30T10:05:16Z</time>
      </trkpt>
      <trkpt lat="43.0551" lon="0.25154">
        <ele>460.52</ele>
        <time>2026-08-30T10:05:25Z</time>
      </trkpt>
      <trkpt lat="43.05509" lon="0.25142">
        <ele>460.52</ele>
        <time>2026-08-30T10:05:26Z</time>
      </trkpt>
      <trkpt lat="43.05509" lon="0.2513">
        <ele>459.41</ele>
        <time>2026-08-30T10:05:27Z</time>
      </trkpt>
      <trkpt lat="43.05511" lon="0.25118">
        <ele>459.17</ele>
        <time>2026-08-30T10:05:28Z</time>
      </trkpt>
      <trkpt lat="43.05515" lon="0.25082">
        <ele>457.86</ele>
        <time>2026-08-30T10:05:31Z</time>
      </trkpt>
      <trkpt lat="43.0552" lon="0.2506">
        <ele>456.59</ele>
        <time>2026-08-30T10:05:33Z</time>
      </trkpt>
      <trkpt lat="43.05524" lon="0.25049">
        <ele>455.47</ele>
        <time>2026-08-30T10:05:34Z</time>
      </trkpt>
      <trkpt lat="43.0553" lon="0.25039">
        <ele>455.43</ele>
        <time>2026-08-30T10:05:35Z</time>
      </trkpt>
      <trkpt lat="43.05549" lon="0.25012">
        <ele>453.47</ele>
        <time>2026-08-30T10:05:38Z</time>
      </trkpt>
      <trkpt lat="43.05569" lon="0.24984">
        <ele>450.8</ele>
        <time>2026-08-30T10:05:41Z</time>
      </trkpt>
      <trkpt lat="43.05575" lon="0.24977">
        <ele>449.9</ele>
        <time>2026-08-30T10:05:42Z</time>
      </trkpt>
      <trkpt lat="43.05582" lon="0.24971">
        <ele>449.9</ele>
        <time>2026-08-30T10:05:43Z</time>
      </trkpt>
      <trkpt lat="43.0559" lon="0.24967">
        <ele>448.18</ele>
        <time>2026-08-30T10:05:44Z</time>
      </trkpt>
      <trkpt lat="43.05597" lon="0.24964">
        <ele>448.16</ele>
        <time>2026-08-30T10:05:45Z</time>
      </trkpt>
      <trkpt lat="43.05605" lon="0.24963">
        <ele>446.76</ele>
        <time>2026-08-30T10:05:46Z</time>
      </trkpt>
      <trkpt lat="43.05614" lon="0.24962">
        <ele>446.73</ele>
        <time>2026-08-30T10:05:47Z</time>
      </trkpt>
      <trkpt lat="43.05631" lon="0.24963">
        <ele>445.31</ele>
        <time>2026-08-30T10:05:49Z</time>
      </trkpt>
      <trkpt lat="43.05667" lon="0.24968">
        <ele>442.89</ele>
        <time>2026-08-30T10:05:53Z</time>
      </trkpt>
      <trkpt lat="43.05678" lon="0.24967">
        <ele>441.78</ele>
        <time>2026-08-30T10:05:55Z</time>
      </trkpt>
      <trkpt lat="43.0568" lon="0.24961">
        <ele>440.85</ele>
        <time>2026-08-30T10:05:56Z</time>
      </trkpt>
      <trkpt lat="43.05681" lon="0.24954">
        <ele>440.86</ele>
        <time>2026-08-30T10:05:57Z</time>
      </trkpt>
      <trkpt lat="43.0568" lon="0.24945">
        <ele>440.9</ele>
        <time>2026-08-30T10:05:58Z</time>
      </trkpt>
      <trkpt lat="43.05678" lon="0.24938">
        <ele>440.95</ele>
        <time>2026-08-30T10:05:59Z</time>
      </trkpt>
      <trkpt lat="43.05676" lon="0.24932">
        <ele>440.1</ele>
        <time>2026-08-30T10:06:00Z</time>
      </trkpt>
      <trkpt lat="43.05674" lon="0.24927">
        <ele>439.11</ele>
        <time>2026-08-30T10:06:01Z</time>
      </trkpt>
      <trkpt lat="43.05675" lon="0.24921">
        <ele>437.98</ele>
        <time>2026-08-30T10:06:09Z</time>
      </trkpt>
      <trkpt lat="43.05668" lon="0.24914">
        <ele>437.17</ele>
        <time>2026-08-30T10:06:33Z</time>
      </trkpt>
      <trkpt lat="43.05657" lon="0.24902">
        <ele>437.14</ele>
        <time>2026-08-30T10:06:36Z</time>
      </trkpt>
      <trkpt lat="43.05654" lon="0.24897">
        <ele>437.16</ele>
        <time>2026-08-30T10:06:37Z</time>
      </trkpt>
      <trkpt lat="43.05652" lon="0.2489">
        <ele>437.11</ele>
        <time>2026-08-30T10:06:38Z</time>
      </trkpt>
      <trkpt lat="43.05651" lon="0.24882">
        <ele>437.1</ele>
        <time>2026-08-30T10:06:39Z</time>
      </trkpt>
      <trkpt lat="43.05651" lon="0.24874">
        <ele>437.1</ele>
        <time>2026-08-30T10:06:40Z</time>
      </trkpt>
      <trkpt lat="43.05652" lon="0.24866">
        <ele>436.05</ele>
        <time>2026-08-30T10:06:41Z</time>
      </trkpt>
      <trkpt lat="43.05655" lon="0.24858">
        <ele>436.04</ele>
        <time>2026-08-30T10:06:42Z</time>
      </trkpt>
      <trkpt lat="43.05659" lon="0.24849">
        <ele>436.07</ele>
        <time>2026-08-30T10:06:43Z</time>
      </trkpt>
      <trkpt lat="43.05663" lon="0.24842">
        <ele>435.98</ele>
        <time>2026-08-30T10:06:44Z</time>
      </trkpt>
      <trkpt lat="43.05668" lon="0.24834">
        <ele>435.95</ele>
        <time>2026-08-30T10:06:45Z</time>
      </trkpt>
      <trkpt lat="43.05678" lon="0.24818">
        <ele>434.6</ele>
        <time>2026-08-30T10:06:47Z</time>
      </trkpt>
      <trkpt lat="43.05696" lon="0.24793">
        <ele>433.24</ele>
        <time>2026-08-30T10:06:50Z</time>
      </trkpt>
      <trkpt lat="43.05715" lon="0.24768">
        <ele>432.09</ele>
        <time>2026-08-30T10:06:53Z</time>
      </trkpt>
      <trkpt lat="43.05723" lon="0.2476">
        <ele>430.76</ele>
        <time>2026-08-30T10:06:54Z</time>
      </trkpt>
      <trkpt lat="43.0573" lon="0.24752">
        <ele>430.64</ele>
        <time>2026-08-30T10:06:55Z</time>
      </trkpt>
      <trkpt lat="43.05763" lon="0.24722">
        <ele>427.86</ele>
        <time>2026-08-30T10:06:59Z</time>
      </trkpt>
      <trkpt lat="43.05796" lon="0.24695">
        <ele>424.81</ele>
        <time>2026-08-30T10:07:03Z</time>
      </trkpt>
      <trkpt lat="43.05805" lon="0.24688">
        <ele>424.9</ele>
        <time>2026-08-30T10:07:04Z</time>
      </trkpt>
      <trkpt lat="43.05836" lon="0.24665">
        <ele>422.69</ele>
        <time>2026-08-30T10:07:08Z</time>
      </trkpt>
      <trkpt lat="43.05852" lon="0.24657">
        <ele>421.19</ele>
        <time>2026-08-30T10:07:10Z</time>
      </trkpt>
      <trkpt lat="43.05861" lon="0.24654">
        <ele>420.31</ele>
        <time>2026-08-30T10:07:11Z</time>
      </trkpt>
      <trkpt lat="43.05869" lon="0.24652">
        <ele>420.3</ele>
        <time>2026-08-30T10:07:12Z</time>
      </trkpt>
      <trkpt lat="43.05878" lon="0.24651">
        <ele>419.33</ele>
        <time>2026-08-30T10:07:13Z</time>
      </trkpt>
      <trkpt lat="43.05887" lon="0.24651">
        <ele>419.34</ele>
        <time>2026-08-30T10:07:14Z</time>
      </trkpt>
      <trkpt lat="43.05896" lon="0.24651">
        <ele>418.36</ele>
        <time>2026-08-30T10:07:15Z</time>
      </trkpt>
      <trkpt lat="43.05906" lon="0.24653">
        <ele>417.4</ele>
        <time>2026-08-30T10:07:16Z</time>
      </trkpt>
      <trkpt lat="43.05916" lon="0.24655">
        <ele>417.52</ele>
        <time>2026-08-30T10:07:17Z</time>
      </trkpt>
      <trkpt lat="43.05942" lon="0.24655">
        <ele>415.47</ele>
        <time>2026-08-30T10:07:20Z</time>
      </trkpt>
      <trkpt lat="43.0595" lon="0.24652">
        <ele>414.47</ele>
        <time>2026-08-30T10:07:21Z</time>
      </trkpt>
      <trkpt lat="43.05957" lon="0.24648">
        <ele>413.77</ele>
        <time>2026-08-30T10:07:22Z</time>
      </trkpt>
      <trkpt lat="43.05965" lon="0.2464">
        <ele>413.75</ele>
        <time>2026-08-30T10:07:23Z</time>
      </trkpt>
      <trkpt lat="43.05971" lon="0.24633">
        <ele>412.94</ele>
        <time>2026-08-30T10:07:24Z</time>
      </trkpt>
      <trkpt lat="43.05977" lon="0.24627">
        <ele>412.94</ele>
        <time>2026-08-30T10:07:25Z</time>
      </trkpt>
      <trkpt lat="43.05989" lon="0.24618">
        <ele>412.19</ele>
        <time>2026-08-30T10:07:27Z</time>
      </trkpt>
      <trkpt lat="43.05996" lon="0.24614">
        <ele>411.71</ele>
        <time>2026-08-30T10:07:28Z</time>
      </trkpt>
      <trkpt lat="43.06003" lon="0.24614">
        <ele>410.84</ele>
        <time>2026-08-30T10:07:29Z</time>
      </trkpt>
      <trkpt lat="43.0601" lon="0.24615">
        <ele>409.74</ele>
        <time>2026-08-30T10:07:30Z</time>
      </trkpt>
      <trkpt lat="43.06017" lon="0.24619">
        <ele>408.74</ele>
        <time>2026-08-30T10:07:31Z</time>
      </trkpt>
      <trkpt lat="43.06025" lon="0.24623">
        <ele>408.73</ele>
        <time>2026-08-30T10:07:32Z</time>
      </trkpt>
      <trkpt lat="43.06032" lon="0.24627">
        <ele>408.45</ele>
        <time>2026-08-30T10:07:33Z</time>
      </trkpt>
      <trkpt lat="43.06041" lon="0.24628">
        <ele>407.92</ele>
        <time>2026-08-30T10:07:34Z</time>
      </trkpt>
      <trkpt lat="43.0605" lon="0.24629">
        <ele>406.22</ele>
        <time>2026-08-30T10:07:35Z</time>
      </trkpt>
      <trkpt lat="43.06058" lon="0.24627">
        <ele>406.22</ele>
        <time>2026-08-30T10:07:36Z</time>
      </trkpt>
      <trkpt lat="43.06065" lon="0.24623">
        <ele>406.2</ele>
        <time>2026-08-30T10:07:37Z</time>
      </trkpt>
      <trkpt lat="43.06071" lon="0.2462">
        <ele>406.24</ele>
        <time>2026-08-30T10:07:38Z</time>
      </trkpt>
      <trkpt lat="43.06078" lon="0.24617">
        <ele>405.54</ele>
        <time>2026-08-30T10:07:39Z</time>
      </trkpt>
      <trkpt lat="43.06095" lon="0.24609">
        <ele>405.19</ele>
        <time>2026-08-30T10:07:42Z</time>
      </trkpt>
      <trkpt lat="43.06107" lon="0.24602">
        <ele>405.14</ele>
        <time>2026-08-30T10:07:44Z</time>
      </trkpt>
      <trkpt lat="43.06112" lon="0.246">
        <ele>405.17</ele>
        <time>2026-08-30T10:07:45Z</time>
      </trkpt>
      <trkpt lat="43.06148" lon="0.24592">
        <ele>407.63</ele>
        <time>2026-08-30T10:07:55Z</time>
      </trkpt>
      <trkpt lat="43.06151" lon="0.24592">
        <ele>407.75</ele>
        <time>2026-08-30T10:07:56Z</time>
      </trkpt>
      <trkpt lat="43.06157" lon="0.24591">
        <ele>409</ele>
        <time>2026-08-30T10:07:58Z</time>
      </trkpt>
      <trkpt lat="43.06172" lon="0.24588">
        <ele>410.22</ele>
        <time>2026-08-30T10:08:02Z</time>
      </trkpt>
      <trkpt lat="43.06188" lon="0.24583">
        <ele>410.67</ele>
        <time>2026-08-30T10:08:11Z</time>
      </trkpt>
      <trkpt lat="43.06189" lon="0.24583">
        <ele>410.81</ele>
        <time>2026-08-30T10:08:14Z</time>
      </trkpt>
      <trkpt lat="43.06194" lon="0.24586">
        <ele>410.67</ele>
        <time>2026-08-30T10:08:18Z</time>
      </trkpt>
      <trkpt lat="43.06198" lon="0.24588">
        <ele>410.66</ele>
        <time>2026-08-30T10:08:19Z</time>
      </trkpt>
      <trkpt lat="43.062" lon="0.24588">
        <ele>410.62</ele>
        <time>2026-08-30T10:08:20Z</time>
      </trkpt>
      <trkpt lat="43.06203" lon="0.24588">
        <ele>410.6</ele>
        <time>2026-08-30T10:08:21Z</time>
      </trkpt>
      <trkpt lat="43.06207" lon="0.24588">
        <ele>411.46</ele>
        <time>2026-08-30T10:08:22Z</time>
      </trkpt>
      <trkpt lat="43.06211" lon="0.24589">
        <ele>411.46</ele>
        <time>2026-08-30T10:08:23Z</time>
      </trkpt>
      <trkpt lat="43.06216" lon="0.2459">
        <ele>411.45</ele>
        <time>2026-08-30T10:08:24Z</time>
      </trkpt>
      <trkpt lat="43.06219" lon="0.24591">
        <ele>412.73</ele>
        <time>2026-08-30T10:08:25Z</time>
      </trkpt>
      <trkpt lat="43.06223" lon="0.24592">
        <ele>412.72</ele>
        <time>2026-08-30T10:08:26Z</time>
      </trkpt>
      <trkpt lat="43.06235" lon="0.24595">
        <ele>413.47</ele>
        <time>2026-08-30T10:08:30Z</time>
      </trkpt>
      <trkpt lat="43.06239" lon="0.24596">
        <ele>413.46</ele>
        <time>2026-08-30T10:08:31Z</time>
      </trkpt>
      <trkpt lat="43.06243" lon="0.24597">
        <ele>413.45</ele>
        <time>2026-08-30T10:08:32Z</time>
      </trkpt>
      <trkpt lat="43.06247" lon="0.24598">
        <ele>414.49</ele>
        <time>2026-08-30T10:08:33Z</time>
      </trkpt>
      <trkpt lat="43.0625" lon="0.24601">
        <ele>414.47</ele>
        <time>2026-08-30T10:08:34Z</time>
      </trkpt>
      <trkpt lat="43.06255" lon="0.24601">
        <ele>414.47</ele>
        <time>2026-08-30T10:08:35Z</time>
      </trkpt>
      <trkpt lat="43.06286" lon="0.24602">
        <ele>417.29</ele>
        <time>2026-08-30T10:08:45Z</time>
      </trkpt>
      <trkpt lat="43.06325" lon="0.24576">
        <ele>419.4</ele>
        <time>2026-08-30T10:08:57Z</time>
      </trkpt>
      <trkpt lat="43.06332" lon="0.24529">
        <ele>422.06</ele>
        <time>2026-08-30T10:09:08Z</time>
      </trkpt>
      <trkpt lat="43.06335" lon="0.24484">
        <ele>424.51</ele>
        <time>2026-08-30T10:09:18Z</time>
      </trkpt>
      <trkpt lat="43.06338" lon="0.24463">
        <ele>424.44</ele>
        <time>2026-08-30T10:09:23Z</time>
      </trkpt>
      <trkpt lat="43.0634" lon="0.24464">
        <ele>424.43</ele>
        <time>2026-08-30T10:09:24Z</time>
      </trkpt>
      <trkpt lat="43.06343" lon="0.24466">
        <ele>424.42</ele>
        <time>2026-08-30T10:09:25Z</time>
      </trkpt>
      <trkpt lat="43.0635" lon="0.24473">
        <ele>425.4</ele>
        <time>2026-08-30T10:09:27Z</time>
      </trkpt>
      <trkpt lat="43.06353" lon="0.24476">
        <ele>425.39</ele>
        <time>2026-08-30T10:09:28Z</time>
      </trkpt>
      <trkpt lat="43.06362" lon="0.24487">
        <ele>425.38</ele>
        <time>2026-08-30T10:09:31Z</time>
      </trkpt>
      <trkpt lat="43.06368" lon="0.24499">
        <ele>426.26</ele>
        <time>2026-08-30T10:09:34Z</time>
      </trkpt>
      <trkpt lat="43.0637" lon="0.24503">
        <ele>426.25</ele>
        <time>2026-08-30T10:09:35Z</time>
      </trkpt>
      <trkpt lat="43.06386" lon="0.24542">
        <ele>428.52</ele>
        <time>2026-08-30T10:09:44Z</time>
      </trkpt>
      <trkpt lat="43.06394" lon="0.24547">
        <ele>428.43</ele>
        <time>2026-08-30T10:09:47Z</time>
      </trkpt>
      <trkpt lat="43.06396" lon="0.24546">
        <ele>428.42</ele>
        <time>2026-08-30T10:09:48Z</time>
      </trkpt>
      <trkpt lat="43.06399" lon="0.24544">
        <ele>429.31</ele>
        <time>2026-08-30T10:09:49Z</time>
      </trkpt>
      <trkpt lat="43.06402" lon="0.24542">
        <ele>429.31</ele>
        <time>2026-08-30T10:09:50Z</time>
      </trkpt>
      <trkpt lat="43.06405" lon="0.24539">
        <ele>429.33</ele>
        <time>2026-08-30T10:09:51Z</time>
      </trkpt>
      <trkpt lat="43.06422" lon="0.24517">
        <ele>431.98</ele>
        <time>2026-08-30T10:09:58Z</time>
      </trkpt>
      <trkpt lat="43.06442" lon="0.24474">
        <ele>433.63</ele>
        <time>2026-08-30T10:10:10Z</time>
      </trkpt>
      <trkpt lat="43.06444" lon="0.24465">
        <ele>434.86</ele>
        <time>2026-08-30T10:10:12Z</time>
      </trkpt>
      <trkpt lat="43.06457" lon="0.24416">
        <ele>437.41</ele>
        <time>2026-08-30T10:10:24Z</time>
      </trkpt>
      <trkpt lat="43.06468" lon="0.24382">
        <ele>439.58</ele>
        <time>2026-08-30T10:10:33Z</time>
      </trkpt>
      <trkpt lat="43.06483" lon="0.24332">
        <ele>442.94</ele>
        <time>2026-08-30T10:10:46Z</time>
      </trkpt>
      <trkpt lat="43.06492" lon="0.24305">
        <ele>444.17</ele>
        <time>2026-08-30T10:10:53Z</time>
      </trkpt>
      <trkpt lat="43.06509" lon="0.24263">
        <ele>446.56</ele>
        <time>2026-08-30T10:11:05Z</time>
      </trkpt>
      <trkpt lat="43.06527" lon="0.24231">
        <ele>448.5</ele>
        <time>2026-08-30T10:11:14Z</time>
      </trkpt>
      <trkpt lat="43.06539" lon="0.24212">
        <ele>449.27</ele>
        <time>2026-08-30T10:11:20Z</time>
      </trkpt>
      <trkpt lat="43.06541" lon="0.24209">
        <ele>449.25</ele>
        <time>2026-08-30T10:11:21Z</time>
      </trkpt>
      <trkpt lat="43.06559" lon="0.24171">
        <ele>452.53</ele>
        <time>2026-08-30T10:11:32Z</time>
      </trkpt>
      <trkpt lat="43.06577" lon="0.24136">
        <ele>453.9</ele>
        <time>2026-08-30T10:11:42Z</time>
      </trkpt>
      <trkpt lat="43.0661" lon="0.24095">
        <ele>456.46</ele>
        <time>2026-08-30T10:11:55Z</time>
      </trkpt>
      <trkpt lat="43.06628" lon="0.2406">
        <ele>458.17</ele>
        <time>2026-08-30T10:12:06Z</time>
      </trkpt>
      <trkpt lat="43.0666" lon="0.24023">
        <ele>460.7</ele>
        <time>2026-08-30T10:12:17Z</time>
      </trkpt>
      <trkpt lat="43.06676" lon="0.23977">
        <ele>463.26</ele>
        <time>2026-08-30T10:12:29Z</time>
      </trkpt>
      <trkpt lat="43.0668" lon="0.23972">
        <ele>464.14</ele>
        <time>2026-08-30T10:12:31Z</time>
      </trkpt>
      <trkpt lat="43.06683" lon="0.23969">
        <ele>464.09</ele>
        <time>2026-08-30T10:12:32Z</time>
      </trkpt>
      <trkpt lat="43.06685" lon="0.23965">
        <ele>464.15</ele>
        <time>2026-08-30T10:12:33Z</time>
      </trkpt>
      <trkpt lat="43.06686" lon="0.23961">
        <ele>464.07</ele>
        <time>2026-08-30T10:12:34Z</time>
      </trkpt>
      <trkpt lat="43.06687" lon="0.23958">
        <ele>465.34</ele>
        <time>2026-08-30T10:12:35Z</time>
      </trkpt>
      <trkpt lat="43.06688" lon="0.23954">
        <ele>465.33</ele>
        <time>2026-08-30T10:12:36Z</time>
      </trkpt>
      <trkpt lat="43.0671" lon="0.2391">
        <ele>467.04</ele>
        <time>2026-08-30T10:12:49Z</time>
      </trkpt>
      <trkpt lat="43.06715" lon="0.23899">
        <ele>468.48</ele>
        <time>2026-08-30T10:12:52Z</time>
      </trkpt>
      <trkpt lat="43.06722" lon="0.23871">
        <ele>469.7</ele>
        <time>2026-08-30T10:12:59Z</time>
      </trkpt>
      <trkpt lat="43.06725" lon="0.23842">
        <ele>470.56</ele>
        <time>2026-08-30T10:13:06Z</time>
      </trkpt>
      <trkpt lat="43.06725" lon="0.23839">
        <ele>470.55</ele>
        <time>2026-08-30T10:13:07Z</time>
      </trkpt>
      <trkpt lat="43.06726" lon="0.23836">
        <ele>471.83</ele>
        <time>2026-08-30T10:13:08Z</time>
      </trkpt>
      <trkpt lat="43.06727" lon="0.23835">
        <ele>471.86</ele>
        <time>2026-08-30T10:13:09Z</time>
      </trkpt>
      <trkpt lat="43.0673" lon="0.23835">
        <ele>471.81</ele>
        <time>2026-08-30T10:13:10Z</time>
      </trkpt>
      <trkpt lat="43.06732" lon="0.23836">
        <ele>471.8</ele>
        <time>2026-08-30T10:13:11Z</time>
      </trkpt>
      <trkpt lat="43.06742" lon="0.23839">
        <ele>472.97</ele>
        <time>2026-08-30T10:13:13Z</time>
      </trkpt>
      <trkpt lat="43.0675" lon="0.23839">
        <ele>472.93</ele>
        <time>2026-08-30T10:13:14Z</time>
      </trkpt>
      <trkpt lat="43.06784" lon="0.23888">
        <ele>475.57</ele>
        <time>2026-08-30T10:13:29Z</time>
      </trkpt>
      <trkpt lat="43.06788" lon="0.23945">
        <ele>478.59</ele>
        <time>2026-08-30T10:13:40Z</time>
      </trkpt>
      <trkpt lat="43.06791" lon="0.23994">
        <ele>481.43</ele>
        <time>2026-08-30T10:13:52Z</time>
      </trkpt>
      <trkpt lat="43.06806" lon="0.24033">
        <ele>483.22</ele>
        <time>2026-08-30T10:14:03Z</time>
      </trkpt>
      <trkpt lat="43.06813" lon="0.24079">
        <ele>485.8</ele>
        <time>2026-08-30T10:14:14Z</time>
      </trkpt>
      <trkpt lat="43.06801" lon="0.24128">
        <ele>488.88</ele>
        <time>2026-08-30T10:14:26Z</time>
      </trkpt>
      <trkpt lat="43.06789" lon="0.24167">
        <ele>491.26</ele>
        <time>2026-08-30T10:14:36Z</time>
      </trkpt>
      <trkpt lat="43.06783" lon="0.24192">
        <ele>492.11</ele>
        <time>2026-08-30T10:14:48Z</time>
      </trkpt>
      <trkpt lat="43.06782" lon="0.24197">
        <ele>492.14</ele>
        <time>2026-08-30T10:15:17Z</time>
      </trkpt>
      <trkpt lat="43.06781" lon="0.24201">
        <ele>492.15</ele>
        <time>2026-08-30T10:15:18Z</time>
      </trkpt>
      <trkpt lat="43.06781" lon="0.24205">
        <ele>492.15</ele>
        <time>2026-08-30T10:15:19Z</time>
      </trkpt>
      <trkpt lat="43.0678" lon="0.2421">
        <ele>492.16</ele>
        <time>2026-08-30T10:15:20Z</time>
      </trkpt>
      <trkpt lat="43.06779" lon="0.24215">
        <ele>492.17</ele>
        <time>2026-08-30T10:15:21Z</time>
      </trkpt>
      <trkpt lat="43.06775" lon="0.24238">
        <ele>493.37</ele>
        <time>2026-08-30T10:15:31Z</time>
      </trkpt>
      <trkpt lat="43.06778" lon="0.2424">
        <ele>494.13</ele>
        <time>2026-08-30T10:15:51Z</time>
      </trkpt>
      <trkpt lat="43.06778" lon="0.24243">
        <ele>494.11</ele>
        <time>2026-08-30T10:16:00Z</time>
      </trkpt>
      <trkpt lat="43.06778" lon="0.24246">
        <ele>494.09</ele>
        <time>2026-08-30T10:16:01Z</time>
      </trkpt>
      <trkpt lat="43.06779" lon="0.2425">
        <ele>494.09</ele>
        <time>2026-08-30T10:16:02Z</time>
      </trkpt>
      <trkpt lat="43.06799" lon="0.24285">
        <ele>495.32</ele>
        <time>2026-08-30T10:16:13Z</time>
      </trkpt>
      <trkpt lat="43.0684" lon="0.24288">
        <ele>495.28</ele>
        <time>2026-08-30T10:16:25Z</time>
      </trkpt>
      <trkpt lat="43.06842" lon="0.24283">
        <ele>496.05</ele>
        <time>2026-08-30T10:16:36Z</time>
      </trkpt>
      <trkpt lat="43.06845" lon="0.24282">
        <ele>497.04</ele>
        <time>2026-08-30T10:17:25Z</time>
      </trkpt>
      <trkpt lat="43.06847" lon="0.24282">
        <ele>497.07</ele>
        <time>2026-08-30T10:17:26Z</time>
      </trkpt>
      <trkpt lat="43.06849" lon="0.24282">
        <ele>497.04</ele>
        <time>2026-08-30T10:17:27Z</time>
      </trkpt>
      <trkpt lat="43.06895" lon="0.24284">
        <ele>497.95</ele>
        <time>2026-08-30T10:17:40Z</time>
      </trkpt>
      <trkpt lat="43.06947" lon="0.24263">
        <ele>500.92</ele>
        <time>2026-08-30T10:17:55Z</time>
      </trkpt>
      <trkpt lat="43.06961" lon="0.24197">
        <ele>503.56</ele>
        <time>2026-08-30T10:18:09Z</time>
      </trkpt>
      <trkpt lat="43.06946" lon="0.24136">
        <ele>505.18</ele>
        <time>2026-08-30T10:18:22Z</time>
      </trkpt>
      <trkpt lat="43.06922" lon="0.24068">
        <ele>507.22</ele>
        <time>2026-08-30T10:18:37Z</time>
      </trkpt>
      <trkpt lat="43.06909" lon="0.24006">
        <ele>509.7</ele>
        <time>2026-08-30T10:18:50Z</time>
      </trkpt>
      <trkpt lat="43.0691" lon="0.23955">
        <ele>511.09</ele>
        <time>2026-08-30T10:19:00Z</time>
      </trkpt>
      <trkpt lat="43.06912" lon="0.23927">
        <ele>512.51</ele>
        <time>2026-08-30T10:19:06Z</time>
      </trkpt>
      <trkpt lat="43.06912" lon="0.2391">
        <ele>513.46</ele>
        <time>2026-08-30T10:19:12Z</time>
      </trkpt>
      <trkpt lat="43.06913" lon="0.23908">
        <ele>513.44</ele>
        <time>2026-08-30T10:19:13Z</time>
      </trkpt>
      <trkpt lat="43.06917" lon="0.23872">
        <ele>514.24</ele>
        <time>2026-08-30T10:19:24Z</time>
      </trkpt>
      <trkpt lat="43.06916" lon="0.2387">
        <ele>515.38</ele>
        <time>2026-08-30T10:19:25Z</time>
      </trkpt>
      <trkpt lat="43.06914" lon="0.23868">
        <ele>515.38</ele>
        <time>2026-08-30T10:19:26Z</time>
      </trkpt>
      <trkpt lat="43.06912" lon="0.23867">
        <ele>515.4</ele>
        <time>2026-08-30T10:19:27Z</time>
      </trkpt>
      <trkpt lat="43.0691" lon="0.23866">
        <ele>516.44</ele>
        <time>2026-08-30T10:19:28Z</time>
      </trkpt>
      <trkpt lat="43.06907" lon="0.23865">
        <ele>516.38</ele>
        <time>2026-08-30T10:19:29Z</time>
      </trkpt>
      <trkpt lat="43.06904" lon="0.23865">
        <ele>516.44</ele>
        <time>2026-08-30T10:19:30Z</time>
      </trkpt>
      <trkpt lat="43.06901" lon="0.23864">
        <ele>516.43</ele>
        <time>2026-08-30T10:19:31Z</time>
      </trkpt>
      <trkpt lat="43.06898" lon="0.23864">
        <ele>517.69</ele>
        <time>2026-08-30T10:19:32Z</time>
      </trkpt>
      <trkpt lat="43.06896" lon="0.23862">
        <ele>517.66</ele>
        <time>2026-08-30T10:19:33Z</time>
      </trkpt>
      <trkpt lat="43.06894" lon="0.2386">
        <ele>518.46</ele>
        <time>2026-08-30T10:19:34Z</time>
      </trkpt>
      <trkpt lat="43.06892" lon="0.23858">
        <ele>518.46</ele>
        <time>2026-08-30T10:19:35Z</time>
      </trkpt>
      <trkpt lat="43.06891" lon="0.23856">
        <ele>518.44</ele>
        <time>2026-08-30T10:19:36Z</time>
      </trkpt>
      <trkpt lat="43.06889" lon="0.23853">
        <ele>518.47</ele>
        <time>2026-08-30T10:19:37Z</time>
      </trkpt>
      <trkpt lat="43.06888" lon="0.23849">
        <ele>518.45</ele>
        <time>2026-08-30T10:19:38Z</time>
      </trkpt>
      <trkpt lat="43.06877" lon="0.23824">
        <ele>521.02</ele>
        <time>2026-08-30T10:19:46Z</time>
      </trkpt>
      <trkpt lat="43.0687" lon="0.23811">
        <ele>522.26</ele>
        <time>2026-08-30T10:19:50Z</time>
      </trkpt>
      <trkpt lat="43.06868" lon="0.23805">
        <ele>522.25</ele>
        <time>2026-08-30T10:19:51Z</time>
      </trkpt>
      <trkpt lat="43.06866" lon="0.23799">
        <ele>522.26</ele>
        <time>2026-08-30T10:19:52Z</time>
      </trkpt>
      <trkpt lat="43.06863" lon="0.23792">
        <ele>522.19</ele>
        <time>2026-08-30T10:19:53Z</time>
      </trkpt>
      <trkpt lat="43.06859" lon="0.23786">
        <ele>522.21</ele>
        <time>2026-08-30T10:19:54Z</time>
      </trkpt>
      <trkpt lat="43.06854" lon="0.23781">
        <ele>522.22</ele>
        <time>2026-08-30T10:19:55Z</time>
      </trkpt>
      <trkpt lat="43.06848" lon="0.23776">
        <ele>522.21</ele>
        <time>2026-08-30T10:19:56Z</time>
      </trkpt>
      <trkpt lat="43.06842" lon="0.23772">
        <ele>522.21</ele>
        <time>2026-08-30T10:19:57Z</time>
      </trkpt>
      <trkpt lat="43.06835" lon="0.23769">
        <ele>522.17</ele>
        <time>2026-08-30T10:19:58Z</time>
      </trkpt>
      <trkpt lat="43.06829" lon="0.23767">
        <ele>522.15</ele>
        <time>2026-08-30T10:19:59Z</time>
      </trkpt>
      <trkpt lat="43.06823" lon="0.23765">
        <ele>522.15</ele>
        <time>2026-08-30T10:20:00Z</time>
      </trkpt>
      <trkpt lat="43.06818" lon="0.23764">
        <ele>522.15</ele>
        <time>2026-08-30T10:20:01Z</time>
      </trkpt>
      <trkpt lat="43.06814" lon="0.23764">
        <ele>522.14</ele>
        <time>2026-08-30T10:20:02Z</time>
      </trkpt>
      <trkpt lat="43.06809" lon="0.23762">
        <ele>522.16</ele>
        <time>2026-08-30T10:20:03Z</time>
      </trkpt>
      <trkpt lat="43.06805" lon="0.2376">
        <ele>522.14</ele>
        <time>2026-08-30T10:20:04Z</time>
      </trkpt>
      <trkpt lat="43.06802" lon="0.23758">
        <ele>522.15</ele>
        <time>2026-08-30T10:20:05Z</time>
      </trkpt>
      <trkpt lat="43.06798" lon="0.23755">
        <ele>522.13</ele>
        <time>2026-08-30T10:20:06Z</time>
      </trkpt>
      <trkpt lat="43.06791" lon="0.23748">
        <ele>522.14</ele>
        <time>2026-08-30T10:20:08Z</time>
      </trkpt>
      <trkpt lat="43.06787" lon="0.23744">
        <ele>522.14</ele>
        <time>2026-08-30T10:20:09Z</time>
      </trkpt>
      <trkpt lat="43.06772" lon="0.23722">
        <ele>522.15</ele>
        <time>2026-08-30T10:20:14Z</time>
      </trkpt>
      <trkpt lat="43.06769" lon="0.23717">
        <ele>522.17</ele>
        <time>2026-08-30T10:20:15Z</time>
      </trkpt>
      <trkpt lat="43.06767" lon="0.23712">
        <ele>522.15</ele>
        <time>2026-08-30T10:20:16Z</time>
      </trkpt>
      <trkpt lat="43.06765" lon="0.23707">
        <ele>522.16</ele>
        <time>2026-08-30T10:20:17Z</time>
      </trkpt>
      <trkpt lat="43.06764" lon="0.23701">
        <ele>522.15</ele>
        <time>2026-08-30T10:20:18Z</time>
      </trkpt>
      <trkpt lat="43.06762" lon="0.23695">
        <ele>522.15</ele>
        <time>2026-08-30T10:20:19Z</time>
      </trkpt>
      <trkpt lat="43.0676" lon="0.23683">
        <ele>523.23</ele>
        <time>2026-08-30T10:20:21Z</time>
      </trkpt>
      <trkpt lat="43.06757" lon="0.23671">
        <ele>523.2</ele>
        <time>2026-08-30T10:20:23Z</time>
      </trkpt>
      <trkpt lat="43.06756" lon="0.23665">
        <ele>523.19</ele>
        <time>2026-08-30T10:20:24Z</time>
      </trkpt>
      <trkpt lat="43.06755" lon="0.2366">
        <ele>523.21</ele>
        <time>2026-08-30T10:20:25Z</time>
      </trkpt>
      <trkpt lat="43.06753" lon="0.23655">
        <ele>523.18</ele>
        <time>2026-08-30T10:20:26Z</time>
      </trkpt>
      <trkpt lat="43.06751" lon="0.23649">
        <ele>523.2</ele>
        <time>2026-08-30T10:20:27Z</time>
      </trkpt>
      <trkpt lat="43.06749" lon="0.23642">
        <ele>523.17</ele>
        <time>2026-08-30T10:20:28Z</time>
      </trkpt>
      <trkpt lat="43.06736" lon="0.23582">
        <ele>524.85</ele>
        <time>2026-08-30T10:20:39Z</time>
      </trkpt>
      <trkpt lat="43.0673" lon="0.23559">
        <ele>525.88</ele>
        <time>2026-08-30T10:20:43Z</time>
      </trkpt>
      <trkpt lat="43.06729" lon="0.23555">
        <ele>525.82</ele>
        <time>2026-08-30T10:20:44Z</time>
      </trkpt>
      <trkpt lat="43.06728" lon="0.23549">
        <ele>525.78</ele>
        <time>2026-08-30T10:20:45Z</time>
      </trkpt>
      <trkpt lat="43.06726" lon="0.23543">
        <ele>525.78</ele>
        <time>2026-08-30T10:20:46Z</time>
      </trkpt>
      <trkpt lat="43.06724" lon="0.23538">
        <ele>525.78</ele>
        <time>2026-08-30T10:20:47Z</time>
      </trkpt>
      <trkpt lat="43.06704" lon="0.23499">
        <ele>525.53</ele>
        <time>2026-08-30T10:20:55Z</time>
      </trkpt>
      <trkpt lat="43.06699" lon="0.23494">
        <ele>525.51</ele>
        <time>2026-08-30T10:20:56Z</time>
      </trkpt>
      <trkpt lat="43.06692" lon="0.23489">
        <ele>525.48</ele>
        <time>2026-08-30T10:20:57Z</time>
      </trkpt>
      <trkpt lat="43.06685" lon="0.23486">
        <ele>525.48</ele>
        <time>2026-08-30T10:20:58Z</time>
      </trkpt>
      <trkpt lat="43.0668" lon="0.23487">
        <ele>525.47</ele>
        <time>2026-08-30T10:21:00Z</time>
      </trkpt>
      <trkpt lat="43.06666" lon="0.23523">
        <ele>525.41</ele>
        <time>2026-08-30T10:21:07Z</time>
      </trkpt>
      <trkpt lat="43.06664" lon="0.23536">
        <ele>525.39</ele>
        <time>2026-08-30T10:21:10Z</time>
      </trkpt>
      <trkpt lat="43.06663" lon="0.23539">
        <ele>525.39</ele>
        <time>2026-08-30T10:21:11Z</time>
      </trkpt>
      <trkpt lat="43.06662" lon="0.23544">
        <ele>525.38</ele>
        <time>2026-08-30T10:21:12Z</time>
      </trkpt>
      <trkpt lat="43.0666" lon="0.23548">
        <ele>525.37</ele>
        <time>2026-08-30T10:21:13Z</time>
      </trkpt>
      <trkpt lat="43.06659" lon="0.23552">
        <ele>525.38</ele>
        <time>2026-08-30T10:21:14Z</time>
      </trkpt>
      <trkpt lat="43.06649" lon="0.23588">
        <ele>528.09</ele>
        <time>2026-08-30T10:21:24Z</time>
      </trkpt>
      <trkpt lat="43.06644" lon="0.23598">
        <ele>528.06</ele>
        <time>2026-08-30T10:21:27Z</time>
      </trkpt>
      <trkpt lat="43.06644" lon="0.23601">
        <ele>528.03</ele>
        <time>2026-08-30T10:21:28Z</time>
      </trkpt>
      <trkpt lat="43.06643" lon="0.23607">
        <ele>529.3</ele>
        <time>2026-08-30T10:21:30Z</time>
      </trkpt>
      <trkpt lat="43.06644" lon="0.2361">
        <ele>529.28</ele>
        <time>2026-08-30T10:21:31Z</time>
      </trkpt>
      <trkpt lat="43.06643" lon="0.23613">
        <ele>529.22</ele>
        <time>2026-08-30T10:21:32Z</time>
      </trkpt>
      <trkpt lat="43.06642" lon="0.23617">
        <ele>530.24</ele>
        <time>2026-08-30T10:21:33Z</time>
      </trkpt>
      <trkpt lat="43.06643" lon="0.23621">
        <ele>530.21</ele>
        <time>2026-08-30T10:21:34Z</time>
      </trkpt>
      <trkpt lat="43.06643" lon="0.23625">
        <ele>530.2</ele>
        <time>2026-08-30T10:21:35Z</time>
      </trkpt>
      <trkpt lat="43.0664" lon="0.23657">
        <ele>531.01</ele>
        <time>2026-08-30T10:21:43Z</time>
      </trkpt>
      <trkpt lat="43.06639" lon="0.23689">
        <ele>533.04</ele>
        <time>2026-08-30T10:21:52Z</time>
      </trkpt>
      <trkpt lat="43.06639" lon="0.23693">
        <ele>533.03</ele>
        <time>2026-08-30T10:21:53Z</time>
      </trkpt>
      <trkpt lat="43.06638" lon="0.23697">
        <ele>533.01</ele>
        <time>2026-08-30T10:21:54Z</time>
      </trkpt>
      <trkpt lat="43.06637" lon="0.23701">
        <ele>533</ele>
        <time>2026-08-30T10:21:55Z</time>
      </trkpt>
      <trkpt lat="43.06637" lon="0.23705">
        <ele>532.98</ele>
        <time>2026-08-30T10:21:56Z</time>
      </trkpt>
      <trkpt lat="43.06635" lon="0.23709">
        <ele>532.97</ele>
        <time>2026-08-30T10:21:57Z</time>
      </trkpt>
      <trkpt lat="43.0663" lon="0.23735">
        <ele>533.8</ele>
        <time>2026-08-30T10:22:03Z</time>
      </trkpt>
      <trkpt lat="43.06629" lon="0.23739">
        <ele>533.78</ele>
        <time>2026-08-30T10:22:04Z</time>
      </trkpt>
      <trkpt lat="43.0663" lon="0.23742">
        <ele>533.74</ele>
        <time>2026-08-30T10:22:05Z</time>
      </trkpt>
      <trkpt lat="43.06629" lon="0.23746">
        <ele>534.68</ele>
        <time>2026-08-30T10:22:06Z</time>
      </trkpt>
      <trkpt lat="43.06629" lon="0.2375">
        <ele>534.69</ele>
        <time>2026-08-30T10:22:07Z</time>
      </trkpt>
      <trkpt lat="43.06629" lon="0.23753">
        <ele>534.67</ele>
        <time>2026-08-30T10:22:08Z</time>
      </trkpt>
      <trkpt lat="43.06629" lon="0.23757">
        <ele>534.67</ele>
        <time>2026-08-30T10:22:09Z</time>
      </trkpt>
      <trkpt lat="43.06628" lon="0.23762">
        <ele>534.64</ele>
        <time>2026-08-30T10:22:10Z</time>
      </trkpt>
      <trkpt lat="43.06627" lon="0.23766">
        <ele>534.63</ele>
        <time>2026-08-30T10:22:11Z</time>
      </trkpt>
      <trkpt lat="43.06626" lon="0.23773">
        <ele>535.69</ele>
        <time>2026-08-30T10:22:13Z</time>
      </trkpt>
      <trkpt lat="43.06626" lon="0.23777">
        <ele>535.67</ele>
        <time>2026-08-30T10:22:14Z</time>
      </trkpt>
      <trkpt lat="43.06626" lon="0.23782">
        <ele>535.67</ele>
        <time>2026-08-30T10:22:15Z</time>
      </trkpt>
      <trkpt lat="43.06624" lon="0.23786">
        <ele>535.65</ele>
        <time>2026-08-30T10:22:16Z</time>
      </trkpt>
      <trkpt lat="43.06623" lon="0.23791">
        <ele>535.63</ele>
        <time>2026-08-30T10:22:17Z</time>
      </trkpt>
      <trkpt lat="43.06602" lon="0.23838">
        <ele>536.33</ele>
        <time>2026-08-30T10:22:28Z</time>
      </trkpt>
      <trkpt lat="43.06597" lon="0.23844">
        <ele>536.31</ele>
        <time>2026-08-30T10:22:30Z</time>
      </trkpt>
      <trkpt lat="43.06594" lon="0.23846">
        <ele>536.3</ele>
        <time>2026-08-30T10:22:31Z</time>
      </trkpt>
      <trkpt lat="43.06565" lon="0.23856">
        <ele>537.24</ele>
        <time>2026-08-30T10:22:39Z</time>
      </trkpt>
      <trkpt lat="43.06561" lon="0.23856">
        <ele>537.28</ele>
        <time>2026-08-30T10:22:40Z</time>
      </trkpt>
      <trkpt lat="43.06556" lon="0.23855">
        <ele>537.22</ele>
        <time>2026-08-30T10:22:41Z</time>
      </trkpt>
      <trkpt lat="43.06552" lon="0.23855">
        <ele>537.24</ele>
        <time>2026-08-30T10:22:42Z</time>
      </trkpt>
      <trkpt lat="43.06547" lon="0.23856">
        <ele>537.24</ele>
        <time>2026-08-30T10:22:43Z</time>
      </trkpt>
      <trkpt lat="43.06544" lon="0.23858">
        <ele>537.17</ele>
        <time>2026-08-30T10:22:44Z</time>
      </trkpt>
      <trkpt lat="43.06523" lon="0.2388">
        <ele>537.09</ele>
        <time>2026-08-30T10:22:52Z</time>
      </trkpt>
      <trkpt lat="43.06509" lon="0.23903">
        <ele>537.01</ele>
        <time>2026-08-30T10:22:57Z</time>
      </trkpt>
      <trkpt lat="43.06492" lon="0.23933">
        <ele>533.8</ele>
        <time>2026-08-30T10:23:02Z</time>
      </trkpt>
      <trkpt lat="43.06488" lon="0.2394">
        <ele>533.85</ele>
        <time>2026-08-30T10:23:03Z</time>
      </trkpt>
      <trkpt lat="43.06484" lon="0.23944">
        <ele>533.79</ele>
        <time>2026-08-30T10:23:04Z</time>
      </trkpt>
      <trkpt lat="43.0648" lon="0.23948">
        <ele>533.76</ele>
        <time>2026-08-30T10:23:05Z</time>
      </trkpt>
      <trkpt lat="43.06476" lon="0.23952">
        <ele>533.72</ele>
        <time>2026-08-30T10:23:06Z</time>
      </trkpt>
      <trkpt lat="43.06466" lon="0.23959">
        <ele>533.69</ele>
        <time>2026-08-30T10:23:08Z</time>
      </trkpt>
      <trkpt lat="43.06461" lon="0.23962">
        <ele>533.65</ele>
        <time>2026-08-30T10:23:09Z</time>
      </trkpt>
      <trkpt lat="43.06455" lon="0.23963">
        <ele>533.64</ele>
        <time>2026-08-30T10:23:10Z</time>
      </trkpt>
      <trkpt lat="43.06447" lon="0.23961">
        <ele>532.34</ele>
        <time>2026-08-30T10:23:12Z</time>
      </trkpt>
      <trkpt lat="43.06444" lon="0.23957">
        <ele>532.32</ele>
        <time>2026-08-30T10:23:13Z</time>
      </trkpt>
      <trkpt lat="43.06442" lon="0.23953">
        <ele>532.32</ele>
        <time>2026-08-30T10:23:14Z</time>
      </trkpt>
      <trkpt lat="43.06441" lon="0.23948">
        <ele>532.28</ele>
        <time>2026-08-30T10:23:15Z</time>
      </trkpt>
      <trkpt lat="43.06435" lon="0.23922">
        <ele>531.49</ele>
        <time>2026-08-30T10:23:20Z</time>
      </trkpt>
      <trkpt lat="43.06433" lon="0.23916">
        <ele>531.47</ele>
        <time>2026-08-30T10:23:21Z</time>
      </trkpt>
      <trkpt lat="43.06429" lon="0.23911">
        <ele>531.44</ele>
        <time>2026-08-30T10:23:22Z</time>
      </trkpt>
      <trkpt lat="43.0642" lon="0.23898">
        <ele>531.44</ele>
        <time>2026-08-30T10:23:25Z</time>
      </trkpt>
      <trkpt lat="43.06415" lon="0.23894">
        <ele>531.45</ele>
        <time>2026-08-30T10:23:26Z</time>
      </trkpt>
      <trkpt lat="43.06409" lon="0.2389">
        <ele>531.42</ele>
        <time>2026-08-30T10:23:27Z</time>
      </trkpt>
      <trkpt lat="43.06404" lon="0.23887">
        <ele>531.43</ele>
        <time>2026-08-30T10:23:28Z</time>
      </trkpt>
      <trkpt lat="43.06399" lon="0.23885">
        <ele>531.43</ele>
        <time>2026-08-30T10:23:29Z</time>
      </trkpt>
      <trkpt lat="43.06394" lon="0.23883">
        <ele>531.44</ele>
        <time>2026-08-30T10:23:30Z</time>
      </trkpt>
      <trkpt lat="43.06379" lon="0.23876">
        <ele>530.36</ele>
        <time>2026-08-30T10:23:33Z</time>
      </trkpt>
      <trkpt lat="43.06375" lon="0.23874">
        <ele>530.34</ele>
        <time>2026-08-30T10:23:34Z</time>
      </trkpt>
      <trkpt lat="43.0637" lon="0.23872">
        <ele>530.34</ele>
        <time>2026-08-30T10:23:35Z</time>
      </trkpt>
      <trkpt lat="43.0636" lon="0.23868">
        <ele>530.32</ele>
        <time>2026-08-30T10:23:37Z</time>
      </trkpt>
      <trkpt lat="43.06356" lon="0.2387">
        <ele>530.32</ele>
        <time>2026-08-30T10:23:38Z</time>
      </trkpt>
      <trkpt lat="43.06351" lon="0.23873">
        <ele>530.31</ele>
        <time>2026-08-30T10:23:39Z</time>
      </trkpt>
      <trkpt lat="43.06347" lon="0.23875">
        <ele>529.31</ele>
        <time>2026-08-30T10:23:40Z</time>
      </trkpt>
      <trkpt lat="43.06343" lon="0.23876">
        <ele>529.31</ele>
        <time>2026-08-30T10:23:41Z</time>
      </trkpt>
      <trkpt lat="43.06315" lon="0.23888">
        <ele>527.49</ele>
        <time>2026-08-30T10:23:51Z</time>
      </trkpt>
      <trkpt lat="43.06317" lon="0.23884">
        <ele>527.48</ele>
        <time>2026-08-30T10:23:57Z</time>
      </trkpt>
      <trkpt lat="43.06319" lon="0.23885">
        <ele>527.49</ele>
        <time>2026-08-30T10:23:58Z</time>
      </trkpt>
      <trkpt lat="43.06321" lon="0.23891">
        <ele>527.58</ele>
        <time>2026-08-30T10:24:10Z</time>
      </trkpt>
      <trkpt lat="43.0632" lon="0.23897">
        <ele>527.58</ele>
        <time>2026-08-30T10:24:32Z</time>
      </trkpt>
      <trkpt lat="43.06316" lon="0.239">
        <ele>527.65</ele>
        <time>2026-08-30T10:24:56Z</time>
      </trkpt>
      <trkpt lat="43.06315" lon="0.23899">
        <ele>527.65</ele>
        <time>2026-08-30T10:24:57Z</time>
      </trkpt>
      <trkpt lat="43.06318" lon="0.23893">
        <ele>527.67</ele>
        <time>2026-08-30T10:25:03Z</time>
      </trkpt>
      <trkpt lat="43.0632" lon="0.23893">
        <ele>527.67</ele>
        <time>2026-08-30T10:25:04Z</time>
      </trkpt>
      <trkpt lat="43.06322" lon="0.23893">
        <ele>527.67</ele>
        <time>2026-08-30T10:25:05Z</time>
      </trkpt>
      <trkpt lat="43.06324" lon="0.23892">
        <ele>527.67</ele>
        <time>2026-08-30T10:25:06Z</time>
      </trkpt>
      <trkpt lat="43.06326" lon="0.23891">
        <ele>527.69</ele>
        <time>2026-08-30T10:25:07Z</time>
      </trkpt>
      <trkpt lat="43.06328" lon="0.2389">
        <ele>527.68</ele>
        <time>2026-08-30T10:25:08Z</time>
      </trkpt>
      <trkpt lat="43.06329" lon="0.23889">
        <ele>527.69</ele>
        <time>2026-08-30T10:25:09Z</time>
      </trkpt>
      <trkpt lat="43.06331" lon="0.23887">
        <ele>527.7</ele>
        <time>2026-08-30T10:25:10Z</time>
      </trkpt>
      <trkpt lat="43.06336" lon="0.23883">
        <ele>530.16</ele>
        <time>2026-08-30T10:25:13Z</time>
      </trkpt>
      <trkpt lat="43.06343" lon="0.23878">
        <ele>531.43</ele>
        <time>2026-08-30T10:25:17Z</time>
      </trkpt>
      <trkpt lat="43.06344" lon="0.23877">
        <ele>531.46</ele>
        <time>2026-08-30T10:25:18Z</time>
      </trkpt>
      <trkpt lat="43.06347" lon="0.23876">
        <ele>532.48</ele>
        <time>2026-08-30T10:25:19Z</time>
      </trkpt>
      <trkpt lat="43.06349" lon="0.23874">
        <ele>533.28</ele>
        <time>2026-08-30T10:25:20Z</time>
      </trkpt>
      <trkpt lat="43.0635" lon="0.23872">
        <ele>533.3</ele>
        <time>2026-08-30T10:25:21Z</time>
      </trkpt>
      <trkpt lat="43.06352" lon="0.2387">
        <ele>533.26</ele>
        <time>2026-08-30T10:25:22Z</time>
      </trkpt>
      <trkpt lat="43.06353" lon="0.23869">
        <ele>534.45</ele>
        <time>2026-08-30T10:25:23Z</time>
      </trkpt>
      <trkpt lat="43.06355" lon="0.23867">
        <ele>534.46</ele>
        <time>2026-08-30T10:25:24Z</time>
      </trkpt>
      <trkpt lat="43.06363" lon="0.23861">
        <ele>536.79</ele>
        <time>2026-08-30T10:25:28Z</time>
      </trkpt>
      <trkpt lat="43.0637" lon="0.23856">
        <ele>538.35</ele>
        <time>2026-08-30T10:25:31Z</time>
      </trkpt>
      <trkpt lat="43.06398" lon="0.23851">
        <ele>541.38</ele>
        <time>2026-08-30T10:25:43Z</time>
      </trkpt>
      <trkpt lat="43.06419" lon="0.23857">
        <ele>544.45</ele>
        <time>2026-08-30T10:25:51Z</time>
      </trkpt>
      <trkpt lat="43.0643" lon="0.2386">
        <ele>545.69</ele>
        <time>2026-08-30T10:25:56Z</time>
      </trkpt>
      <trkpt lat="43.06439" lon="0.23865">
        <ele>548.28</ele>
        <time>2026-08-30T10:26:01Z</time>
      </trkpt>
      <trkpt lat="43.06442" lon="0.23867">
        <ele>549.7</ele>
        <time>2026-08-30T10:26:03Z</time>
      </trkpt>
      <trkpt lat="43.06453" lon="0.2387">
        <ele>551.76</ele>
        <time>2026-08-30T10:26:15Z</time>
      </trkpt>
      <trkpt lat="43.06464" lon="0.23864">
        <ele>554.84</ele>
        <time>2026-08-30T10:26:21Z</time>
      </trkpt>
      <trkpt lat="43.06474" lon="0.23845">
        <ele>558.34</ele>
        <time>2026-08-30T10:26:29Z</time>
      </trkpt>
      <trkpt lat="43.06475" lon="0.23843">
        <ele>558.39</ele>
        <time>2026-08-30T10:26:30Z</time>
      </trkpt>
      <trkpt lat="43.06486" lon="0.23806">
        <ele>562.22</ele>
        <time>2026-08-30T10:26:43Z</time>
      </trkpt>
      <trkpt lat="43.065" lon="0.23746">
        <ele>565.03</ele>
        <time>2026-08-30T10:27:00Z</time>
      </trkpt>
      <trkpt lat="43.06515" lon="0.23681">
        <ele>568.8</ele>
        <time>2026-08-30T10:27:16Z</time>
      </trkpt>
      <trkpt lat="43.06525" lon="0.23631">
        <ele>571.76</ele>
        <time>2026-08-30T10:27:30Z</time>
      </trkpt>
      <trkpt lat="43.06528" lon="0.23612">
        <ele>573.19</ele>
        <time>2026-08-30T10:27:35Z</time>
      </trkpt>
      <trkpt lat="43.0654" lon="0.23546">
        <ele>574.83</ele>
        <time>2026-08-30T10:27:51Z</time>
      </trkpt>
      <trkpt lat="43.06555" lon="0.23462">
        <ele>575.59</ele>
        <time>2026-08-30T10:28:07Z</time>
      </trkpt>
      <trkpt lat="43.06566" lon="0.23382">
        <ele>578.52</ele>
        <time>2026-08-30T10:28:25Z</time>
      </trkpt>
      <trkpt lat="43.0657" lon="0.23365">
        <ele>579.99</ele>
        <time>2026-08-30T10:28:30Z</time>
      </trkpt>
      <trkpt lat="43.06572" lon="0.23352">
        <ele>581.5</ele>
        <time>2026-08-30T10:28:34Z</time>
      </trkpt>
      <trkpt lat="43.06575" lon="0.23325">
        <ele>585.67</ele>
        <time>2026-08-30T10:28:44Z</time>
      </trkpt>
      <trkpt lat="43.06575" lon="0.23323">
        <ele>585.68</ele>
        <time>2026-08-30T10:28:45Z</time>
      </trkpt>
      <trkpt lat="43.06577" lon="0.23313">
        <ele>587.19</ele>
        <time>2026-08-30T10:28:49Z</time>
      </trkpt>
      <trkpt lat="43.06578" lon="0.23295">
        <ele>589.77</ele>
        <time>2026-08-30T10:28:55Z</time>
      </trkpt>
      <trkpt lat="43.06582" lon="0.23274">
        <ele>593.22</ele>
        <time>2026-08-30T10:29:03Z</time>
      </trkpt>
      <trkpt lat="43.06589" lon="0.23246">
        <ele>597.5</ele>
        <time>2026-08-30T10:29:14Z</time>
      </trkpt>
      <trkpt lat="43.0659" lon="0.23243">
        <ele>597.49</ele>
        <time>2026-08-30T10:29:15Z</time>
      </trkpt>
      <trkpt lat="43.06594" lon="0.23225">
        <ele>599.69</ele>
        <time>2026-08-30T10:29:22Z</time>
      </trkpt>
      <trkpt lat="43.066" lon="0.23206">
        <ele>602.86</ele>
        <time>2026-08-30T10:29:31Z</time>
      </trkpt>
      <trkpt lat="43.06601" lon="0.23202">
        <ele>602.85</ele>
        <time>2026-08-30T10:29:32Z</time>
      </trkpt>
      <trkpt lat="43.06607" lon="0.23185">
        <ele>605.48</ele>
        <time>2026-08-30T10:29:38Z</time>
      </trkpt>
      <trkpt lat="43.06613" lon="0.23171">
        <ele>606.98</ele>
        <time>2026-08-30T10:29:44Z</time>
      </trkpt>
      <trkpt lat="43.06614" lon="0.23169">
        <ele>606.99</ele>
        <time>2026-08-30T10:29:45Z</time>
      </trkpt>
      <trkpt lat="43.06615" lon="0.23167">
        <ele>607</ele>
        <time>2026-08-30T10:29:46Z</time>
      </trkpt>
      <trkpt lat="43.06616" lon="0.23165">
        <ele>607.93</ele>
        <time>2026-08-30T10:29:47Z</time>
      </trkpt>
      <trkpt lat="43.06617" lon="0.23163">
        <ele>607.93</ele>
        <time>2026-08-30T10:29:48Z</time>
      </trkpt>
      <trkpt lat="43.0663" lon="0.2314">
        <ele>611.33</ele>
        <time>2026-08-30T10:29:57Z</time>
      </trkpt>
      <trkpt lat="43.06642" lon="0.23108">
        <ele>613.92</ele>
        <time>2026-08-30T10:30:08Z</time>
      </trkpt>
      <trkpt lat="43.06646" lon="0.23096">
        <ele>614.87</ele>
        <time>2026-08-30T10:30:13Z</time>
      </trkpt>
      <trkpt lat="43.06654" lon="0.23074">
        <ele>618</ele>
        <time>2026-08-30T10:30:21Z</time>
      </trkpt>
      <trkpt lat="43.06673" lon="0.23035">
        <ele>620.61</ele>
        <time>2026-08-30T10:30:35Z</time>
      </trkpt>
      <trkpt lat="43.06691" lon="0.23017">
        <ele>621.63</ele>
        <time>2026-08-30T10:30:45Z</time>
      </trkpt>
      <trkpt lat="43.06706" lon="0.23016">
        <ele>623.4</ele>
        <time>2026-08-30T10:30:52Z</time>
      </trkpt>
      <trkpt lat="43.06707" lon="0.23016">
        <ele>623.38</ele>
        <time>2026-08-30T10:30:53Z</time>
      </trkpt>
      <trkpt lat="43.06717" lon="0.2301">
        <ele>625.26</ele>
        <time>2026-08-30T10:30:58Z</time>
      </trkpt>
      <trkpt lat="43.06719" lon="0.23008">
        <ele>625.24</ele>
        <time>2026-08-30T10:30:59Z</time>
      </trkpt>
      <trkpt lat="43.06721" lon="0.23006">
        <ele>626.34</ele>
        <time>2026-08-30T10:31:00Z</time>
      </trkpt>
      <trkpt lat="43.06723" lon="0.23004">
        <ele>626.39</ele>
        <time>2026-08-30T10:31:01Z</time>
      </trkpt>
      <trkpt lat="43.06725" lon="0.23001">
        <ele>626.37</ele>
        <time>2026-08-30T10:31:02Z</time>
      </trkpt>
      <trkpt lat="43.06727" lon="0.22999">
        <ele>627.47</ele>
        <time>2026-08-30T10:31:03Z</time>
      </trkpt>
      <trkpt lat="43.06728" lon="0.22997">
        <ele>627.45</ele>
        <time>2026-08-30T10:31:04Z</time>
      </trkpt>
      <trkpt lat="43.0673" lon="0.22994">
        <ele>627.44</ele>
        <time>2026-08-30T10:31:05Z</time>
      </trkpt>
      <trkpt lat="43.06731" lon="0.22991">
        <ele>628.37</ele>
        <time>2026-08-30T10:31:06Z</time>
      </trkpt>
      <trkpt lat="43.06733" lon="0.22988">
        <ele>628.38</ele>
        <time>2026-08-30T10:31:07Z</time>
      </trkpt>
      <trkpt lat="43.06744" lon="0.22959">
        <ele>632.01</ele>
        <time>2026-08-30T10:31:18Z</time>
      </trkpt>
      <trkpt lat="43.06759" lon="0.22919">
        <ele>635.76</ele>
        <time>2026-08-30T10:31:32Z</time>
      </trkpt>
      <trkpt lat="43.06777" lon="0.22876">
        <ele>638.69</ele>
        <time>2026-08-30T10:31:47Z</time>
      </trkpt>
      <trkpt lat="43.06795" lon="0.22839">
        <ele>641.84</ele>
        <time>2026-08-30T10:32:00Z</time>
      </trkpt>
      <trkpt lat="43.06818" lon="0.22783">
        <ele>641.83</ele>
        <time>2026-08-30T10:32:10Z</time>
      </trkpt>
      <trkpt lat="43.0683" lon="0.2275">
        <ele>641.85</ele>
        <time>2026-08-30T10:32:16Z</time>
      </trkpt>
      <trkpt lat="43.0685" lon="0.22699">
        <ele>643.88</ele>
        <time>2026-08-30T10:32:28Z</time>
      </trkpt>
      <trkpt lat="43.06852" lon="0.2269">
        <ele>645.32</ele>
        <time>2026-08-30T10:32:30Z</time>
      </trkpt>
      <trkpt lat="43.06866" lon="0.22648">
        <ele>648.18</ele>
        <time>2026-08-30T10:32:40Z</time>
      </trkpt>
      <trkpt lat="43.0688" lon="0.22581">
        <ele>650.59</ele>
        <time>2026-08-30T10:32:54Z</time>
      </trkpt>
      <trkpt lat="43.06867" lon="0.22509">
        <ele>649.22</ele>
        <time>2026-08-30T10:33:08Z</time>
      </trkpt>
      <trkpt lat="43.06866" lon="0.22503">
        <ele>649.22</ele>
        <time>2026-08-30T10:33:09Z</time>
      </trkpt>
      <trkpt lat="43.06857" lon="0.2245">
        <ele>647.18</ele>
        <time>2026-08-30T10:33:19Z</time>
      </trkpt>
      <trkpt lat="43.06854" lon="0.22428">
        <ele>646.43</ele>
        <time>2026-08-30T10:33:23Z</time>
      </trkpt>
      <trkpt lat="43.0685" lon="0.22351">
        <ele>643.43</ele>
        <time>2026-08-30T10:33:34Z</time>
      </trkpt>
      <trkpt lat="43.06847" lon="0.22313">
        <ele>641.72</ele>
        <time>2026-08-30T10:33:38Z</time>
      </trkpt>
      <trkpt lat="43.06845" lon="0.22294">
        <ele>640.63</ele>
        <time>2026-08-30T10:33:40Z</time>
      </trkpt>
      <trkpt lat="43.06841" lon="0.22263">
        <ele>637.09</ele>
        <time>2026-08-30T10:33:43Z</time>
      </trkpt>
      <trkpt lat="43.06838" lon="0.22239">
        <ele>636.11</ele>
        <time>2026-08-30T10:33:45Z</time>
      </trkpt>
      <trkpt lat="43.06834" lon="0.22203">
        <ele>632.69</ele>
        <time>2026-08-30T10:33:48Z</time>
      </trkpt>
      <trkpt lat="43.0683" lon="0.22166">
        <ele>629.64</ele>
        <time>2026-08-30T10:33:51Z</time>
      </trkpt>
      <trkpt lat="43.06827" lon="0.22125">
        <ele>626.62</ele>
        <time>2026-08-30T10:33:54Z</time>
      </trkpt>
      <trkpt lat="43.06824" lon="0.22098">
        <ele>625.39</ele>
        <time>2026-08-30T10:33:56Z</time>
      </trkpt>
      <trkpt lat="43.06822" lon="0.22074">
        <ele>622.3</ele>
        <time>2026-08-30T10:33:58Z</time>
      </trkpt>
      <trkpt lat="43.06822" lon="0.22062">
        <ele>622.31</ele>
        <time>2026-08-30T10:33:59Z</time>
      </trkpt>
      <trkpt lat="43.06822" lon="0.2205">
        <ele>620.94</ele>
        <time>2026-08-30T10:34:00Z</time>
      </trkpt>
      <trkpt lat="43.06822" lon="0.22038">
        <ele>619.94</ele>
        <time>2026-08-30T10:34:01Z</time>
      </trkpt>
      <trkpt lat="43.06822" lon="0.22017">
        <ele>617.89</ele>
        <time>2026-08-30T10:34:03Z</time>
      </trkpt>
      <trkpt lat="43.06821" lon="0.22007">
        <ele>617.15</ele>
        <time>2026-08-30T10:34:04Z</time>
      </trkpt>
      <trkpt lat="43.0682" lon="0.21991">
        <ele>616.2</ele>
        <time>2026-08-30T10:34:06Z</time>
      </trkpt>
      <trkpt lat="43.06818" lon="0.21983">
        <ele>614.41</ele>
        <time>2026-08-30T10:34:07Z</time>
      </trkpt>
      <trkpt lat="43.06818" lon="0.21976">
        <ele>614.41</ele>
        <time>2026-08-30T10:34:08Z</time>
      </trkpt>
      <trkpt lat="43.0682" lon="0.21969">
        <ele>612.89</ele>
        <time>2026-08-30T10:34:09Z</time>
      </trkpt>
      <trkpt lat="43.06824" lon="0.21964">
        <ele>612.91</ele>
        <time>2026-08-30T10:34:10Z</time>
      </trkpt>
      <trkpt lat="43.06829" lon="0.2196">
        <ele>611.77</ele>
        <time>2026-08-30T10:34:11Z</time>
      </trkpt>
      <trkpt lat="43.06835" lon="0.21958">
        <ele>611.17</ele>
        <time>2026-08-30T10:34:12Z</time>
      </trkpt>
      <trkpt lat="43.06841" lon="0.21957">
        <ele>609.92</ele>
        <time>2026-08-30T10:34:13Z</time>
      </trkpt>
      <trkpt lat="43.06846" lon="0.21957">
        <ele>610.15</ele>
        <time>2026-08-30T10:34:14Z</time>
      </trkpt>
      <trkpt lat="43.0685" lon="0.21956">
        <ele>610.02</ele>
        <time>2026-08-30T10:34:15Z</time>
      </trkpt>
      <trkpt lat="43.06856" lon="0.21955">
        <ele>608.9</ele>
        <time>2026-08-30T10:34:16Z</time>
      </trkpt>
      <trkpt lat="43.06863" lon="0.21955">
        <ele>609.06</ele>
        <time>2026-08-30T10:34:17Z</time>
      </trkpt>
      <trkpt lat="43.0687" lon="0.21954">
        <ele>607.95</ele>
        <time>2026-08-30T10:34:18Z</time>
      </trkpt>
      <trkpt lat="43.0688" lon="0.21949">
        <ele>606.07</ele>
        <time>2026-08-30T10:34:20Z</time>
      </trkpt>
      <trkpt lat="43.06885" lon="0.21944">
        <ele>605.86</ele>
        <time>2026-08-30T10:34:21Z</time>
      </trkpt>
      <trkpt lat="43.06888" lon="0.21937">
        <ele>604.79</ele>
        <time>2026-08-30T10:34:22Z</time>
      </trkpt>
      <trkpt lat="43.06891" lon="0.21931">
        <ele>603.94</ele>
        <time>2026-08-30T10:34:23Z</time>
      </trkpt>
      <trkpt lat="43.06894" lon="0.21925">
        <ele>603</ele>
        <time>2026-08-30T10:34:24Z</time>
      </trkpt>
      <trkpt lat="43.06895" lon="0.2192">
        <ele>602.84</ele>
        <time>2026-08-30T10:34:25Z</time>
      </trkpt>
      <trkpt lat="43.06895" lon="0.21908">
        <ele>601.82</ele>
        <time>2026-08-30T10:34:27Z</time>
      </trkpt>
      <trkpt lat="43.06894" lon="0.21901">
        <ele>600.69</ele>
        <time>2026-08-30T10:34:28Z</time>
      </trkpt>
      <trkpt lat="43.06891" lon="0.21882">
        <ele>598.46</ele>
        <time>2026-08-30T10:34:31Z</time>
      </trkpt>
      <trkpt lat="43.06892" lon="0.21875">
        <ele>598.56</ele>
        <time>2026-08-30T10:34:32Z</time>
      </trkpt>
      <trkpt lat="43.06894" lon="0.2187">
        <ele>598.56</ele>
        <time>2026-08-30T10:34:33Z</time>
      </trkpt>
      <trkpt lat="43.06898" lon="0.21867">
        <ele>596.93</ele>
        <time>2026-08-30T10:34:34Z</time>
      </trkpt>
      <trkpt lat="43.06902" lon="0.21866">
        <ele>596.35</ele>
        <time>2026-08-30T10:34:35Z</time>
      </trkpt>
      <trkpt lat="43.06906" lon="0.21865">
        <ele>596.35</ele>
        <time>2026-08-30T10:34:36Z</time>
      </trkpt>
      <trkpt lat="43.06928" lon="0.21867">
        <ele>595.43</ele>
        <time>2026-08-30T10:34:43Z</time>
      </trkpt>
      <trkpt lat="43.06946" lon="0.21871">
        <ele>595.47</ele>
        <time>2026-08-30T10:34:47Z</time>
      </trkpt>
      <trkpt lat="43.06954" lon="0.21871">
        <ele>595.49</ele>
        <time>2026-08-30T10:34:49Z</time>
      </trkpt>
      <trkpt lat="43.06958" lon="0.2187">
        <ele>595.5</ele>
        <time>2026-08-30T10:34:50Z</time>
      </trkpt>
      <trkpt lat="43.06962" lon="0.21869">
        <ele>595.51</ele>
        <time>2026-08-30T10:34:51Z</time>
      </trkpt>
      <trkpt lat="43.06966" lon="0.21867">
        <ele>595.51</ele>
        <time>2026-08-30T10:34:52Z</time>
      </trkpt>
      <trkpt lat="43.0697" lon="0.21864">
        <ele>595.51</ele>
        <time>2026-08-30T10:34:53Z</time>
      </trkpt>
      <trkpt lat="43.06974" lon="0.2186">
        <ele>595.51</ele>
        <time>2026-08-30T10:34:54Z</time>
      </trkpt>
      <trkpt lat="43.06978" lon="0.21855">
        <ele>595.51</ele>
        <time>2026-08-30T10:34:55Z</time>
      </trkpt>
      <trkpt lat="43.06985" lon="0.21845">
        <ele>595.5</ele>
        <time>2026-08-30T10:34:57Z</time>
      </trkpt>
      <trkpt lat="43.06987" lon="0.21839">
        <ele>595.51</ele>
        <time>2026-08-30T10:34:58Z</time>
      </trkpt>
      <trkpt lat="43.06991" lon="0.21829">
        <ele>595.5</ele>
        <time>2026-08-30T10:35:00Z</time>
      </trkpt>
      <trkpt lat="43.07004" lon="0.2179">
        <ele>597.78</ele>
        <time>2026-08-30T10:35:07Z</time>
      </trkpt>
      <trkpt lat="43.07023" lon="0.21738">
        <ele>598.58</ele>
        <time>2026-08-30T10:35:16Z</time>
      </trkpt>
      <trkpt lat="43.07028" lon="0.21721">
        <ele>598.57</ele>
        <time>2026-08-30T10:35:19Z</time>
      </trkpt>
      <trkpt lat="43.07031" lon="0.21704">
        <ele>599.62</ele>
        <time>2026-08-30T10:35:22Z</time>
      </trkpt>
      <trkpt lat="43.07031" lon="0.21697">
        <ele>599.6</ele>
        <time>2026-08-30T10:35:23Z</time>
      </trkpt>
      <trkpt lat="43.07031" lon="0.21692">
        <ele>599.62</ele>
        <time>2026-08-30T10:35:24Z</time>
      </trkpt>
      <trkpt lat="43.07031" lon="0.21675">
        <ele>599.62</ele>
        <time>2026-08-30T10:35:27Z</time>
      </trkpt>
      <trkpt lat="43.07032" lon="0.21669">
        <ele>599.61</ele>
        <time>2026-08-30T10:35:28Z</time>
      </trkpt>
      <trkpt lat="43.07034" lon="0.21664">
        <ele>599.61</ele>
        <time>2026-08-30T10:35:29Z</time>
      </trkpt>
      <trkpt lat="43.07037" lon="0.2166">
        <ele>599.61</ele>
        <time>2026-08-30T10:35:30Z</time>
      </trkpt>
      <trkpt lat="43.07041" lon="0.21658">
        <ele>599.65</ele>
        <time>2026-08-30T10:35:31Z</time>
      </trkpt>
      <trkpt lat="43.07045" lon="0.21659">
        <ele>599.62</ele>
        <time>2026-08-30T10:35:32Z</time>
      </trkpt>
      <trkpt lat="43.07047" lon="0.21661">
        <ele>599.61</ele>
        <time>2026-08-30T10:35:33Z</time>
      </trkpt>
      <trkpt lat="43.0705" lon="0.21665">
        <ele>599.62</ele>
        <time>2026-08-30T10:35:34Z</time>
      </trkpt>
      <trkpt lat="43.07054" lon="0.21668">
        <ele>600.43</ele>
        <time>2026-08-30T10:35:35Z</time>
      </trkpt>
      <trkpt lat="43.07086" lon="0.21705">
        <ele>601.53</ele>
        <time>2026-08-30T10:35:45Z</time>
      </trkpt>
      <trkpt lat="43.07088" lon="0.2171">
        <ele>601.54</ele>
        <time>2026-08-30T10:35:46Z</time>
      </trkpt>
      <trkpt lat="43.07098" lon="0.21735">
        <ele>601.53</ele>
        <time>2026-08-30T10:35:51Z</time>
      </trkpt>
      <trkpt lat="43.07119" lon="0.21804">
        <ele>603.44</ele>
        <time>2026-08-30T10:36:05Z</time>
      </trkpt>
      <trkpt lat="43.07151" lon="0.21803">
        <ele>604.23</ele>
        <time>2026-08-30T10:36:14Z</time>
      </trkpt>
      <trkpt lat="43.07182" lon="0.21828">
        <ele>605.4</ele>
        <time>2026-08-30T10:36:24Z</time>
      </trkpt>
      <trkpt lat="43.07206" lon="0.21815">
        <ele>606.38</ele>
        <time>2026-08-30T10:36:32Z</time>
      </trkpt>
      <trkpt lat="43.07229" lon="0.21735">
        <ele>607.56</ele>
        <time>2026-08-30T10:36:48Z</time>
      </trkpt>
      <trkpt lat="43.07256" lon="0.21615">
        <ele>608.4</ele>
        <time>2026-08-30T10:37:10Z</time>
      </trkpt>
      <trkpt lat="43.0728" lon="0.21511">
        <ele>609.65</ele>
        <time>2026-08-30T10:37:29Z</time>
      </trkpt>
      <trkpt lat="43.0729" lon="0.21455">
        <ele>610.71</ele>
        <time>2026-08-30T10:37:39Z</time>
      </trkpt>
      <trkpt lat="43.073" lon="0.21422">
        <ele>611.69</ele>
        <time>2026-08-30T10:37:45Z</time>
      </trkpt>
      <trkpt lat="43.07303" lon="0.21417">
        <ele>611.7</ele>
        <time>2026-08-30T10:37:46Z</time>
      </trkpt>
      <trkpt lat="43.07318" lon="0.21396">
        <ele>611.7</ele>
        <time>2026-08-30T10:37:51Z</time>
      </trkpt>
      <trkpt lat="43.07322" lon="0.21393">
        <ele>611.69</ele>
        <time>2026-08-30T10:37:52Z</time>
      </trkpt>
      <trkpt lat="43.07327" lon="0.2139">
        <ele>611.68</ele>
        <time>2026-08-30T10:37:53Z</time>
      </trkpt>
      <trkpt lat="43.07333" lon="0.21387">
        <ele>611.68</ele>
        <time>2026-08-30T10:37:54Z</time>
      </trkpt>
      <trkpt lat="43.0734" lon="0.21386">
        <ele>611.68</ele>
        <time>2026-08-30T10:37:55Z</time>
      </trkpt>
      <trkpt lat="43.07347" lon="0.21386">
        <ele>611.68</ele>
        <time>2026-08-30T10:37:56Z</time>
      </trkpt>
      <trkpt lat="43.07355" lon="0.21386">
        <ele>611.67</ele>
        <time>2026-08-30T10:37:57Z</time>
      </trkpt>
      <trkpt lat="43.07398" lon="0.21385">
        <ele>609.35</ele>
        <time>2026-08-30T10:38:03Z</time>
      </trkpt>
      <trkpt lat="43.07451" lon="0.21369">
        <ele>609.39</ele>
        <time>2026-08-30T10:38:14Z</time>
      </trkpt>
      <trkpt lat="43.07478" lon="0.21362">
        <ele>611.71</ele>
        <time>2026-08-30T10:38:21Z</time>
      </trkpt>
      <trkpt lat="43.07547" lon="0.21357">
        <ele>612.73</ele>
        <time>2026-08-30T10:38:39Z</time>
      </trkpt>
      <trkpt lat="43.07595" lon="0.2136">
        <ele>614.33</ele>
        <time>2026-08-30T10:38:50Z</time>
      </trkpt>
      <trkpt lat="43.07613" lon="0.21366">
        <ele>611.84</ele>
        <time>2026-08-30T10:38:53Z</time>
      </trkpt>
      <trkpt lat="43.07634" lon="0.21371">
        <ele>610.23</ele>
        <time>2026-08-30T10:38:56Z</time>
      </trkpt>
      <trkpt lat="43.07642" lon="0.21371">
        <ele>609.61</ele>
        <time>2026-08-30T10:38:57Z</time>
      </trkpt>
      <trkpt lat="43.07658" lon="0.21369">
        <ele>609.59</ele>
        <time>2026-08-30T10:38:59Z</time>
      </trkpt>
      <trkpt lat="43.07667" lon="0.21365">
        <ele>608.48</ele>
        <time>2026-08-30T10:39:00Z</time>
      </trkpt>
      <trkpt lat="43.07692" lon="0.21352">
        <ele>606.93</ele>
        <time>2026-08-30T10:39:03Z</time>
      </trkpt>
      <trkpt lat="43.07711" lon="0.21344">
        <ele>605.91</ele>
        <time>2026-08-30T10:39:06Z</time>
      </trkpt>
      <trkpt lat="43.07714" lon="0.21344">
        <ele>604.86</ele>
        <time>2026-08-30T10:39:07Z</time>
      </trkpt>
      <trkpt lat="43.07717" lon="0.21343">
        <ele>604.86</ele>
        <time>2026-08-30T10:39:08Z</time>
      </trkpt>
      <trkpt lat="43.07719" lon="0.21342">
        <ele>603.89</ele>
        <time>2026-08-30T10:39:09Z</time>
      </trkpt>
      <trkpt lat="43.0772" lon="0.21341">
        <ele>603.94</ele>
        <time>2026-08-30T10:39:10Z</time>
      </trkpt>
      <trkpt lat="43.07723" lon="0.2134">
        <ele>603.2</ele>
        <time>2026-08-30T10:39:24Z</time>
      </trkpt>
      <trkpt lat="43.07727" lon="0.21339">
        <ele>603.25</ele>
        <time>2026-08-30T10:39:36Z</time>
      </trkpt>
      <trkpt lat="43.07729" lon="0.21339">
        <ele>603.25</ele>
        <time>2026-08-30T10:39:37Z</time>
      </trkpt>
      <trkpt lat="43.07731" lon="0.21341">
        <ele>603.26</ele>
        <time>2026-08-30T10:39:38Z</time>
      </trkpt>
      <trkpt lat="43.07747" lon="0.21353">
        <ele>602.33</ele>
        <time>2026-08-30T10:39:42Z</time>
      </trkpt>
      <trkpt lat="43.07756" lon="0.21363">
        <ele>600.59</ele>
        <time>2026-08-30T10:39:44Z</time>
      </trkpt>
      <trkpt lat="43.0776" lon="0.21367">
        <ele>599.79</ele>
        <time>2026-08-30T10:39:45Z</time>
      </trkpt>
      <trkpt lat="43.07764" lon="0.21369">
        <ele>599.79</ele>
        <time>2026-08-30T10:39:46Z</time>
      </trkpt>
      <trkpt lat="43.07779" lon="0.21376">
        <ele>598.64</ele>
        <time>2026-08-30T10:39:50Z</time>
      </trkpt>
      <trkpt lat="43.07783" lon="0.21376">
        <ele>597.84</ele>
        <time>2026-08-30T10:39:51Z</time>
      </trkpt>
      <trkpt lat="43.07801" lon="0.21376">
        <ele>596.97</ele>
        <time>2026-08-30T10:39:56Z</time>
      </trkpt>
      <trkpt lat="43.07802" lon="0.21378">
        <ele>595.91</ele>
        <time>2026-08-30T10:39:57Z</time>
      </trkpt>
      <trkpt lat="43.07802" lon="0.21381">
        <ele>595.87</ele>
        <time>2026-08-30T10:39:58Z</time>
      </trkpt>
      <trkpt lat="43.07802" lon="0.21384">
        <ele>595.92</ele>
        <time>2026-08-30T10:39:59Z</time>
      </trkpt>
      <trkpt lat="43.07801" lon="0.21387">
        <ele>595.92</ele>
        <time>2026-08-30T10:40:00Z</time>
      </trkpt>
      <trkpt lat="43.07799" lon="0.2139">
        <ele>595.89</ele>
        <time>2026-08-30T10:40:01Z</time>
      </trkpt>
      <trkpt lat="43.07799" lon="0.21394">
        <ele>595.9</ele>
        <time>2026-08-30T10:40:02Z</time>
      </trkpt>
      <trkpt lat="43.07798" lon="0.21398">
        <ele>595.93</ele>
        <time>2026-08-30T10:40:03Z</time>
      </trkpt>
      <trkpt lat="43.07793" lon="0.21445">
        <ele>595.97</ele>
        <time>2026-08-30T10:40:16Z</time>
      </trkpt>
      <trkpt lat="43.07787" lon="0.21503">
        <ele>595.97</ele>
        <time>2026-08-30T10:40:28Z</time>
      </trkpt>
      <trkpt lat="43.07785" lon="0.21555">
        <ele>594.74</ele>
        <time>2026-08-30T10:40:39Z</time>
      </trkpt>
      <trkpt lat="43.07785" lon="0.21578">
        <ele>593.83</ele>
        <time>2026-08-30T10:40:47Z</time>
      </trkpt>
      <trkpt lat="43.07785" lon="0.216">
        <ele>592.89</ele>
        <time>2026-08-30T10:41:01Z</time>
      </trkpt>
      <trkpt lat="43.07785" lon="0.21607">
        <ele>592.9</ele>
        <time>2026-08-30T10:41:02Z</time>
      </trkpt>
      <trkpt lat="43.07784" lon="0.21675">
        <ele>589.94</ele>
        <time>2026-08-30T10:41:11Z</time>
      </trkpt>
      <trkpt lat="43.07786" lon="0.21682">
        <ele>589.94</ele>
        <time>2026-08-30T10:41:12Z</time>
      </trkpt>
      <trkpt lat="43.07789" lon="0.21689">
        <ele>589.05</ele>
        <time>2026-08-30T10:41:13Z</time>
      </trkpt>
      <trkpt lat="43.07793" lon="0.21694">
        <ele>589.09</ele>
        <time>2026-08-30T10:41:14Z</time>
      </trkpt>
      <trkpt lat="43.07799" lon="0.21698">
        <ele>588.75</ele>
        <time>2026-08-30T10:41:15Z</time>
      </trkpt>
      <trkpt lat="43.07804" lon="0.21698">
        <ele>587.29</ele>
        <time>2026-08-30T10:41:16Z</time>
      </trkpt>
      <trkpt lat="43.0781" lon="0.21698">
        <ele>586.4</ele>
        <time>2026-08-30T10:41:17Z</time>
      </trkpt>
      <trkpt lat="43.07816" lon="0.21695">
        <ele>586.43</ele>
        <time>2026-08-30T10:41:18Z</time>
      </trkpt>
      <trkpt lat="43.07822" lon="0.21691">
        <ele>585.35</ele>
        <time>2026-08-30T10:41:19Z</time>
      </trkpt>
      <trkpt lat="43.07827" lon="0.21686">
        <ele>584.99</ele>
        <time>2026-08-30T10:41:20Z</time>
      </trkpt>
      <trkpt lat="43.07833" lon="0.21681">
        <ele>584.23</ele>
        <time>2026-08-30T10:41:21Z</time>
      </trkpt>
      <trkpt lat="43.07837" lon="0.21675">
        <ele>584.23</ele>
        <time>2026-08-30T10:41:22Z</time>
      </trkpt>
      <trkpt lat="43.0784" lon="0.21667">
        <ele>582.94</ele>
        <time>2026-08-30T10:41:23Z</time>
      </trkpt>
      <trkpt lat="43.07842" lon="0.21659">
        <ele>582.94</ele>
        <time>2026-08-30T10:41:24Z</time>
      </trkpt>
      <trkpt lat="43.07842" lon="0.2165">
        <ele>581.67</ele>
        <time>2026-08-30T10:41:25Z</time>
      </trkpt>
      <trkpt lat="43.0784" lon="0.21641">
        <ele>580.39</ele>
        <time>2026-08-30T10:41:26Z</time>
      </trkpt>
      <trkpt lat="43.07839" lon="0.21633">
        <ele>579.48</ele>
        <time>2026-08-30T10:41:27Z</time>
      </trkpt>
      <trkpt lat="43.07837" lon="0.21625">
        <ele>579.54</ele>
        <time>2026-08-30T10:41:28Z</time>
      </trkpt>
      <trkpt lat="43.07838" lon="0.21618">
        <ele>578.44</ele>
        <time>2026-08-30T10:41:29Z</time>
      </trkpt>
      <trkpt lat="43.07841" lon="0.21613">
        <ele>578.44</ele>
        <time>2026-08-30T10:41:30Z</time>
      </trkpt>
      <trkpt lat="43.07845" lon="0.21611">
        <ele>577.05</ele>
        <time>2026-08-30T10:41:31Z</time>
      </trkpt>
      <trkpt lat="43.0785" lon="0.21611">
        <ele>577.11</ele>
        <time>2026-08-30T10:41:32Z</time>
      </trkpt>
      <trkpt lat="43.07855" lon="0.21612">
        <ele>575.67</ele>
        <time>2026-08-30T10:41:33Z</time>
      </trkpt>
      <trkpt lat="43.0786" lon="0.21614">
        <ele>574.7</ele>
        <time>2026-08-30T10:41:34Z</time>
      </trkpt>
      <trkpt lat="43.07865" lon="0.21617">
        <ele>574.71</ele>
        <time>2026-08-30T10:41:35Z</time>
      </trkpt>
      <trkpt lat="43.07875" lon="0.21622">
        <ele>573.23</ele>
        <time>2026-08-30T10:41:37Z</time>
      </trkpt>
      <trkpt lat="43.07887" lon="0.21628">
        <ele>571.93</ele>
        <time>2026-08-30T10:41:39Z</time>
      </trkpt>
      <trkpt lat="43.079" lon="0.21635">
        <ele>569.91</ele>
        <time>2026-08-30T10:41:41Z</time>
      </trkpt>
      <trkpt lat="43.07906" lon="0.21641">
        <ele>569.91</ele>
        <time>2026-08-30T10:41:42Z</time>
      </trkpt>
      <trkpt lat="43.07912" lon="0.21647">
        <ele>568.73</ele>
        <time>2026-08-30T10:41:43Z</time>
      </trkpt>
      <trkpt lat="43.07917" lon="0.21655">
        <ele>568.81</ele>
        <time>2026-08-30T10:41:44Z</time>
      </trkpt>
      <trkpt lat="43.07922" lon="0.21663">
        <ele>568.03</ele>
        <time>2026-08-30T10:41:45Z</time>
      </trkpt>
      <trkpt lat="43.07926" lon="0.21672">
        <ele>566.78</ele>
        <time>2026-08-30T10:41:46Z</time>
      </trkpt>
      <trkpt lat="43.07931" lon="0.2168">
        <ele>566.78</ele>
        <time>2026-08-30T10:41:47Z</time>
      </trkpt>
      <trkpt lat="43.07935" lon="0.21689">
        <ele>565.53</ele>
        <time>2026-08-30T10:41:48Z</time>
      </trkpt>
      <trkpt lat="43.07939" lon="0.21697">
        <ele>565.46</ele>
        <time>2026-08-30T10:41:49Z</time>
      </trkpt>
      <trkpt lat="43.07941" lon="0.21705">
        <ele>563.93</ele>
        <time>2026-08-30T10:41:50Z</time>
      </trkpt>
      <trkpt lat="43.07943" lon="0.21715">
        <ele>563.93</ele>
        <time>2026-08-30T10:41:51Z</time>
      </trkpt>
      <trkpt lat="43.07946" lon="0.21726">
        <ele>562.85</ele>
        <time>2026-08-30T10:41:52Z</time>
      </trkpt>
      <trkpt lat="43.07947" lon="0.21737">
        <ele>562.03</ele>
        <time>2026-08-30T10:41:53Z</time>
      </trkpt>
      <trkpt lat="43.07948" lon="0.21748">
        <ele>560.88</ele>
        <time>2026-08-30T10:41:54Z</time>
      </trkpt>
      <trkpt lat="43.07949" lon="0.21759">
        <ele>560.12</ele>
        <time>2026-08-30T10:41:55Z</time>
      </trkpt>
      <trkpt lat="43.07949" lon="0.21771">
        <ele>560.12</ele>
        <time>2026-08-30T10:41:56Z</time>
      </trkpt>
      <trkpt lat="43.07951" lon="0.21795">
        <ele>558.63</ele>
        <time>2026-08-30T10:41:58Z</time>
      </trkpt>
      <trkpt lat="43.07951" lon="0.2183">
        <ele>555.11</ele>
        <time>2026-08-30T10:42:01Z</time>
      </trkpt>
      <trkpt lat="43.0795" lon="0.21861">
        <ele>551.98</ele>
        <time>2026-08-30T10:42:04Z</time>
      </trkpt>
      <trkpt lat="43.07949" lon="0.21871">
        <ele>550.76</ele>
        <time>2026-08-30T10:42:05Z</time>
      </trkpt>
      <trkpt lat="43.07946" lon="0.21881">
        <ele>550.76</ele>
        <time>2026-08-30T10:42:06Z</time>
      </trkpt>
      <trkpt lat="43.07943" lon="0.2189">
        <ele>549.38</ele>
        <time>2026-08-30T10:42:07Z</time>
      </trkpt>
      <trkpt lat="43.07939" lon="0.21899">
        <ele>548.6</ele>
        <time>2026-08-30T10:42:08Z</time>
      </trkpt>
      <trkpt lat="43.07934" lon="0.21907">
        <ele>548.6</ele>
        <time>2026-08-30T10:42:09Z</time>
      </trkpt>
      <trkpt lat="43.07927" lon="0.21921">
        <ele>547.16</ele>
        <time>2026-08-30T10:42:11Z</time>
      </trkpt>
      <trkpt lat="43.07924" lon="0.21929">
        <ele>545.76</ele>
        <time>2026-08-30T10:42:12Z</time>
      </trkpt>
      <trkpt lat="43.07924" lon="0.21937">
        <ele>545.68</ele>
        <time>2026-08-30T10:42:13Z</time>
      </trkpt>
      <trkpt lat="43.07925" lon="0.21945">
        <ele>544.96</ele>
        <time>2026-08-30T10:42:14Z</time>
      </trkpt>
      <trkpt lat="43.07929" lon="0.21953">
        <ele>543.19</ele>
        <time>2026-08-30T10:42:15Z</time>
      </trkpt>
      <trkpt lat="43.07934" lon="0.21959">
        <ele>542.38</ele>
        <time>2026-08-30T10:42:16Z</time>
      </trkpt>
      <trkpt lat="43.0794" lon="0.21965">
        <ele>542.37</ele>
        <time>2026-08-30T10:42:17Z</time>
      </trkpt>
      <trkpt lat="43.07946" lon="0.21969">
        <ele>541.52</ele>
        <time>2026-08-30T10:42:18Z</time>
      </trkpt>
      <trkpt lat="43.07952" lon="0.21973">
        <ele>540.42</ele>
        <time>2026-08-30T10:42:19Z</time>
      </trkpt>
      <trkpt lat="43.07959" lon="0.21976">
        <ele>540.33</ele>
        <time>2026-08-30T10:42:20Z</time>
      </trkpt>
      <trkpt lat="43.07972" lon="0.21984">
        <ele>538.79</ele>
        <time>2026-08-30T10:42:22Z</time>
      </trkpt>
      <trkpt lat="43.07998" lon="0.21995">
        <ele>537.93</ele>
        <time>2026-08-30T10:42:26Z</time>
      </trkpt>
      <trkpt lat="43.08004" lon="0.21996">
        <ele>536.56</ele>
        <time>2026-08-30T10:42:27Z</time>
      </trkpt>
      <trkpt lat="43.0801" lon="0.21996">
        <ele>536.57</ele>
        <time>2026-08-30T10:42:28Z</time>
      </trkpt>
      <trkpt lat="43.08085" lon="0.21995">
        <ele>534.65</ele>
        <time>2026-08-30T10:42:42Z</time>
      </trkpt>
      <trkpt lat="43.0809" lon="0.21997">
        <ele>533.96</ele>
        <time>2026-08-30T10:42:43Z</time>
      </trkpt>
      <trkpt lat="43.08096" lon="0.21999">
        <ele>533.74</ele>
        <time>2026-08-30T10:42:44Z</time>
      </trkpt>
      <trkpt lat="43.08136" lon="0.22022">
        <ele>530.39</ele>
        <time>2026-08-30T10:42:50Z</time>
      </trkpt>
      <trkpt lat="43.08141" lon="0.22027">
        <ele>529.44</ele>
        <time>2026-08-30T10:42:51Z</time>
      </trkpt>
      <trkpt lat="43.08146" lon="0.22034">
        <ele>529.48</ele>
        <time>2026-08-30T10:42:52Z</time>
      </trkpt>
      <trkpt lat="43.08151" lon="0.22042">
        <ele>528.55</ele>
        <time>2026-08-30T10:42:53Z</time>
      </trkpt>
      <trkpt lat="43.08154" lon="0.22051">
        <ele>528.6</ele>
        <time>2026-08-30T10:42:54Z</time>
      </trkpt>
      <trkpt lat="43.08157" lon="0.22061">
        <ele>526.94</ele>
        <time>2026-08-30T10:42:55Z</time>
      </trkpt>
      <trkpt lat="43.08159" lon="0.22069">
        <ele>526.99</ele>
        <time>2026-08-30T10:42:56Z</time>
      </trkpt>
      <trkpt lat="43.08162" lon="0.22084">
        <ele>525.68</ele>
        <time>2026-08-30T10:42:58Z</time>
      </trkpt>
      <trkpt lat="43.08165" lon="0.221">
        <ele>524.39</ele>
        <time>2026-08-30T10:43:00Z</time>
      </trkpt>
      <trkpt lat="43.08169" lon="0.22116">
        <ele>522.64</ele>
        <time>2026-08-30T10:43:02Z</time>
      </trkpt>
      <trkpt lat="43.0817" lon="0.22123">
        <ele>521.13</ele>
        <time>2026-08-30T10:43:03Z</time>
      </trkpt>
      <trkpt lat="43.08185" lon="0.22199">
        <ele>517.61</ele>
        <time>2026-08-30T10:43:11Z</time>
      </trkpt>
      <trkpt lat="43.08194" lon="0.22247">
        <ele>513.81</ele>
        <time>2026-08-30T10:43:15Z</time>
      </trkpt>
      <trkpt lat="43.08201" lon="0.22313">
        <ele>510.8</ele>
        <time>2026-08-30T10:43:20Z</time>
      </trkpt>
      <trkpt lat="43.08202" lon="0.22326">
        <ele>510.8</ele>
        <time>2026-08-30T10:43:21Z</time>
      </trkpt>
      <trkpt lat="43.08206" lon="0.2238">
        <ele>508.11</ele>
        <time>2026-08-30T10:43:25Z</time>
      </trkpt>
      <trkpt lat="43.08207" lon="0.22443">
        <ele>505.29</ele>
        <time>2026-08-30T10:43:30Z</time>
      </trkpt>
      <trkpt lat="43.08204" lon="0.22476">
        <ele>502.35</ele>
        <time>2026-08-30T10:43:33Z</time>
      </trkpt>
      <trkpt lat="43.08203" lon="0.22485">
        <ele>501.74</ele>
        <time>2026-08-30T10:43:34Z</time>
      </trkpt>
      <trkpt lat="43.08204" lon="0.22495">
        <ele>499.73</ele>
        <time>2026-08-30T10:43:35Z</time>
      </trkpt>
      <trkpt lat="43.08207" lon="0.22503">
        <ele>499.65</ele>
        <time>2026-08-30T10:43:36Z</time>
      </trkpt>
      <trkpt lat="43.08212" lon="0.22511">
        <ele>498.84</ele>
        <time>2026-08-30T10:43:37Z</time>
      </trkpt>
      <trkpt lat="43.08218" lon="0.22517">
        <ele>498.29</ele>
        <time>2026-08-30T10:43:38Z</time>
      </trkpt>
      <trkpt lat="43.08225" lon="0.22523">
        <ele>497.81</ele>
        <time>2026-08-30T10:43:39Z</time>
      </trkpt>
      <trkpt lat="43.08237" lon="0.22534">
        <ele>497.01</ele>
        <time>2026-08-30T10:43:41Z</time>
      </trkpt>
      <trkpt lat="43.08273" lon="0.2256">
        <ele>496.57</ele>
        <time>2026-08-30T10:43:47Z</time>
      </trkpt>
      <trkpt lat="43.08279" lon="0.22562">
        <ele>496.64</ele>
        <time>2026-08-30T10:43:48Z</time>
      </trkpt>
      <trkpt lat="43.08285" lon="0.22563">
        <ele>495.92</ele>
        <time>2026-08-30T10:43:49Z</time>
      </trkpt>
      <trkpt lat="43.08291" lon="0.22563">
        <ele>495.89</ele>
        <time>2026-08-30T10:43:50Z</time>
      </trkpt>
      <trkpt lat="43.08298" lon="0.22562">
        <ele>495.92</ele>
        <time>2026-08-30T10:43:51Z</time>
      </trkpt>
      <trkpt lat="43.08342" lon="0.22559">
        <ele>493.6</ele>
        <time>2026-08-30T10:43:57Z</time>
      </trkpt>
      <trkpt lat="43.08351" lon="0.22561">
        <ele>493.35</ele>
        <time>2026-08-30T10:43:58Z</time>
      </trkpt>
      <trkpt lat="43.08386" lon="0.22576">
        <ele>491.16</ele>
        <time>2026-08-30T10:44:02Z</time>
      </trkpt>
      <trkpt lat="43.08416" lon="0.22599">
        <ele>489.69</ele>
        <time>2026-08-30T10:44:06Z</time>
      </trkpt>
      <trkpt lat="43.08421" lon="0.22606">
        <ele>490.02</ele>
        <time>2026-08-30T10:44:07Z</time>
      </trkpt>
      <trkpt lat="43.08456" lon="0.22669">
        <ele>490.11</ele>
        <time>2026-08-30T10:44:18Z</time>
      </trkpt>
      <trkpt lat="43.08461" lon="0.22684">
        <ele>492.53</ele>
        <time>2026-08-30T10:44:21Z</time>
      </trkpt>
      <trkpt lat="43.08483" lon="0.22728">
        <ele>495.68</ele>
        <time>2026-08-30T10:44:34Z</time>
      </trkpt>
      <trkpt lat="43.08527" lon="0.22779">
        <ele>496.55</ele>
        <time>2026-08-30T10:44:48Z</time>
      </trkpt>
      <trkpt lat="43.08547" lon="0.22804">
        <ele>493.91</ele>
        <time>2026-08-30T10:44:52Z</time>
      </trkpt>
      <trkpt lat="43.08585" lon="0.22851">
        <ele>490.84</ele>
        <time>2026-08-30T10:45:00Z</time>
      </trkpt>
      <trkpt lat="43.08593" lon="0.22867">
        <ele>490.8</ele>
        <time>2026-08-30T10:45:02Z</time>
      </trkpt>
      <trkpt lat="43.08602" lon="0.22897">
        <ele>488.3</ele>
        <time>2026-08-30T10:45:05Z</time>
      </trkpt>
      <trkpt lat="43.08604" lon="0.22908">
        <ele>488.26</ele>
        <time>2026-08-30T10:45:06Z</time>
      </trkpt>
      <trkpt lat="43.08605" lon="0.2292">
        <ele>487.02</ele>
        <time>2026-08-30T10:45:07Z</time>
      </trkpt>
      <trkpt lat="43.08606" lon="0.22932">
        <ele>486.71</ele>
        <time>2026-08-30T10:45:08Z</time>
      </trkpt>
      <trkpt lat="43.08607" lon="0.22957">
        <ele>485.31</ele>
        <time>2026-08-30T10:45:10Z</time>
      </trkpt>
      <trkpt lat="43.08607" lon="0.23009">
        <ele>482.13</ele>
        <time>2026-08-30T10:45:14Z</time>
      </trkpt>
      <trkpt lat="43.08605" lon="0.23048">
        <ele>478.81</ele>
        <time>2026-08-30T10:45:17Z</time>
      </trkpt>
      <trkpt lat="43.08603" lon="0.23061">
        <ele>478.8</ele>
        <time>2026-08-30T10:45:18Z</time>
      </trkpt>
      <trkpt lat="43.08601" lon="0.23086">
        <ele>475.26</ele>
        <time>2026-08-30T10:45:20Z</time>
      </trkpt>
      <trkpt lat="43.08599" lon="0.23098">
        <ele>473.91</ele>
        <time>2026-08-30T10:45:21Z</time>
      </trkpt>
      <trkpt lat="43.08596" lon="0.23109">
        <ele>473.22</ele>
        <time>2026-08-30T10:45:22Z</time>
      </trkpt>
      <trkpt lat="43.08592" lon="0.23121">
        <ele>472.3</ele>
        <time>2026-08-30T10:45:23Z</time>
      </trkpt>
      <trkpt lat="43.08588" lon="0.23131">
        <ele>472.29</ele>
        <time>2026-08-30T10:45:24Z</time>
      </trkpt>
      <trkpt lat="43.08579" lon="0.23161">
        <ele>468.86</ele>
        <time>2026-08-30T10:45:27Z</time>
      </trkpt>
      <trkpt lat="43.0858" lon="0.23171">
        <ele>468.99</ele>
        <time>2026-08-30T10:45:28Z</time>
      </trkpt>
      <trkpt lat="43.08582" lon="0.23181">
        <ele>467.75</ele>
        <time>2026-08-30T10:45:29Z</time>
      </trkpt>
      <trkpt lat="43.08586" lon="0.2319">
        <ele>466.97</ele>
        <time>2026-08-30T10:45:30Z</time>
      </trkpt>
      <trkpt lat="43.08592" lon="0.23198">
        <ele>466.33</ele>
        <time>2026-08-30T10:45:31Z</time>
      </trkpt>
      <trkpt lat="43.08599" lon="0.23206">
        <ele>465.57</ele>
        <time>2026-08-30T10:45:32Z</time>
      </trkpt>
      <trkpt lat="43.08606" lon="0.23212">
        <ele>464.75</ele>
        <time>2026-08-30T10:45:33Z</time>
      </trkpt>
      <trkpt lat="43.08614" lon="0.23217">
        <ele>464.8</ele>
        <time>2026-08-30T10:45:34Z</time>
      </trkpt>
      <trkpt lat="43.08622" lon="0.23221">
        <ele>464.79</ele>
        <time>2026-08-30T10:45:35Z</time>
      </trkpt>
      <trkpt lat="43.0863" lon="0.23223">
        <ele>463.65</ele>
        <time>2026-08-30T10:45:36Z</time>
      </trkpt>
      <trkpt lat="43.08637" lon="0.23224">
        <ele>463.7</ele>
        <time>2026-08-30T10:45:37Z</time>
      </trkpt>
      <trkpt lat="43.08645" lon="0.23226">
        <ele>463.85</ele>
        <time>2026-08-30T10:45:38Z</time>
      </trkpt>
      <trkpt lat="43.08662" lon="0.23231">
        <ele>463.95</ele>
        <time>2026-08-30T10:45:41Z</time>
      </trkpt>
      <trkpt lat="43.08667" lon="0.23234">
        <ele>463.91</ele>
        <time>2026-08-30T10:45:42Z</time>
      </trkpt>
      <trkpt lat="43.08728" lon="0.23275">
        <ele>460.63</ele>
        <time>2026-08-30T10:45:51Z</time>
      </trkpt>
      <trkpt lat="43.08736" lon="0.23279">
        <ele>460.37</ele>
        <time>2026-08-30T10:45:52Z</time>
      </trkpt>
      <trkpt lat="43.08785" lon="0.23303">
        <ele>458.04</ele>
        <time>2026-08-30T10:45:58Z</time>
      </trkpt>
      <trkpt lat="43.08837" lon="0.23332">
        <ele>454.29</ele>
        <time>2026-08-30T10:46:04Z</time>
      </trkpt>
      <trkpt lat="43.08878" lon="0.23363">
        <ele>451.04</ele>
        <time>2026-08-30T10:46:11Z</time>
      </trkpt>
      <trkpt lat="43.08879" lon="0.23368">
        <ele>450.03</ele>
        <time>2026-08-30T10:46:12Z</time>
      </trkpt>
      <trkpt lat="43.08879" lon="0.23374">
        <ele>450.03</ele>
        <time>2026-08-30T10:46:13Z</time>
      </trkpt>
      <trkpt lat="43.08876" lon="0.2338">
        <ele>450.03</ele>
        <time>2026-08-30T10:46:14Z</time>
      </trkpt>
      <trkpt lat="43.08873" lon="0.23385">
        <ele>450.03</ele>
        <time>2026-08-30T10:46:15Z</time>
      </trkpt>
      <trkpt lat="43.08868" lon="0.23391">
        <ele>449.58</ele>
        <time>2026-08-30T10:46:16Z</time>
      </trkpt>
      <trkpt lat="43.08864" lon="0.23396">
        <ele>448.94</ele>
        <time>2026-08-30T10:46:17Z</time>
      </trkpt>
      <trkpt lat="43.08853" lon="0.23407">
        <ele>447.79</ele>
        <time>2026-08-30T10:46:19Z</time>
      </trkpt>
      <trkpt lat="43.08825" lon="0.23426">
        <ele>444.73</ele>
        <time>2026-08-30T10:46:23Z</time>
      </trkpt>
      <trkpt lat="43.08805" lon="0.23438">
        <ele>441.62</ele>
        <time>2026-08-30T10:46:26Z</time>
      </trkpt>
      <trkpt lat="43.088" lon="0.23443">
        <ele>441.1</ele>
        <time>2026-08-30T10:46:27Z</time>
      </trkpt>
      <trkpt lat="43.08797" lon="0.23449">
        <ele>440.87</ele>
        <time>2026-08-30T10:46:28Z</time>
      </trkpt>
      <trkpt lat="43.08797" lon="0.23456">
        <ele>440.27</ele>
        <time>2026-08-30T10:46:29Z</time>
      </trkpt>
      <trkpt lat="43.08798" lon="0.23464">
        <ele>439.82</ele>
        <time>2026-08-30T10:46:30Z</time>
      </trkpt>
      <trkpt lat="43.088" lon="0.2349">
        <ele>437.67</ele>
        <time>2026-08-30T10:46:33Z</time>
      </trkpt>
      <trkpt lat="43.08801" lon="0.23501">
        <ele>437.66</ele>
        <time>2026-08-30T10:46:34Z</time>
      </trkpt>
      <trkpt lat="43.08801" lon="0.23513">
        <ele>436.6</ele>
        <time>2026-08-30T10:46:35Z</time>
      </trkpt>
      <trkpt lat="43.08801" lon="0.23552">
        <ele>434.43</ele>
        <time>2026-08-30T10:46:38Z</time>
      </trkpt>
      <trkpt lat="43.088" lon="0.23579">
        <ele>433</ele>
        <time>2026-08-30T10:46:40Z</time>
      </trkpt>
      <trkpt lat="43.08797" lon="0.23605">
        <ele>429.19</ele>
        <time>2026-08-30T10:46:42Z</time>
      </trkpt>
      <trkpt lat="43.08794" lon="0.23617">
        <ele>427.88</ele>
        <time>2026-08-30T10:46:43Z</time>
      </trkpt>
      <trkpt lat="43.08791" lon="0.23629">
        <ele>427.21</ele>
        <time>2026-08-30T10:46:44Z</time>
      </trkpt>
      <trkpt lat="43.08787" lon="0.23641">
        <ele>426.23</ele>
        <time>2026-08-30T10:46:45Z</time>
      </trkpt>
      <trkpt lat="43.08782" lon="0.23653">
        <ele>425.16</ele>
        <time>2026-08-30T10:46:46Z</time>
      </trkpt>
      <trkpt lat="43.08776" lon="0.23664">
        <ele>424.3</ele>
        <time>2026-08-30T10:46:47Z</time>
      </trkpt>
      <trkpt lat="43.08771" lon="0.23675">
        <ele>422.92</ele>
        <time>2026-08-30T10:46:48Z</time>
      </trkpt>
      <trkpt lat="43.08757" lon="0.23709">
        <ele>421.55</ele>
        <time>2026-08-30T10:46:51Z</time>
      </trkpt>
      <trkpt lat="43.08745" lon="0.23732">
        <ele>420.43</ele>
        <time>2026-08-30T10:46:53Z</time>
      </trkpt>
      <trkpt lat="43.08733" lon="0.2375">
        <ele>418.22</ele>
        <time>2026-08-30T10:46:55Z</time>
      </trkpt>
      <trkpt lat="43.08727" lon="0.23758">
        <ele>417.3</ele>
        <time>2026-08-30T10:46:56Z</time>
      </trkpt>
      <trkpt lat="43.08721" lon="0.23766">
        <ele>417.19</ele>
        <time>2026-08-30T10:46:57Z</time>
      </trkpt>
      <trkpt lat="43.08715" lon="0.23773">
        <ele>416.1</ele>
        <time>2026-08-30T10:46:58Z</time>
      </trkpt>
      <trkpt lat="43.08708" lon="0.23778">
        <ele>415.19</ele>
        <time>2026-08-30T10:46:59Z</time>
      </trkpt>
      <trkpt lat="43.08701" lon="0.23782">
        <ele>414.32</ele>
        <time>2026-08-30T10:47:00Z</time>
      </trkpt>
      <trkpt lat="43.08695" lon="0.23785">
        <ele>413.37</ele>
        <time>2026-08-30T10:47:01Z</time>
      </trkpt>
      <trkpt lat="43.08687" lon="0.23785">
        <ele>412.53</ele>
        <time>2026-08-30T10:47:02Z</time>
      </trkpt>
      <trkpt lat="43.0868" lon="0.23784">
        <ele>411.4</ele>
        <time>2026-08-30T10:47:03Z</time>
      </trkpt>
      <trkpt lat="43.08674" lon="0.23781">
        <ele>411.42</ele>
        <time>2026-08-30T10:47:04Z</time>
      </trkpt>
      <trkpt lat="43.08668" lon="0.23775">
        <ele>409.54</ele>
        <time>2026-08-30T10:47:05Z</time>
      </trkpt>
      <trkpt lat="43.08662" lon="0.23768">
        <ele>409.59</ele>
        <time>2026-08-30T10:47:06Z</time>
      </trkpt>
      <trkpt lat="43.08657" lon="0.2376">
        <ele>408.09</ele>
        <time>2026-08-30T10:47:07Z</time>
      </trkpt>
      <trkpt lat="43.08652" lon="0.23751">
        <ele>406.86</ele>
        <time>2026-08-30T10:47:08Z</time>
      </trkpt>
      <trkpt lat="43.08641" lon="0.23736">
        <ele>405.05</ele>
        <time>2026-08-30T10:47:10Z</time>
      </trkpt>
      <trkpt lat="43.08635" lon="0.23731">
        <ele>404.2</ele>
        <time>2026-08-30T10:47:11Z</time>
      </trkpt>
      <trkpt lat="43.08628" lon="0.23729">
        <ele>404.24</ele>
        <time>2026-08-30T10:47:12Z</time>
      </trkpt>
      <trkpt lat="43.0862" lon="0.23731">
        <ele>402.76</ele>
        <time>2026-08-30T10:47:13Z</time>
      </trkpt>
      <trkpt lat="43.08613" lon="0.23734">
        <ele>402.74</ele>
        <time>2026-08-30T10:47:14Z</time>
      </trkpt>
      <trkpt lat="43.08606" lon="0.2374">
        <ele>401.44</ele>
        <time>2026-08-30T10:47:15Z</time>
      </trkpt>
      <trkpt lat="43.08601" lon="0.23747">
        <ele>401.45</ele>
        <time>2026-08-30T10:47:16Z</time>
      </trkpt>
      <trkpt lat="43.08597" lon="0.23754">
        <ele>401.46</ele>
        <time>2026-08-30T10:47:17Z</time>
      </trkpt>
      <trkpt lat="43.08594" lon="0.23763">
        <ele>401.47</ele>
        <time>2026-08-30T10:47:18Z</time>
      </trkpt>
      <trkpt lat="43.08594" lon="0.23771">
        <ele>401.51</ele>
        <time>2026-08-30T10:47:19Z</time>
      </trkpt>
      <trkpt lat="43.08594" lon="0.23778">
        <ele>401.56</ele>
        <time>2026-08-30T10:47:20Z</time>
      </trkpt>
      <trkpt lat="43.08597" lon="0.23811">
        <ele>401.85</ele>
        <time>2026-08-30T10:47:25Z</time>
      </trkpt>
      <trkpt lat="43.08597" lon="0.23817">
        <ele>401.88</ele>
        <time>2026-08-30T10:47:26Z</time>
      </trkpt>
      <trkpt lat="43.08596" lon="0.23823">
        <ele>402.03</ele>
        <time>2026-08-30T10:47:27Z</time>
      </trkpt>
      <trkpt lat="43.08595" lon="0.23828">
        <ele>402.11</ele>
        <time>2026-08-30T10:47:28Z</time>
      </trkpt>
      <trkpt lat="43.08592" lon="0.23833">
        <ele>402.12</ele>
        <time>2026-08-30T10:47:29Z</time>
      </trkpt>
      <trkpt lat="43.08589" lon="0.23837">
        <ele>402.17</ele>
        <time>2026-08-30T10:47:30Z</time>
      </trkpt>
      <trkpt lat="43.08586" lon="0.23841">
        <ele>402.19</ele>
        <time>2026-08-30T10:47:31Z</time>
      </trkpt>
      <trkpt lat="43.08582" lon="0.23843">
        <ele>402.2</ele>
        <time>2026-08-30T10:47:32Z</time>
      </trkpt>
      <trkpt lat="43.08577" lon="0.23845">
        <ele>402.21</ele>
        <time>2026-08-30T10:47:33Z</time>
      </trkpt>
      <trkpt lat="43.08573" lon="0.23845">
        <ele>402.23</ele>
        <time>2026-08-30T10:47:34Z</time>
      </trkpt>
      <trkpt lat="43.08569" lon="0.23845">
        <ele>402.24</ele>
        <time>2026-08-30T10:47:35Z</time>
      </trkpt>
      <trkpt lat="43.08564" lon="0.23843">
        <ele>404.5</ele>
        <time>2026-08-30T10:47:36Z</time>
      </trkpt>
      <trkpt lat="43.0856" lon="0.23842">
        <ele>404.51</ele>
        <time>2026-08-30T10:47:37Z</time>
      </trkpt>
      <trkpt lat="43.08507" lon="0.23805">
        <ele>407.42</ele>
        <time>2026-08-30T10:47:52Z</time>
      </trkpt>
      <trkpt lat="43.08457" lon="0.23767">
        <ele>411.12</ele>
        <time>2026-08-30T10:48:09Z</time>
      </trkpt>
      <trkpt lat="43.0844" lon="0.23754">
        <ele>414.23</ele>
        <time>2026-08-30T10:48:15Z</time>
      </trkpt>
      <trkpt lat="43.08437" lon="0.23752">
        <ele>414.21</ele>
        <time>2026-08-30T10:48:16Z</time>
      </trkpt>
      <trkpt lat="43.08401" lon="0.23724">
        <ele>415.26</ele>
        <time>2026-08-30T10:48:29Z</time>
      </trkpt>
      <trkpt lat="43.08378" lon="0.23731">
        <ele>417.05</ele>
        <time>2026-08-30T10:48:37Z</time>
      </trkpt>
      <trkpt lat="43.08378" lon="0.23733">
        <ele>417.03</ele>
        <time>2026-08-30T10:48:38Z</time>
      </trkpt>
      <trkpt lat="43.08378" lon="0.23739">
        <ele>417.07</ele>
        <time>2026-08-30T10:48:39Z</time>
      </trkpt>
      <trkpt lat="43.08379" lon="0.23745">
        <ele>417.02</ele>
        <time>2026-08-30T10:48:40Z</time>
      </trkpt>
      <trkpt lat="43.0838" lon="0.2375">
        <ele>417.03</ele>
        <time>2026-08-30T10:48:41Z</time>
      </trkpt>
      <trkpt lat="43.08382" lon="0.23754">
        <ele>418.2</ele>
        <time>2026-08-30T10:48:42Z</time>
      </trkpt>
      <trkpt lat="43.08383" lon="0.23758">
        <ele>418.18</ele>
        <time>2026-08-30T10:48:43Z</time>
      </trkpt>
      <trkpt lat="43.08385" lon="0.23762">
        <ele>418.17</ele>
        <time>2026-08-30T10:48:44Z</time>
      </trkpt>
      <trkpt lat="43.08387" lon="0.23766">
        <ele>419.04</ele>
        <time>2026-08-30T10:48:45Z</time>
      </trkpt>
      <trkpt lat="43.08389" lon="0.2377">
        <ele>419.23</ele>
        <time>2026-08-30T10:48:46Z</time>
      </trkpt>
      <trkpt lat="43.08391" lon="0.23773">
        <ele>419.23</ele>
        <time>2026-08-30T10:48:47Z</time>
      </trkpt>
      <trkpt lat="43.08393" lon="0.23777">
        <ele>419.23</ele>
        <time>2026-08-30T10:48:48Z</time>
      </trkpt>
      <trkpt lat="43.08395" lon="0.23781">
        <ele>415.53</ele>
        <time>2026-08-30T10:48:49Z</time>
      </trkpt>
      <trkpt lat="43.08398" lon="0.23785">
        <ele>420.88</ele>
        <time>2026-08-30T10:48:50Z</time>
      </trkpt>
      <trkpt lat="43.084" lon="0.23788">
        <ele>420.86</ele>
        <time>2026-08-30T10:48:51Z</time>
      </trkpt>
      <trkpt lat="43.08432" lon="0.23857">
        <ele>423.87</ele>
        <time>2026-08-30T10:49:08Z</time>
      </trkpt>
      <trkpt lat="43.08462" lon="0.23931">
        <ele>427.7</ele>
        <time>2026-08-30T10:49:25Z</time>
      </trkpt>
      <trkpt lat="43.08477" lon="0.23983">
        <ele>430.73</ele>
        <time>2026-08-30T10:49:37Z</time>
      </trkpt>
      <trkpt lat="43.08477" lon="0.23987">
        <ele>430.74</ele>
        <time>2026-08-30T10:49:38Z</time>
      </trkpt>
      <trkpt lat="43.08464" lon="0.24035">
        <ele>433.75</ele>
        <time>2026-08-30T10:49:49Z</time>
      </trkpt>
      <trkpt lat="43.08452" lon="0.24096">
        <ele>434.67</ele>
        <time>2026-08-30T10:50:02Z</time>
      </trkpt>
      <trkpt lat="43.08456" lon="0.24105">
        <ele>434.66</ele>
        <time>2026-08-30T10:50:04Z</time>
      </trkpt>
      <trkpt lat="43.08459" lon="0.24109">
        <ele>435.71</ele>
        <time>2026-08-30T10:50:05Z</time>
      </trkpt>
      <trkpt lat="43.08462" lon="0.24113">
        <ele>435.69</ele>
        <time>2026-08-30T10:50:06Z</time>
      </trkpt>
      <trkpt lat="43.08511" lon="0.24161">
        <ele>435.59</ele>
        <time>2026-08-30T10:50:20Z</time>
      </trkpt>
      <trkpt lat="43.08555" lon="0.24205">
        <ele>439.61</ele>
        <time>2026-08-30T10:50:34Z</time>
      </trkpt>
      <trkpt lat="43.08558" lon="0.24208">
        <ele>439.64</ele>
        <time>2026-08-30T10:50:35Z</time>
      </trkpt>
      <trkpt lat="43.08597" lon="0.24238">
        <ele>443.3</ele>
        <time>2026-08-30T10:50:47Z</time>
      </trkpt>
      <trkpt lat="43.08603" lon="0.24244">
        <ele>444.54</ele>
        <time>2026-08-30T10:50:50Z</time>
      </trkpt>
      <trkpt lat="43.08615" lon="0.24253">
        <ele>446.38</ele>
        <time>2026-08-30T10:50:54Z</time>
      </trkpt>
      <trkpt lat="43.08637" lon="0.2425">
        <ele>449.81</ele>
        <time>2026-08-30T10:51:01Z</time>
      </trkpt>
      <trkpt lat="43.08639" lon="0.24247">
        <ele>449.79</ele>
        <time>2026-08-30T10:51:02Z</time>
      </trkpt>
      <trkpt lat="43.08644" lon="0.24243">
        <ele>451.41</ele>
        <time>2026-08-30T10:51:04Z</time>
      </trkpt>
      <trkpt lat="43.08658" lon="0.24228">
        <ele>454.7</ele>
        <time>2026-08-30T10:51:10Z</time>
      </trkpt>
      <trkpt lat="43.0866" lon="0.24225">
        <ele>454.7</ele>
        <time>2026-08-30T10:51:11Z</time>
      </trkpt>
      <trkpt lat="43.08667" lon="0.24218">
        <ele>456.34</ele>
        <time>2026-08-30T10:51:14Z</time>
      </trkpt>
      <trkpt lat="43.08685" lon="0.24201">
        <ele>458.54</ele>
        <time>2026-08-30T10:51:21Z</time>
      </trkpt>
      <trkpt lat="43.08693" lon="0.24195">
        <ele>460.54</ele>
        <time>2026-08-30T10:51:24Z</time>
      </trkpt>
      <trkpt lat="43.08703" lon="0.24189">
        <ele>462.39</ele>
        <time>2026-08-30T10:51:28Z</time>
      </trkpt>
      <trkpt lat="43.08716" lon="0.24184">
        <ele>464.51</ele>
        <time>2026-08-30T10:51:33Z</time>
      </trkpt>
      <trkpt lat="43.08753" lon="0.24189">
        <ele>467.22</ele>
        <time>2026-08-30T10:51:46Z</time>
      </trkpt>
      <trkpt lat="43.08787" lon="0.24201">
        <ele>470.37</ele>
        <time>2026-08-30T10:51:57Z</time>
      </trkpt>
      <trkpt lat="43.08793" lon="0.24202">
        <ele>471.15</ele>
        <time>2026-08-30T10:52:06Z</time>
      </trkpt>
      <trkpt lat="43.08793" lon="0.24201">
        <ele>467.3</ele>
        <time>2026-08-30T10:52:12Z</time>
      </trkpt>
      <trkpt lat="43.08792" lon="0.24201">
        <ele>467.3</ele>
        <time>2026-08-30T10:52:13Z</time>
      </trkpt>
      <trkpt lat="43.08792" lon="0.24201">
        <ele>472.13</ele>
        <time>2026-08-30T10:52:14Z</time>
      </trkpt>
      <trkpt lat="43.08792" lon="0.24201">
        <ele>469.7</ele>
        <time>2026-08-30T10:52:15Z</time>
      </trkpt>
      <trkpt lat="43.08792" lon="0.24201">
        <ele>472.85</ele>
        <time>2026-08-30T10:52:17Z</time>
      </trkpt>
      <trkpt lat="43.08792" lon="0.24201">
        <ele>472.85</ele>
        <time>2026-08-30T10:52:18Z</time>
      </trkpt>
      <trkpt lat="43.08804" lon="0.242">
        <ele>469.97</ele>
        <time>2026-08-30T10:52:33Z</time>
      </trkpt>
      <trkpt lat="43.08855" lon="0.2418">
        <ele>470.08</ele>
        <time>2026-08-30T10:52:47Z</time>
      </trkpt>
      <trkpt lat="43.08901" lon="0.24179">
        <ele>470.02</ele>
        <time>2026-08-30T10:53:00Z</time>
      </trkpt>
      <trkpt lat="43.08919" lon="0.24184">
        <ele>472.38</ele>
        <time>2026-08-30T10:53:06Z</time>
      </trkpt>
      <trkpt lat="43.08932" lon="0.24186">
        <ele>474.72</ele>
        <time>2026-08-30T10:53:11Z</time>
      </trkpt>
      <trkpt lat="43.08957" lon="0.2419">
        <ele>477.97</ele>
        <time>2026-08-30T10:53:21Z</time>
      </trkpt>
      <trkpt lat="43.08975" lon="0.24195">
        <ele>480.73</ele>
        <time>2026-08-30T10:53:28Z</time>
      </trkpt>
      <trkpt lat="43.08999" lon="0.24197">
        <ele>484.56</ele>
        <time>2026-08-30T10:53:37Z</time>
      </trkpt>
      <trkpt lat="43.0903" lon="0.24195">
        <ele>486.82</ele>
        <time>2026-08-30T10:53:47Z</time>
      </trkpt>
      <trkpt lat="43.0909" lon="0.24174">
        <ele>484.14</ele>
        <time>2026-08-30T10:53:56Z</time>
      </trkpt>
      <trkpt lat="43.09102" lon="0.24174">
        <ele>484.13</ele>
        <time>2026-08-30T10:53:58Z</time>
      </trkpt>
      <trkpt lat="43.09107" lon="0.24174">
        <ele>484.11</ele>
        <time>2026-08-30T10:53:59Z</time>
      </trkpt>
      <trkpt lat="43.09126" lon="0.24179">
        <ele>481.98</ele>
        <time>2026-08-30T10:54:03Z</time>
      </trkpt>
      <trkpt lat="43.09131" lon="0.24181">
        <ele>481.91</ele>
        <time>2026-08-30T10:54:04Z</time>
      </trkpt>
      <trkpt lat="43.09145" lon="0.24188">
        <ele>483.92</ele>
        <time>2026-08-30T10:54:07Z</time>
      </trkpt>
      <trkpt lat="43.09159" lon="0.24197">
        <ele>483.96</ele>
        <time>2026-08-30T10:54:10Z</time>
      </trkpt>
      <trkpt lat="43.09162" lon="0.242">
        <ele>483.93</ele>
        <time>2026-08-30T10:54:11Z</time>
      </trkpt>
      <trkpt lat="43.09167" lon="0.24202">
        <ele>483.97</ele>
        <time>2026-08-30T10:54:12Z</time>
      </trkpt>
      <trkpt lat="43.09171" lon="0.24203">
        <ele>483.95</ele>
        <time>2026-08-30T10:54:13Z</time>
      </trkpt>
      <trkpt lat="43.09176" lon="0.24204">
        <ele>480.72</ele>
        <time>2026-08-30T10:54:14Z</time>
      </trkpt>
      <trkpt lat="43.09181" lon="0.24205">
        <ele>480.71</ele>
        <time>2026-08-30T10:54:15Z</time>
      </trkpt>
      <trkpt lat="43.09206" lon="0.24206">
        <ele>477.61</ele>
        <time>2026-08-30T10:54:20Z</time>
      </trkpt>
      <trkpt lat="43.0921" lon="0.24206">
        <ele>477.66</ele>
        <time>2026-08-30T10:54:21Z</time>
      </trkpt>
      <trkpt lat="43.09215" lon="0.24205">
        <ele>476.81</ele>
        <time>2026-08-30T10:54:22Z</time>
      </trkpt>
      <trkpt lat="43.09218" lon="0.24203">
        <ele>475.86</ele>
        <time>2026-08-30T10:54:23Z</time>
      </trkpt>
      <trkpt lat="43.09223" lon="0.24201">
        <ele>475.8</ele>
        <time>2026-08-30T10:54:24Z</time>
      </trkpt>
      <trkpt lat="43.09228" lon="0.24198">
        <ele>474.52</ele>
        <time>2026-08-30T10:54:25Z</time>
      </trkpt>
      <trkpt lat="43.09233" lon="0.24196">
        <ele>474.6</ele>
        <time>2026-08-30T10:54:26Z</time>
      </trkpt>
      <trkpt lat="43.09248" lon="0.2419">
        <ele>473.24</ele>
        <time>2026-08-30T10:54:29Z</time>
      </trkpt>
      <trkpt lat="43.09263" lon="0.24186">
        <ele>471.67</ele>
        <time>2026-08-30T10:54:32Z</time>
      </trkpt>
      <trkpt lat="43.09275" lon="0.24186">
        <ele>469.92</ele>
        <time>2026-08-30T10:54:34Z</time>
      </trkpt>
      <trkpt lat="43.09281" lon="0.24187">
        <ele>469.85</ele>
        <time>2026-08-30T10:54:35Z</time>
      </trkpt>
      <trkpt lat="43.09299" lon="0.24192">
        <ele>468.18</ele>
        <time>2026-08-30T10:54:38Z</time>
      </trkpt>
      <trkpt lat="43.09326" lon="0.242">
        <ele>465.84</ele>
        <time>2026-08-30T10:54:43Z</time>
      </trkpt>
      <trkpt lat="43.09349" lon="0.24209">
        <ele>463.97</ele>
        <time>2026-08-30T10:54:47Z</time>
      </trkpt>
      <trkpt lat="43.09395" lon="0.24242">
        <ele>462.16</ele>
        <time>2026-08-30T10:54:56Z</time>
      </trkpt>
      <trkpt lat="43.09418" lon="0.24248">
        <ele>461.12</ele>
        <time>2026-08-30T10:55:00Z</time>
      </trkpt>
      <trkpt lat="43.09435" lon="0.24255">
        <ele>459.99</ele>
        <time>2026-08-30T10:55:03Z</time>
      </trkpt>
      <trkpt lat="43.09448" lon="0.24264">
        <ele>458.57</ele>
        <time>2026-08-30T10:55:05Z</time>
      </trkpt>
      <trkpt lat="43.09454" lon="0.2427">
        <ele>457.53</ele>
        <time>2026-08-30T10:55:06Z</time>
      </trkpt>
      <trkpt lat="43.09459" lon="0.24275">
        <ele>457.58</ele>
        <time>2026-08-30T10:55:07Z</time>
      </trkpt>
      <trkpt lat="43.09463" lon="0.2428">
        <ele>457.56</ele>
        <time>2026-08-30T10:55:08Z</time>
      </trkpt>
      <trkpt lat="43.09467" lon="0.24285">
        <ele>457.58</ele>
        <time>2026-08-30T10:55:09Z</time>
      </trkpt>
      <trkpt lat="43.09469" lon="0.24291">
        <ele>457.55</ele>
        <time>2026-08-30T10:55:10Z</time>
      </trkpt>
      <trkpt lat="43.0947" lon="0.24296">
        <ele>457.56</ele>
        <time>2026-08-30T10:55:11Z</time>
      </trkpt>
      <trkpt lat="43.09471" lon="0.24301">
        <ele>457.63</ele>
        <time>2026-08-30T10:55:12Z</time>
      </trkpt>
      <trkpt lat="43.09471" lon="0.24306">
        <ele>457.61</ele>
        <time>2026-08-30T10:55:13Z</time>
      </trkpt>
      <trkpt lat="43.0947" lon="0.2431">
        <ele>457.72</ele>
        <time>2026-08-30T10:55:14Z</time>
      </trkpt>
      <trkpt lat="43.09457" lon="0.24337">
        <ele>460.15</ele>
        <time>2026-08-30T10:55:21Z</time>
      </trkpt>
      <trkpt lat="43.09449" lon="0.24364">
        <ele>460.13</ele>
        <time>2026-08-30T10:55:33Z</time>
      </trkpt>
      <trkpt lat="43.09449" lon="0.2437">
        <ele>460.2</ele>
        <time>2026-08-30T10:56:05Z</time>
      </trkpt>
      <trkpt lat="43.09472" lon="0.24415">
        <ele>460.14</ele>
        <time>2026-08-30T10:56:17Z</time>
      </trkpt>
      <trkpt lat="43.09485" lon="0.24432">
        <ele>457.4</ele>
        <time>2026-08-30T10:56:22Z</time>
      </trkpt>
      <trkpt lat="43.09526" lon="0.24463">
        <ele>453.22</ele>
        <time>2026-08-30T10:56:35Z</time>
      </trkpt>
      <trkpt lat="43.09531" lon="0.24467">
        <ele>453.2</ele>
        <time>2026-08-30T10:56:36Z</time>
      </trkpt>
      <trkpt lat="43.09545" lon="0.2448">
        <ele>451.22</ele>
        <time>2026-08-30T10:56:39Z</time>
      </trkpt>
      <trkpt lat="43.09565" lon="0.24504">
        <ele>447.93</ele>
        <time>2026-08-30T10:56:43Z</time>
      </trkpt>
      <trkpt lat="43.09575" lon="0.24517">
        <ele>446.94</ele>
        <time>2026-08-30T10:56:45Z</time>
      </trkpt>
      <trkpt lat="43.09586" lon="0.24531">
        <ele>445.48</ele>
        <time>2026-08-30T10:56:47Z</time>
      </trkpt>
      <trkpt lat="43.09604" lon="0.24553">
        <ele>444.2</ele>
        <time>2026-08-30T10:56:50Z</time>
      </trkpt>
      <trkpt lat="43.0962" lon="0.24572">
        <ele>444.26</ele>
        <time>2026-08-30T10:56:53Z</time>
      </trkpt>
      <trkpt lat="43.09625" lon="0.24576">
        <ele>444.24</ele>
        <time>2026-08-30T10:56:54Z</time>
      </trkpt>
      <trkpt lat="43.0966" lon="0.24616">
        <ele>443.46</ele>
        <time>2026-08-30T10:57:05Z</time>
      </trkpt>
      <trkpt lat="43.09662" lon="0.24625">
        <ele>443.51</ele>
        <time>2026-08-30T10:57:07Z</time>
      </trkpt>
      <trkpt lat="43.09662" lon="0.2463">
        <ele>443.54</ele>
        <time>2026-08-30T10:57:08Z</time>
      </trkpt>
      <trkpt lat="43.09662" lon="0.24636">
        <ele>443.55</ele>
        <time>2026-08-30T10:57:09Z</time>
      </trkpt>
      <trkpt lat="43.09649" lon="0.24677">
        <ele>443.59</ele>
        <time>2026-08-30T10:57:18Z</time>
      </trkpt>
      <trkpt lat="43.09646" lon="0.24681">
        <ele>443.6</ele>
        <time>2026-08-30T10:57:19Z</time>
      </trkpt>
      <trkpt lat="43.09631" lon="0.24708">
        <ele>443.59</ele>
        <time>2026-08-30T10:57:25Z</time>
      </trkpt>
      <trkpt lat="43.0963" lon="0.24713">
        <ele>443.61</ele>
        <time>2026-08-30T10:57:26Z</time>
      </trkpt>
      <trkpt lat="43.09617" lon="0.24777">
        <ele>443.61</ele>
        <time>2026-08-30T10:57:38Z</time>
      </trkpt>
      <trkpt lat="43.09609" lon="0.24842">
        <ele>443.62</ele>
        <time>2026-08-30T10:57:49Z</time>
      </trkpt>
      <trkpt lat="43.09608" lon="0.24895">
        <ele>443.59</ele>
        <time>2026-08-30T10:57:57Z</time>
      </trkpt>
      <trkpt lat="43.09602" lon="0.24987">
        <ele>442.66</ele>
        <time>2026-08-30T10:58:07Z</time>
      </trkpt>
      <trkpt lat="43.09569" lon="0.25083">
        <ele>439.8</ele>
        <time>2026-08-30T10:58:18Z</time>
      </trkpt>
      <trkpt lat="43.09552" lon="0.25115">
        <ele>437.69</ele>
        <time>2026-08-30T10:58:21Z</time>
      </trkpt>
      <trkpt lat="43.09539" lon="0.25136">
        <ele>436.44</ele>
        <time>2026-08-30T10:58:23Z</time>
      </trkpt>
      <trkpt lat="43.09524" lon="0.25157">
        <ele>434.88</ele>
        <time>2026-08-30T10:58:25Z</time>
      </trkpt>
      <trkpt lat="43.09507" lon="0.25176">
        <ele>431.87</ele>
        <time>2026-08-30T10:58:27Z</time>
      </trkpt>
      <trkpt lat="43.09499" lon="0.25186">
        <ele>431.85</ele>
        <time>2026-08-30T10:58:28Z</time>
      </trkpt>
      <trkpt lat="43.09454" lon="0.25247">
        <ele>429.51</ele>
        <time>2026-08-30T10:58:34Z</time>
      </trkpt>
      <trkpt lat="43.09422" lon="0.2529">
        <ele>427.46</ele>
        <time>2026-08-30T10:58:39Z</time>
      </trkpt>
      <trkpt lat="43.09403" lon="0.25317">
        <ele>424.86</ele>
        <time>2026-08-30T10:58:43Z</time>
      </trkpt>
      <trkpt lat="43.094" lon="0.25323">
        <ele>423.46</ele>
        <time>2026-08-30T10:58:44Z</time>
      </trkpt>
      <trkpt lat="43.09397" lon="0.25329">
        <ele>423.43</ele>
        <time>2026-08-30T10:58:45Z</time>
      </trkpt>
      <trkpt lat="43.09393" lon="0.25333">
        <ele>422.3</ele>
        <time>2026-08-30T10:58:46Z</time>
      </trkpt>
      <trkpt lat="43.09387" lon="0.25336">
        <ele>422.28</ele>
        <time>2026-08-30T10:58:47Z</time>
      </trkpt>
      <trkpt lat="43.09381" lon="0.25337">
        <ele>421.14</ele>
        <time>2026-08-30T10:58:48Z</time>
      </trkpt>
      <trkpt lat="43.09374" lon="0.25338">
        <ele>420.26</ele>
        <time>2026-08-30T10:58:49Z</time>
      </trkpt>
      <trkpt lat="43.09366" lon="0.25338">
        <ele>420.31</ele>
        <time>2026-08-30T10:58:50Z</time>
      </trkpt>
      <trkpt lat="43.0935" lon="0.25339">
        <ele>419.1</ele>
        <time>2026-08-30T10:58:52Z</time>
      </trkpt>
      <trkpt lat="43.09342" lon="0.25342">
        <ele>417.98</ele>
        <time>2026-08-30T10:58:53Z</time>
      </trkpt>
      <trkpt lat="43.09334" lon="0.25347">
        <ele>417.97</ele>
        <time>2026-08-30T10:58:54Z</time>
      </trkpt>
      <trkpt lat="43.09317" lon="0.2536">
        <ele>416.66</ele>
        <time>2026-08-30T10:58:56Z</time>
      </trkpt>
      <trkpt lat="43.09288" lon="0.2538">
        <ele>412.66</ele>
        <time>2026-08-30T10:58:59Z</time>
      </trkpt>
      <trkpt lat="43.09262" lon="0.25397">
        <ele>409.39</ele>
        <time>2026-08-30T10:59:02Z</time>
      </trkpt>
      <trkpt lat="43.09255" lon="0.254">
        <ele>407.81</ele>
        <time>2026-08-30T10:59:03Z</time>
      </trkpt>
      <trkpt lat="43.09249" lon="0.254">
        <ele>407.95</ele>
        <time>2026-08-30T10:59:04Z</time>
      </trkpt>
      <trkpt lat="43.09244" lon="0.25397">
        <ele>407.17</ele>
        <time>2026-08-30T10:59:05Z</time>
      </trkpt>
      <trkpt lat="43.09241" lon="0.25391">
        <ele>406.05</ele>
        <time>2026-08-30T10:59:06Z</time>
      </trkpt>
      <trkpt lat="43.09239" lon="0.25384">
        <ele>406.16</ele>
        <time>2026-08-30T10:59:07Z</time>
      </trkpt>
      <trkpt lat="43.0924" lon="0.25376">
        <ele>406.26</ele>
        <time>2026-08-30T10:59:08Z</time>
      </trkpt>
      <trkpt lat="43.09241" lon="0.25368">
        <ele>406.26</ele>
        <time>2026-08-30T10:59:09Z</time>
      </trkpt>
      <trkpt lat="43.09243" lon="0.2536">
        <ele>406.27</ele>
        <time>2026-08-30T10:59:10Z</time>
      </trkpt>
      <trkpt lat="43.09245" lon="0.25352">
        <ele>405.48</ele>
        <time>2026-08-30T10:59:11Z</time>
      </trkpt>
      <trkpt lat="43.09254" lon="0.25318">
        <ele>404.21</ele>
        <time>2026-08-30T10:59:15Z</time>
      </trkpt>
      <trkpt lat="43.0926" lon="0.25274">
        <ele>402.12</ele>
        <time>2026-08-30T10:59:19Z</time>
      </trkpt>
      <trkpt lat="43.09262" lon="0.25262">
        <ele>400.76</ele>
        <time>2026-08-30T10:59:20Z</time>
      </trkpt>
      <trkpt lat="43.09267" lon="0.25228">
        <ele>398.33</ele>
        <time>2026-08-30T10:59:23Z</time>
      </trkpt>
      <trkpt lat="43.09269" lon="0.25217">
        <ele>396.29</ele>
        <time>2026-08-30T10:59:24Z</time>
      </trkpt>
      <trkpt lat="43.09272" lon="0.25206">
        <ele>394.97</ele>
        <time>2026-08-30T10:59:25Z</time>
      </trkpt>
      <trkpt lat="43.09276" lon="0.25196">
        <ele>394.13</ele>
        <time>2026-08-30T10:59:26Z</time>
      </trkpt>
      <trkpt lat="43.0928" lon="0.25186">
        <ele>392.85</ele>
        <time>2026-08-30T10:59:27Z</time>
      </trkpt>
      <trkpt lat="43.09286" lon="0.25177">
        <ele>392.93</ele>
        <time>2026-08-30T10:59:28Z</time>
      </trkpt>
      <trkpt lat="43.09293" lon="0.2517">
        <ele>391.85</ele>
        <time>2026-08-30T10:59:29Z</time>
      </trkpt>
      <trkpt lat="43.09306" lon="0.25158">
        <ele>391.84</ele>
        <time>2026-08-30T10:59:31Z</time>
      </trkpt>
      <trkpt lat="43.09319" lon="0.25147">
        <ele>391.87</ele>
        <time>2026-08-30T10:59:34Z</time>
      </trkpt>
      <trkpt lat="43.09322" lon="0.25144">
        <ele>391.85</ele>
        <time>2026-08-30T10:59:35Z</time>
      </trkpt>
      <trkpt lat="43.09342" lon="0.2513">
        <ele>394.56</ele>
        <time>2026-08-30T10:59:42Z</time>
      </trkpt>
      <trkpt lat="43.09355" lon="0.25121">
        <ele>395.99</ele>
        <time>2026-08-30T10:59:47Z</time>
      </trkpt>
      <trkpt lat="43.09358" lon="0.25117">
        <ele>396.01</ele>
        <time>2026-08-30T10:59:49Z</time>
      </trkpt>
      <trkpt lat="43.09359" lon="0.25114">
        <ele>396.01</ele>
        <time>2026-08-30T10:59:50Z</time>
      </trkpt>
      <trkpt lat="43.09358" lon="0.25111">
        <ele>396.03</ele>
        <time>2026-08-30T10:59:51Z</time>
      </trkpt>
      <trkpt lat="43.09354" lon="0.25109">
        <ele>395.98</ele>
        <time>2026-08-30T10:59:52Z</time>
      </trkpt>
      <trkpt lat="43.0935" lon="0.25109">
        <ele>395.98</ele>
        <time>2026-08-30T10:59:53Z</time>
      </trkpt>
      <trkpt lat="43.09345" lon="0.25111">
        <ele>395.95</ele>
        <time>2026-08-30T10:59:54Z</time>
      </trkpt>
      <trkpt lat="43.09339" lon="0.25117">
        <ele>395.9</ele>
        <time>2026-08-30T10:59:55Z</time>
      </trkpt>
      <trkpt lat="43.09333" lon="0.25122">
        <ele>393.57</ele>
        <time>2026-08-30T10:59:56Z</time>
      </trkpt>
      <trkpt lat="43.09326" lon="0.25128">
        <ele>392.55</ele>
        <time>2026-08-30T10:59:57Z</time>
      </trkpt>
      <trkpt lat="43.09318" lon="0.25134">
        <ele>392.52</ele>
        <time>2026-08-30T10:59:58Z</time>
      </trkpt>
      <trkpt lat="43.09302" lon="0.25146">
        <ele>389.47</ele>
        <time>2026-08-30T11:00:00Z</time>
      </trkpt>
      <trkpt lat="43.09277" lon="0.25164">
        <ele>386.09</ele>
        <time>2026-08-30T11:00:03Z</time>
      </trkpt>
      <trkpt lat="43.0925" lon="0.25184">
        <ele>382.65</ele>
        <time>2026-08-30T11:00:06Z</time>
      </trkpt>
      <trkpt lat="43.09225" lon="0.2521">
        <ele>379.77</ele>
        <time>2026-08-30T11:00:09Z</time>
      </trkpt>
      <trkpt lat="43.09209" lon="0.25232">
        <ele>375.91</ele>
        <time>2026-08-30T11:00:11Z</time>
      </trkpt>
      <trkpt lat="43.09185" lon="0.25266">
        <ele>372.1</ele>
        <time>2026-08-30T11:00:14Z</time>
      </trkpt>
      <trkpt lat="43.09164" lon="0.25294">
        <ele>368.46</ele>
        <time>2026-08-30T11:00:17Z</time>
      </trkpt>
      <trkpt lat="43.09158" lon="0.25304">
        <ele>367.22</ele>
        <time>2026-08-30T11:00:18Z</time>
      </trkpt>
      <trkpt lat="43.09152" lon="0.25313">
        <ele>367.19</ele>
        <time>2026-08-30T11:00:19Z</time>
      </trkpt>
      <trkpt lat="43.09139" lon="0.25332">
        <ele>364.09</ele>
        <time>2026-08-30T11:00:21Z</time>
      </trkpt>
      <trkpt lat="43.09122" lon="0.25346">
        <ele>363.23</ele>
        <time>2026-08-30T11:00:23Z</time>
      </trkpt>
      <trkpt lat="43.09114" lon="0.25352">
        <ele>361.94</ele>
        <time>2026-08-30T11:00:24Z</time>
      </trkpt>
      <trkpt lat="43.09106" lon="0.25359">
        <ele>361.98</ele>
        <time>2026-08-30T11:00:25Z</time>
      </trkpt>
      <trkpt lat="43.091" lon="0.25367">
        <ele>360.56</ele>
        <time>2026-08-30T11:00:26Z</time>
      </trkpt>
      <trkpt lat="43.09093" lon="0.25375">
        <ele>359.62</ele>
        <time>2026-08-30T11:00:27Z</time>
      </trkpt>
      <trkpt lat="43.09067" lon="0.25408">
        <ele>355.08</ele>
        <time>2026-08-30T11:00:31Z</time>
      </trkpt>
      <trkpt lat="43.09061" lon="0.25415">
        <ele>354.02</ele>
        <time>2026-08-30T11:00:32Z</time>
      </trkpt>
      <trkpt lat="43.09056" lon="0.25423">
        <ele>352.72</ele>
        <time>2026-08-30T11:00:33Z</time>
      </trkpt>
      <trkpt lat="43.09052" lon="0.25432">
        <ele>352</ele>
        <time>2026-08-30T11:00:34Z</time>
      </trkpt>
      <trkpt lat="43.09048" lon="0.25441">
        <ele>350.45</ele>
        <time>2026-08-30T11:00:35Z</time>
      </trkpt>
      <trkpt lat="43.09045" lon="0.2545">
        <ele>349.3</ele>
        <time>2026-08-30T11:00:36Z</time>
      </trkpt>
      <trkpt lat="43.09043" lon="0.2546">
        <ele>349.36</ele>
        <time>2026-08-30T11:00:37Z</time>
      </trkpt>
      <trkpt lat="43.09042" lon="0.25471">
        <ele>347.53</ele>
        <time>2026-08-30T11:00:38Z</time>
      </trkpt>
      <trkpt lat="43.09043" lon="0.25481">
        <ele>346.42</ele>
        <time>2026-08-30T11:00:39Z</time>
      </trkpt>
      <trkpt lat="43.09045" lon="0.25491">
        <ele>345.52</ele>
        <time>2026-08-30T11:00:40Z</time>
      </trkpt>
      <trkpt lat="43.09048" lon="0.255">
        <ele>344.58</ele>
        <time>2026-08-30T11:00:41Z</time>
      </trkpt>
      <trkpt lat="43.09055" lon="0.25533">
        <ele>340.75</ele>
        <time>2026-08-30T11:00:44Z</time>
      </trkpt>
      <trkpt lat="43.09055" lon="0.25543">
        <ele>340.66</ele>
        <time>2026-08-30T11:00:45Z</time>
      </trkpt>
      <trkpt lat="43.09054" lon="0.25555">
        <ele>339.35</ele>
        <time>2026-08-30T11:00:46Z</time>
      </trkpt>
      <trkpt lat="43.09053" lon="0.25566">
        <ele>339.33</ele>
        <time>2026-08-30T11:00:47Z</time>
      </trkpt>
      <trkpt lat="43.09051" lon="0.25577">
        <ele>338.31</ele>
        <time>2026-08-30T11:00:48Z</time>
      </trkpt>
      <trkpt lat="43.09031" lon="0.25645">
        <ele>337.6</ele>
        <time>2026-08-30T11:00:56Z</time>
      </trkpt>
      <trkpt lat="43.09027" lon="0.25677">
        <ele>336.75</ele>
        <time>2026-08-30T11:01:00Z</time>
      </trkpt>
      <trkpt lat="43.09026" lon="0.25684">
        <ele>336.75</ele>
        <time>2026-08-30T11:01:01Z</time>
      </trkpt>
      <trkpt lat="43.0903" lon="0.25724">
        <ele>336.88</ele>
        <time>2026-08-30T11:01:07Z</time>
      </trkpt>
      <trkpt lat="43.09031" lon="0.2573">
        <ele>336.88</ele>
        <time>2026-08-30T11:01:08Z</time>
      </trkpt>
      <trkpt lat="43.09037" lon="0.25751">
        <ele>339.91</ele>
        <time>2026-08-30T11:01:12Z</time>
      </trkpt>
      <trkpt lat="43.09038" lon="0.25755">
        <ele>339.92</ele>
        <time>2026-08-30T11:01:13Z</time>
      </trkpt>
      <trkpt lat="43.09044" lon="0.25782">
        <ele>334.98</ele>
        <time>2026-08-30T11:01:20Z</time>
      </trkpt>
      <trkpt lat="43.09045" lon="0.25786">
        <ele>342.31</ele>
        <time>2026-08-30T11:01:21Z</time>
      </trkpt>
      <trkpt lat="43.09046" lon="0.25839">
        <ele>344.71</ele>
        <time>2026-08-30T11:01:36Z</time>
      </trkpt>
      <trkpt lat="43.09044" lon="0.25842">
        <ele>344.71</ele>
        <time>2026-08-30T11:01:37Z</time>
      </trkpt>
      <trkpt lat="43.09043" lon="0.25844">
        <ele>344.71</ele>
        <time>2026-08-30T11:01:38Z</time>
      </trkpt>
      <trkpt lat="43.09042" lon="0.25846">
        <ele>344.7</ele>
        <time>2026-08-30T11:01:39Z</time>
      </trkpt>
      <trkpt lat="43.09039" lon="0.25847">
        <ele>345.75</ele>
        <time>2026-08-30T11:01:40Z</time>
      </trkpt>
      <trkpt lat="43.09036" lon="0.25846">
        <ele>345.72</ele>
        <time>2026-08-30T11:01:41Z</time>
      </trkpt>
      <trkpt lat="43.09033" lon="0.25846">
        <ele>345.72</ele>
        <time>2026-08-30T11:01:42Z</time>
      </trkpt>
      <trkpt lat="43.0903" lon="0.25847">
        <ele>345.73</ele>
        <time>2026-08-30T11:01:43Z</time>
      </trkpt>
      <trkpt lat="43.09028" lon="0.25847">
        <ele>345.72</ele>
        <time>2026-08-30T11:01:44Z</time>
      </trkpt>
      <trkpt lat="43.09006" lon="0.25849">
        <ele>345.62</ele>
        <time>2026-08-30T11:01:56Z</time>
      </trkpt>
      <trkpt lat="43.09006" lon="0.25851">
        <ele>345.62</ele>
        <time>2026-08-30T11:02:21Z</time>
      </trkpt>
      <trkpt lat="43.09006" lon="0.2585">
        <ele>345.67</ele>
        <time>2026-08-30T11:02:57Z</time>
      </trkpt>
      <trkpt lat="43.09008" lon="0.25849">
        <ele>345.65</ele>
        <time>2026-08-30T11:03:12Z</time>
      </trkpt>
      <trkpt lat="43.09008" lon="0.25848">
        <ele>343.56</ele>
        <time>2026-08-30T11:03:28Z</time>
      </trkpt>
    </trkseg>
  </trk>
</gpx>